[[{"header":{"parameterUnit":"m.s-1","parameterCategory":1,"la1":30.6,"la2":29.2853,"lo1":-89.7004,"lo2":-87.6739,"dy":0.0162,"dx":0.0183,"nx":112,"ny":82,"refTime":"2023-08-31T06:00:00:Z","depth":0,"parameterNumber":2,"parameterNumberName":"U-component_of_WINDS"},"data":[0.0,0.0,0.0,0.0,0.0,0.0,0.0,0.0,0.0,0.0,0.0,0.0,0.0,0.0,0.0,0.0,0.0,0.0,0.0,0.0,0.0,0.0,0.0,0.0,0.0,0.0,0.0,0.0,0.0,0.0,0.0,0.0,0.0,0.0,0.0,0.0,0.0,0.0,0.0,0.0,0.0,0.0,0.0,0.0,0.0,0.0,0.0,0.0,0.0,0.0,0.0,0.0,0.0,0.0,0.0,0.0,0.0,0.0,0.0,0.0,0.0,0.0,0.0,0.0,0.0,0.0,0.0,0.0,0.0,0.0,0.0,0.0,0.0,0.0,0.0,0.0,0.0,0.0,0.0,0.0,0.0,0.0,0.0,0.0,0.0,0.0,0.0,0.0,0.0,0.0,-3.5926,-3.5313,-3.5343,-3.5317,-3.5105,-3.516,-3.52,-3.5065,0.0,0.0,0.0,0.0,0.0,0.0,0.0,0.0,0.0,0.0,0.0,0.0,0.0,0.0,0.0,0.0,0.0,0.0,0.0,0.0,0.0,0.0,0.0,0.0,0.0,0.0,0.0,0.0,0.0,0.0,0.0,0.0,0.0,0.0,0.0,0.0,0.0,0.0,0.0,0.0,0.0,0.0,0.0,0.0,0.0,0.0,0.0,0.0,0.0,0.0,0.0,0.0,0.0,0.0,0.0,0.0,0.0,0.0,0.0,0.0,0.0,0.0,0.0,0.0,0.0,0.0,0.0,0.0,0.0,0.0,0.0,0.0,0.0,0.0,0.0,0.0,0.0,0.0,0.0,0.0,0.0,0.0,0.0,0.0,0.0,0.0,0.0,0.0,0.0,0.0,0.0,0.0,0.0,0.0,0.0,0.0,0.0,0.0,0.0,0.0,0.0,0.0,0.0,0.0,-3.6903,-3.6787,-3.6771,-3.6531,-3.5893,-3.5868,-3.5851,-3.5827,0.0,0.0,0.0,0.0,0.0,0.0,0.0,0.0,0.0,0.0,0.0,0.0,0.0,0.0,0.0,0.0,0.0,0.0,0.0,0.0,0.0,0.0,0.0,0.0,0.0,0.0,0.0,0.0,0.0,0.0,0.0,0.0,0.0,0.0,0.0,0.0,0.0,0.0,0.0,0.0,0.0,0.0,0.0,0.0,0.0,0.0,0.0,0.0,0.0,0.0,0.0,0.0,0.0,0.0,0.0,0.0,0.0,0.0,0.0,0.0,0.0,0.0,0.0,0.0,0.0,0.0,0.0,0.0,0.0,0.0,0.0,0.0,0.0,0.0,0.0,0.0,0.0,0.0,0.0,0.0,0.0,0.0,0.0,0.0,0.0,0.0,0.0,0.0,0.0,0.0,0.0,0.0,0.0,0.0,0.0,0.0,0.0,0.0,0.0,0.0,0.0,0.0,0.0,-3.6619,-3.6417,-3.6099,-3.6072,-3.5927,-3.5604,-3.5572,-3.5704,-3.6032,-3.5747,0.0,0.0,0.0,0.0,0.0,0.0,0.0,0.0,0.0,0.0,0.0,0.0,0.0,0.0,0.0,0.0,0.0,0.0,0.0,0.0,0.0,0.0,0.0,0.0,0.0,0.0,0.0,0.0,0.0,0.0,0.0,0.0,0.0,0.0,0.0,0.0,0.0,0.0,0.0,0.0,0.0,0.0,0.0,0.0,0.0,0.0,0.0,0.0,0.0,0.0,0.0,0.0,0.0,0.0,0.0,0.0,0.0,0.0,0.0,0.0,0.0,0.0,0.0,0.0,0.0,0.0,0.0,0.0,0.0,0.0,0.0,0.0,0.0,0.0,0.0,0.0,0.0,0.0,0.0,0.0,0.0,0.0,0.0,0.0,0.0,0.0,0.0,0.0,0.0,0.0,0.0,0.0,0.0,0.0,0.0,0.0,0.0,0.0,0.0,0.0,0.0,0.0,-3.663,-3.6055,-3.5761,-3.5704,-3.5641,-3.5483,-3.5468,-3.5665,-3.6119,-3.6136,0.0,0.0,0.0,0.0,0.0,0.0,0.0,0.0,0.0,0.0,0.0,0.0,0.0,0.0,0.0,0.0,0.0,0.0,0.0,0.0,0.0,0.0,0.0,0.0,0.0,0.0,0.0,0.0,0.0,0.0,0.0,0.0,0.0,0.0,0.0,0.0,0.0,0.0,0.0,0.0,0.0,0.0,0.0,0.0,0.0,0.0,0.0,0.0,0.0,0.0,0.0,0.0,0.0,0.0,0.0,0.0,0.0,0.0,0.0,0.0,0.0,0.0,0.0,0.0,0.0,0.0,0.0,0.0,0.0,0.0,0.0,0.0,0.0,0.0,0.0,0.0,0.0,0.0,0.0,0.0,0.0,0.0,0.0,0.0,0.0,0.0,0.0,0.0,0.0,0.0,0.0,0.0,0.0,0.0,0.0,0.0,0.0,0.0,0.0,0.0,0.0,0.0,-3.6781,-3.6614,-3.7198,-3.7257,-3.6975,-3.6285,-3.6222,-3.625,-3.6279,-3.6165,0.0,0.0,0.0,0.0,0.0,0.0,0.0,0.0,0.0,0.0,0.0,0.0,0.0,0.0,0.0,0.0,0.0,0.0,0.0,0.0,0.0,0.0,0.0,0.0,0.0,0.0,0.0,0.0,0.0,0.0,0.0,0.0,0.0,0.0,0.0,0.0,0.0,0.0,0.0,0.0,0.0,0.0,0.0,0.0,0.0,0.0,0.0,0.0,0.0,0.0,0.0,0.0,0.0,0.0,0.0,0.0,0.0,0.0,0.0,0.0,0.0,0.0,0.0,0.0,0.0,0.0,0.0,0.0,0.0,0.0,0.0,0.0,0.0,0.0,0.0,0.0,0.0,0.0,0.0,0.0,0.0,0.0,0.0,0.0,0.0,0.0,0.0,0.0,0.0,0.0,0.0,0.0,0.0,0.0,0.0,0.0,0.0,0.0,0.0,0.0,0.0,0.0,-3.6554,-3.6337,0.0,-3.6211,-3.6104,-3.5828,-3.5813,-3.5953,-3.635,0.0,0.0,0.0,0.0,0.0,0.0,0.0,0.0,0.0,0.0,0.0,0.0,0.0,0.0,0.0,0.0,0.0,0.0,0.0,0.0,0.0,0.0,0.0,0.0,0.0,0.0,0.0,0.0,0.0,0.0,0.0,0.0,0.0,0.0,0.0,0.0,0.0,0.0,0.0,0.0,0.0,0.0,0.0,0.0,0.0,0.0,0.0,0.0,0.0,0.0,0.0,0.0,0.0,0.0,0.0,0.0,0.0,0.0,0.0,0.0,0.0,0.0,0.0,0.0,0.0,0.0,0.0,0.0,0.0,0.0,0.0,0.0,0.0,0.0,0.0,0.0,0.0,0.0,0.0,0.0,0.0,0.0,0.0,0.0,0.0,0.0,0.0,0.0,0.0,0.0,0.0,0.0,0.0,0.0,0.0,0.0,0.0,0.0,0.0,0.0,0.0,0.0,-3.6164,-3.6101,-3.5973,0.0,-3.5504,-3.5504,-3.5504,-3.5504,-3.5683,-3.6085,0.0,0.0,0.0,0.0,0.0,0.0,0.0,0.0,0.0,0.0,0.0,0.0,0.0,0.0,0.0,0.0,0.0,0.0,0.0,0.0,0.0,0.0,0.0,0.0,0.0,0.0,0.0,0.0,0.0,0.0,0.0,0.0,0.0,0.0,0.0,0.0,0.0,0.0,0.0,0.0,0.0,0.0,0.0,0.0,0.0,0.0,0.0,0.0,0.0,0.0,0.0,0.0,0.0,0.0,0.0,0.0,0.0,0.0,0.0,0.0,0.0,0.0,0.0,0.0,0.0,0.0,0.0,0.0,0.0,0.0,0.0,0.0,0.0,0.0,0.0,0.0,0.0,0.0,0.0,0.0,0.0,0.0,0.0,0.0,0.0,0.0,0.0,0.0,0.0,0.0,0.0,0.0,0.0,0.0,0.0,0.0,0.0,0.0,0.0,0.0,0.0,0.0,-3.5504,-3.5504,-3.5504,-3.5504,-3.5504,-3.5504,-3.5504,-3.5504,-3.5504,0.0,0.0,0.0,0.0,0.0,0.0,0.0,0.0,0.0,0.0,0.0,0.0,0.0,0.0,0.0,0.0,0.0,0.0,0.0,0.0,0.0,0.0,0.0,0.0,0.0,0.0,0.0,0.0,0.0,0.0,0.0,0.0,0.0,0.0,0.0,0.0,0.0,0.0,0.0,0.0,0.0,0.0,0.0,0.0,0.0,0.0,0.0,0.0,0.0,0.0,0.0,0.0,0.0,0.0,0.0,0.0,0.0,0.0,0.0,0.0,0.0,0.0,0.0,0.0,0.0,0.0,0.0,0.0,0.0,0.0,0.0,0.0,0.0,0.0,0.0,0.0,0.0,0.0,0.0,0.0,0.0,0.0,0.0,0.0,0.0,0.0,0.0,0.0,0.0,0.0,0.0,0.0,0.0,0.0,0.0,0.0,0.0,0.0,0.0,0.0,0.0,0.0,0.0,-3.5504,-3.5504,-3.5504,-3.5504,-3.5504,-3.5504,-3.5504,-3.5504,-3.5504,-3.5504,0.0,0.0,0.0,0.0,0.0,0.0,0.0,0.0,0.0,0.0,0.0,0.0,0.0,0.0,0.0,0.0,0.0,0.0,0.0,0.0,0.0,0.0,0.0,0.0,0.0,0.0,0.0,0.0,0.0,0.0,0.0,0.0,0.0,0.0,0.0,0.0,0.0,0.0,0.0,0.0,0.0,0.0,0.0,0.0,0.0,0.0,0.0,0.0,0.0,0.0,0.0,0.0,0.0,0.0,0.0,0.0,0.0,0.0,0.0,0.0,0.0,0.0,0.0,0.0,0.0,0.0,0.0,0.0,0.0,0.0,0.0,0.0,0.0,0.0,0.0,0.0,0.0,0.0,0.0,0.0,0.0,0.0,0.0,0.0,0.0,0.0,0.0,0.0,0.0,0.0,0.0,0.0,0.0,0.0,0.0,0.0,0.0,0.0,0.0,0.0,0.0,0.0,-3.5359,-3.5326,-3.5261,-3.5261,-3.5326,-3.5359,-3.5261,-3.5326,-3.5359,-3.5261,0.0,0.0,0.0,0.0,0.0,0.0,0.0,0.0,0.0,0.0,0.0,0.0,0.0,0.0,0.0,0.0,0.0,0.0,0.0,0.0,0.0,0.0,0.0,0.0,0.0,0.0,0.0,0.0,0.0,0.0,0.0,0.0,0.0,0.0,0.0,0.0,0.0,0.0,0.0,0.0,0.0,0.0,0.0,0.0,0.0,0.0,0.0,0.0,0.0,0.0,0.0,0.0,0.0,0.0,0.0,0.0,0.0,0.0,0.0,0.0,0.0,0.0,0.0,0.0,0.0,0.0,0.0,0.0,0.0,0.0,0.0,0.0,0.0,0.0,0.0,0.0,0.0,0.0,0.0,0.0,0.0,0.0,0.0,0.0,0.0,0.0,0.0,0.0,0.0,0.0,0.0,0.0,0.0,0.0,0.0,0.0,0.0,0.0,0.0,0.0,0.0,0.0,-3.5082,-3.4854,-3.4673,-3.4673,-3.4854,-3.4887,-3.4706,-3.4854,-3.4887,-3.4706,0.0,0.0,0.0,0.0,0.0,0.0,0.0,0.0,0.0,0.0,0.0,0.0,0.0,0.0,0.0,0.0,0.0,0.0,0.0,0.0,0.0,0.0,0.0,0.0,0.0,0.0,0.0,0.0,0.0,0.0,0.0,0.0,0.0,0.0,0.0,0.0,0.0,0.0,0.0,0.0,0.0,0.0,0.0,0.0,0.0,0.0,0.0,0.0,0.0,0.0,0.0,0.0,0.0,0.0,0.0,0.0,0.0,0.0,0.0,0.0,-3.188,0.0,0.0,0.0,0.0,0.0,0.0,0.0,0.0,0.0,0.0,0.0,0.0,0.0,0.0,0.0,0.0,0.0,0.0,0.0,0.0,0.0,0.0,0.0,0.0,0.0,0.0,0.0,0.0,0.0,0.0,0.0,0.0,0.0,0.0,0.0,0.0,0.0,0.0,0.0,0.0,0.0,-3.4104,-3.3526,-3.3066,-3.3066,-3.315,-3.315,-3.3066,-3.315,-3.315,-3.3066,-3.315,0.0,0.0,0.0,0.0,0.0,0.0,0.0,0.0,0.0,0.0,0.0,0.0,0.0,0.0,0.0,0.0,0.0,0.0,0.0,0.0,0.0,0.0,0.0,0.0,0.0,0.0,0.0,0.0,0.0,0.0,0.0,0.0,0.0,0.0,0.0,0.0,0.0,0.0,0.0,0.0,0.0,0.0,0.0,0.0,0.0,0.0,0.0,0.0,0.0,0.0,0.0,0.0,0.0,0.0,0.0,0.0,0.0,0.0,0.0,0.0,-3.1782,0.0,0.0,0.0,0.0,0.0,0.0,0.0,0.0,0.0,0.0,0.0,0.0,0.0,0.0,0.0,0.0,0.0,0.0,0.0,0.0,0.0,0.0,0.0,0.0,0.0,0.0,0.0,0.0,0.0,0.0,0.0,0.0,0.0,0.0,0.0,0.0,0.0,0.0,0.0,0.0,-3.3129,-3.2656,-3.2371,-3.2371,-3.2429,-3.2429,-3.2371,-3.2429,-3.2429,-3.2371,-3.2429,0.0,0.0,0.0,0.0,0.0,0.0,0.0,0.0,0.0,0.0,0.0,0.0,0.0,0.0,0.0,0.0,0.0,0.0,0.0,0.0,0.0,0.0,0.0,0.0,0.0,0.0,0.0,0.0,0.0,0.0,0.0,0.0,0.0,0.0,0.0,0.0,0.0,0.0,0.0,0.0,0.0,0.0,0.0,0.0,0.0,0.0,0.0,0.0,0.0,0.0,0.0,0.0,0.0,-3.3124,-3.3124,-3.3124,-3.3124,-3.3124,-3.3074,-3.2089,-3.1938,-3.2328,-3.1876,0.0,0.0,0.0,0.0,0.0,0.0,0.0,0.0,0.0,0.0,0.0,0.0,0.0,0.0,0.0,0.0,0.0,0.0,0.0,0.0,0.0,0.0,0.0,0.0,-3.1057,-3.1193,-3.1924,0.0,0.0,0.0,0.0,0.0,0.0,0.0,0.0,0.0,0.0,0.0,-3.2141,-3.1842,-3.1686,-3.1686,-3.1806,-3.1842,-3.1723,-3.1806,-3.1842,-3.1723,-3.1806,-3.1924,0.0,0.0,0.0,0.0,0.0,0.0,0.0,0.0,0.0,0.0,0.0,0.0,0.0,0.0,0.0,0.0,0.0,0.0,0.0,0.0,0.0,0.0,0.0,0.0,0.0,0.0,0.0,0.0,0.0,0.0,0.0,0.0,-3.5349,-3.513,0.0,0.0,0.0,0.0,0.0,0.0,0.0,0.0,0.0,0.0,0.0,0.0,0.0,-3.3124,-3.3124,-3.3124,-3.3124,-3.3124,-3.3124,-3.3124,-3.3124,-3.3124,-3.3124,-3.3111,-3.296,0.0,-3.2998,-3.2923,0.0,0.0,0.0,0.0,0.0,0.0,0.0,0.0,0.0,0.0,0.0,0.0,0.0,0.0,0.0,0.0,0.0,0.0,0.0,0.0,0.0,0.0,-3.0011,-3.0011,-2.9998,-2.9998,0.0,-3.1439,-3.2593,-3.2593,-3.2678,0.0,0.0,0.0,0.0,0.0,0.0,0.0,-3.1106,-3.0533,-3.0113,-3.0113,-3.0113,-3.0113,-3.0113,-3.0113,-3.0113,-3.0113,-3.0113,-3.0419,-3.1068,-3.1068,0.0,0.0,0.0,0.0,0.0,0.0,0.0,0.0,0.0,0.0,0.0,0.0,0.0,0.0,0.0,0.0,0.0,0.0,0.0,0.0,0.0,0.0,0.0,0.0,0.0,0.0,0.0,0.0,0.0,-3.6016,-3.5784,-3.5878,-3.5344,-3.5019,0.0,0.0,0.0,0.0,0.0,0.0,0.0,0.0,0.0,-3.3124,-3.3124,-3.3219,-3.3533,-3.3533,-3.3696,-3.3997,-3.3997,-3.3997,-3.3997,-3.3997,-3.3997,-3.3985,-3.3671,-3.3533,-3.352,-3.3206,-3.3124,-3.3124,0.0,0.0,0.0,0.0,-3.3124,-3.3124,-3.3124,-3.2541,-3.18,-3.1486,0.0,0.0,0.0,0.0,0.0,0.0,0.0,0.0,0.0,0.0,-2.9792,-2.9792,-2.9792,-2.9792,-2.9792,-3.047,-3.1033,0.0,-3.1365,-3.1462,-3.0983,0.0,0.0,0.0,0.0,-3.0857,-3.0343,-2.9998,-2.9792,-2.9792,-2.9792,-2.9792,-2.9792,-2.9792,-2.9792,-2.9792,-2.9792,-2.9921,-3.0279,-3.0266,-3.0381,0.0,0.0,0.0,0.0,0.0,0.0,0.0,0.0,0.0,0.0,0.0,0.0,0.0,0.0,0.0,0.0,0.0,0.0,0.0,0.0,0.0,0.0,0.0,0.0,0.0,0.0,0.0,0.0,-3.5839,-3.5742,-3.5862,-3.5313,-3.4972,0.0,0.0,0.0,0.0,0.0,0.0,-3.3608,-3.332,-3.3246,-3.3521,-3.3427,-3.3608,-3.4009,-3.4066,-3.4324,-3.468,-3.468,-3.468,-3.468,-3.468,-3.468,-3.47,-3.4286,-3.411,-3.406,-3.337,-3.3124,-3.3124,-3.3124,-3.3124,-3.3124,-3.3124,-3.3124,-3.3124,-3.3124,-3.2692,-3.2139,-3.1738,-3.1148,-3.0507,-2.9955,0.0,0.0,0.0,0.0,-2.9792,-2.9792,-2.9792,-2.9792,-2.9792,-2.9792,-2.9792,-2.9792,-2.9792,-2.9792,0.0,-3.0241,-3.0444,-2.9895,0.0,0.0,0.0,0.0,-3.0406,-2.9856,-2.9792,-2.9792,-2.9792,-2.9792,-2.9792,-2.9792,-2.9792,-2.9792,-2.9792,-2.9792,-2.9792,-2.9792,-2.974,-2.9599,-2.9419,0.0,0.0,0.0,0.0,0.0,0.0,0.0,0.0,0.0,0.0,0.0,0.0,0.0,0.0,0.0,0.0,0.0,0.0,0.0,0.0,0.0,0.0,0.0,0.0,0.0,0.0,0.0,0.0,0.0,-3.4442,-3.4206,0.0,0.0,0.0,0.0,-3.3285,-3.3211,-3.342,-3.3937,-3.3502,-3.3617,-3.4578,-3.4341,-3.4231,-3.4301,-3.454,-3.4655,-3.468,-3.468,-3.468,-3.468,-3.468,-3.468,-3.468,-3.4688,-3.4675,-3.46,-3.352,-3.3124,-3.3124,-3.3124,-3.3124,-3.3124,-3.3124,-3.3124,-3.3124,-3.3124,-3.2692,-3.2202,-3.2177,-3.1461,-3.0507,-2.9955,-2.9792,0.0,0.0,-2.9792,-2.9792,-2.9792,-2.9792,-2.9792,-2.9792,-2.9792,-2.9792,-2.9792,-2.9792,-2.9792,0.0,-2.983,-2.9818,-2.9792,0.0,-2.9908,-2.9792,-2.983,-2.9818,-2.9792,-2.9792,-2.9792,-2.9792,-2.9792,-2.9792,-2.9792,-2.9792,-2.9792,-2.9792,-2.9792,-2.9792,-2.9792,-2.956,-2.9419,-2.9419,-2.9197,0.0,0.0,0.0,0.0,0.0,0.0,0.0,0.0,0.0,0.0,0.0,0.0,0.0,0.0,0.0,0.0,0.0,0.0,0.0,0.0,0.0,0.0,0.0,0.0,0.0,0.0,0.0,0.0,-3.4089,-3.3882,0.0,-3.4102,-3.4213,-3.4196,-3.3966,-3.3954,-3.4086,-3.4222,-3.3919,-3.3887,-3.4222,-3.4142,-3.425,-3.4607,-3.4712,-3.4932,-3.5278,-3.5466,-3.5525,-3.5559,-3.5734,-3.5768,-3.5755,-3.5403,-3.5207,-3.5144,-3.4449,-3.3922,-3.3571,-3.3219,-3.3124,-3.3124,-3.3124,-3.3124,-3.3124,-3.3124,-3.2943,-3.2704,-3.2184,-3.1601,-3.1032,-3.0735,-3.0713,-3.0821,-3.0821,-3.0821,-3.0821,-3.0821,-3.057,-3.0319,-3.0319,-3.0043,-2.974,-2.956,-2.9702,-2.9753,-2.956,-2.9702,-2.9792,-2.9792,-2.9792,-2.9792,-2.9792,-2.9792,-2.9792,-2.9792,-2.9792,-2.9792,-2.9792,-2.9792,-2.9792,-2.9792,-2.9792,-2.9792,-2.9792,-2.965,-2.956,-2.956,-2.9326,-2.9157,-2.9028,-2.8961,-2.8843,0.0,0.0,0.0,0.0,0.0,0.0,0.0,0.0,0.0,0.0,0.0,0.0,0.0,0.0,0.0,0.0,0.0,0.0,0.0,0.0,0.0,0.0,0.0,0.0,0.0,0.0,-3.3839,-3.4185,-3.3932,-3.3851,-3.4096,-3.4214,-3.4206,-3.4037,-3.4025,-3.4182,-3.4533,-3.419,-3.4161,-3.4527,-3.445,-3.4583,-3.4938,-3.5032,-3.5264,-3.562,-3.5764,-3.5872,-3.5872,-3.6038,-3.6133,-3.6108,-3.57,-3.5597,-3.5653,-3.5103,-3.4698,-3.4387,-3.3546,-3.3201,-3.3081,-3.2995,-3.3025,-3.3081,-3.2995,-3.2909,-3.2722,-3.1992,-3.16,-3.139,-3.1051,-3.1071,-3.1141,-3.1141,-3.1141,-3.1141,-3.1141,-3.0891,-3.0642,-3.0642,-3.0356,-3.0055,-2.9871,-2.9963,-3.0055,-2.9858,-2.9822,-2.9792,-2.9702,-2.9663,-2.9713,-2.9952,-2.9749,-2.9699,-3.0043,-2.9788,-2.9624,-2.9792,-2.9663,-2.9585,-2.965,-2.9864,-2.9863,-2.9598,-2.9656,-2.9578,-2.9314,-2.9118,-2.8922,-2.8791,-2.8724,-2.8315,-2.7592,0.0,0.0,0.0,0.0,0.0,0.0,0.0,0.0,0.0,0.0,0.0,0.0,0.0,0.0,0.0,0.0,0.0,0.0,0.0,0.0,0.0,0.0,0.0,-3.4326,-3.4172,-3.4148,-3.4607,-3.4255,-3.4089,-3.4373,-3.4161,-3.3838,-3.3404,-3.3356,-3.3801,-3.4751,-3.4306,-3.4486,-3.5557,-3.5344,-3.5175,-3.5175,-3.5476,-3.5572,-3.5572,-3.5572,-3.5572,-3.5572,-3.562,-3.562,-3.562,-3.562,-3.5764,-3.593,-3.5444,-3.5301,-3.5349,-3.4023,-3.3377,-3.3131,-3.286,-3.289,-3.3063,-3.2791,-3.2562,-3.2302,-3.1706,-3.1534,-3.1436,-3.0908,-3.0761,-3.0748,-3.0748,-3.0748,-3.0748,-3.0748,-3.0736,-3.0724,-3.0724,-3.0712,-3.0699,-3.0699,-3.0699,-3.0699,-3.0699,-3.0238,-2.9752,-2.9481,-2.9429,-2.9655,-3.0214,-2.9643,0.0,-3.049,-2.975,-2.931,-2.9764,-2.9427,-2.9207,-2.9429,-2.9938,-2.9945,-2.9126,-2.9779,-2.9828,-2.9062,-2.8855,-2.8752,-2.8752,-2.8538,-2.7539,-2.5777,0.0,0.0,0.0,0.0,0.0,0.0,0.0,0.0,0.0,0.0,0.0,0.0,0.0,0.0,0.0,0.0,0.0,0.0,0.0,0.0,0.0,0.0,-3.4475,-3.4137,-3.3729,-3.3535,-3.3675,-3.386,-3.4042,-3.4089,-3.4739,-3.5124,-3.4992,-3.498,-3.51,-3.5388,-3.4847,-3.4691,-3.504,-3.4956,-3.4932,-3.4932,-3.4969,-3.503,-3.503,-3.5223,-3.532,-3.532,-3.5524,-3.562,-3.562,-3.562,-3.562,-3.5704,-3.5556,-3.5308,-3.4922,-3.4309,-3.4028,-3.3948,-3.3724,-3.3444,-3.3155,-3.3099,-3.2764,-3.232,-3.1986,-3.1981,-3.2086,-3.1766,-3.1761,-3.1945,-3.1945,-3.1945,-3.1945,-3.1945,-3.1595,-3.1289,-3.1289,-3.0982,-3.067,-3.0516,-3.0587,-3.067,-3.0516,-3.0478,-3.0421,-3.038,-3.0339,-3.0388,-3.0589,-3.0397,0.0,-3.0643,-3.0438,-3.0298,-3.0433,-3.0351,-3.0298,-3.0339,-2.982,-2.9404,-2.9178,-2.8286,-2.7661,-2.7429,-2.7562,-2.762,-2.762,-2.6917,-2.6287,0.0,0.0,0.0,0.0,0.0,0.0,0.0,0.0,0.0,0.0,0.0,0.0,0.0,0.0,0.0,0.0,0.0,0.0,0.0,0.0,0.0,0.0,-3.4775,-3.4667,-3.4366,-3.4114,-3.4018,-3.4234,-3.4523,-3.4655,-3.4655,-3.5256,-3.5521,-3.5304,-3.528,-3.528,-3.528,-3.4943,-3.4775,-3.4775,-3.4775,-3.4775,-3.4775,-3.4775,-3.4775,-3.4775,-3.4981,-3.503,-3.503,-3.5175,-3.5271,-3.5271,-3.5271,-3.532,-3.5428,-3.5428,-3.5293,0.0,0.0,0.0,0.0,0.0,-3.371,-3.335,-3.335,-3.3109,-3.2763,-3.2584,-3.2516,-3.2422,-3.2245,-3.2176,-3.2125,-3.2125,-3.2125,-3.2125,-3.2125,-3.1838,-3.1582,-3.1582,-3.1351,-3.1089,-3.0973,-3.1047,-3.1089,-3.0973,-3.1047,0.0,-3.1132,-3.0796,-3.0535,-3.0284,-3.0013,-2.9826,-2.9815,-2.9425,-2.9253,-2.9411,-2.9296,-2.9211,-2.9308,-2.9,0.0,0.0,0.0,-2.726,-2.6954,-2.6886,0.0,0.0,0.0,-2.5453,-2.4691,0.0,0.0,0.0,-2.6423,-2.7389,0.0,0.0,0.0,0.0,0.0,0.0,0.0,0.0,0.0,0.0,0.0,0.0,0.0,0.0,0.0,0.0,-3.4775,-3.4775,-3.4775,-3.4775,-3.5004,-3.5473,-3.5533,-3.5533,-3.5533,-3.5533,-3.5328,-3.4859,-3.4775,-3.4775,-3.4775,0.0,0.0,0.0,0.0,-3.4775,-3.4775,-3.4775,-3.4775,-3.4775,-3.4775,-3.4775,-3.4775,-3.4775,-3.4775,-3.4775,-3.4775,-3.4932,-3.5175,-3.5175,-3.5271,-3.5415,-3.4748,-3.432,-3.409,-3.409,-3.3915,-3.3623,-3.3623,0.0,0.0,-3.3284,-3.2971,-3.2587,-3.2587,-3.225,-3.1874,-3.1825,-3.1801,-3.1789,-3.1729,-3.1705,-3.1705,-3.1705,-3.1617,-3.1516,-3.1516,-3.1427,-3.1383,-3.1383,-3.1383,-3.1383,-3.1383,-3.0922,-3.0368,-2.9852,-2.919,-2.8726,-2.8612,-2.7843,-2.7403,-2.7767,0.0,0.0,-2.7546,-2.793,-2.785,-2.7169,-2.7617,-2.7651,-2.6962,-2.6508,-2.5934,-2.5189,-2.5423,-2.4764,-2.3169,-2.4107,-2.4151,-2.3378,-2.5779,-2.7371,0.0,0.0,0.0,0.0,0.0,0.0,0.0,0.0,0.0,0.0,0.0,0.0,0.0,0.0,0.0,-3.4775,-3.4775,-3.4775,-3.4775,-3.4775,-3.4823,-3.4919,-3.4931,-3.4931,-3.4931,-3.4931,-3.4895,-3.4787,-3.4775,-3.4775,-3.4775,-3.4775,-3.4775,-3.4775,-3.4775,-3.4775,-3.4775,-3.4775,-3.4775,-3.4775,0.0,0.0,-3.4775,-3.4775,-3.4775,-3.4775,-3.4775,-3.4835,-3.4884,-3.4884,-3.4932,-3.4969,-3.5017,-3.486,-3.4679,-3.4679,-3.4354,-3.3933,-3.3933,-3.3668,-3.3284,-3.3284,-3.3224,-3.314,-3.314,-3.3056,0.0,-3.2454,-3.2346,-3.2238,-3.1825,-3.1705,-3.1705,-3.1705,-3.1104,-3.0498,-3.0498,-2.9841,-2.928,-2.928,-2.928,-2.928,-2.928,-3.047,-3.1153,-3.0234,-2.9985,-2.9591,-2.8804,-2.8497,-2.8396,-2.8488,-2.8442,-2.8396,-2.8453,-2.7789,-2.7343,-2.7212,-2.6252,-2.5823,-2.6034,-2.5229,-2.5098,-2.5664,-2.4709,-2.4009,-2.3662,-2.4564,-2.4905,-2.472,-2.4911,-2.5636,0.0,0.0,0.0,0.0,0.0,0.0,0.0,0.0,0.0,0.0,0.0,-3.4775,0.0,0.0,-3.4775,-3.4775,-3.4775,-3.4775,-3.4775,-3.4775,-3.4775,-3.4775,-3.4775,-3.4775,-3.4775,-3.4775,-3.4775,-3.4775,-3.4775,-3.4775,-3.4775,-3.4775,-3.4775,-3.4775,-3.4775,-3.4775,-3.4775,-3.4775,-3.4775,-3.4775,-3.4775,-3.4775,-3.4775,-3.4775,-3.4775,-3.4775,-3.4775,-3.4775,-3.4775,-3.4775,-3.4775,-3.4823,-3.4932,-3.4932,-3.4775,-3.4775,-3.4619,-3.439,-3.439,-3.427,-3.4054,-3.4054,-3.3873,-3.3563,-3.3031,-3.2653,-3.2289,-3.1457,-3.1247,-3.1189,-3.0915,-3.0846,-3.0846,-3.0846,-3.0473,-3.0066,-2.9809,-2.9333,-2.8928,-2.8724,-2.868,-2.868,-2.868,-2.951,-2.9841,-2.8866,-2.868,-2.8366,-2.7352,-2.721,-2.721,-2.721,-2.721,-2.721,-2.721,-2.6744,-2.6466,-2.6466,-2.5796,-2.5494,-2.5728,-2.5088,-2.497,-2.5424,-2.4546,-2.401,-2.3919,-2.4354,-2.448,-2.44,-2.4192,-2.4941,0.0,0.0,0.0,0.0,0.0,0.0,0.0,0.0,-3.1575,-3.1575,-3.3312,-3.4775,-3.4775,-3.4775,-3.4775,-3.4775,-3.4775,-3.4775,-3.4775,-3.4775,-3.4775,-3.4775,-3.4775,-3.4775,-3.4775,-3.4775,-3.4775,-3.4775,-3.4775,-3.4775,-3.4775,-3.4775,-3.4775,-3.4775,-3.4775,-3.4775,-3.4775,-3.4775,-3.4775,-3.4775,-3.4775,-3.4775,-3.4775,-3.4775,-3.4775,-3.4775,-3.4775,-3.4775,-3.4775,-3.4775,-3.4775,-3.4775,-3.4775,-3.4775,-3.4775,-3.4775,-3.4775,-3.4775,-3.4775,-3.4677,-3.4519,-3.4726,-3.4245,-3.3394,-3.275,-3.2122,-3.1382,-3.0406,-3.0139,-3.0117,-3.003,-3.0008,-3.0008,-3.0008,-2.9862,-2.9596,-2.9219,-2.8989,-2.8775,-2.8427,-2.8325,-2.8261,-2.8261,-2.8186,-2.7887,-2.7284,-2.7189,-2.6829,-2.583,-2.5693,-2.5693,-2.5693,-2.5693,-2.5693,-2.5693,-2.5693,-2.5693,-2.5693,-2.5693,-2.5693,-2.5693,-2.5391,-2.5195,-2.5195,-2.4719,-2.4365,-2.4122,-2.4076,-2.3945,-2.3843,-2.3824,-2.4795,-2.8291,-2.8291,-2.8291,-2.8291,-2.8291,-2.8291,0.0,0.0,-3.1575,-3.1575,-3.3312,-3.4775,-3.4775,-3.4775,-3.4775,-3.4775,-3.4775,-3.4775,-3.4775,-3.4775,-3.4775,-3.4775,-3.4775,-3.4775,-3.4775,-3.4775,-3.4775,-3.4775,-3.4775,-3.4775,-3.4775,-3.4775,-3.4775,-3.4775,-3.4775,-3.4775,-3.4775,-3.4775,-3.4775,-3.4775,-3.4775,-3.4775,-3.4775,-3.4775,-3.4775,-3.4775,-3.4775,-3.4775,-3.4775,-3.4775,-3.4775,-3.4775,-3.4775,-3.4775,-3.4775,-3.4775,-3.4775,-3.4775,-3.4775,-3.4164,-3.356,-3.447,-3.3476,-3.2006,-3.286,-3.2414,-3.1486,-3.0898,-3.0738,-3.0591,-3.0106,-3.0008,-3.0008,-3.0008,-2.9321,-2.8666,-2.8614,-2.7874,-2.7219,-2.722,-2.6903,-2.6646,-2.6646,-2.6319,-2.6284,-2.7094,-2.7189,-2.6829,-2.583,-2.5693,-2.5693,-2.5693,-2.5693,-2.5693,-2.5693,-2.5693,-2.5693,-2.5693,-2.5693,-2.5693,-2.5693,-2.5635,-2.5615,-2.5615,-2.5005,-2.464,-2.464,-2.4402,-2.425,-2.4221,-2.4386,-2.4813,-2.8291,-2.8291,0.0,0.0,-2.8291,-2.8441,-2.9112,-3.0442,-3.1779,-3.2387,-3.3758,-3.4775,-3.4775,-3.4775,-3.4775,0.0,-3.4775,-3.4775,-3.4775,-3.4775,-3.4775,-3.4775,-3.4775,-3.4775,-3.4775,-3.4775,-3.4775,-3.4775,-3.4775,-3.4775,-3.4775,-3.4775,-3.4775,-3.4775,-3.4775,-3.4775,-3.4775,-3.4775,-3.4775,-3.4775,-3.4775,-3.4775,-3.4775,-3.4775,-3.4775,-3.4775,-3.4775,-3.4775,-3.4775,-3.4775,-3.4775,-3.4775,-3.4775,-3.4775,-3.4775,-3.4775,-3.4775,-3.4775,-3.4775,-3.4115,-3.325,-3.3709,-3.2851,-3.1575,-3.1359,-3.0949,-3.0452,-2.9601,-2.9352,-2.9311,-2.9065,-2.9013,-2.9013,-2.9013,-2.8662,-2.8343,-2.8093,-2.7693,-2.7314,-2.706,-2.6875,-2.6758,-2.6758,-2.6602,-2.6536,-2.6703,-2.6492,-2.6187,-2.5732,-2.5693,-2.5693,-2.5693,-2.5693,-2.5693,-2.5693,-2.5693,-2.5693,-2.5693,-2.5693,-2.5693,-2.5693,-2.5693,-2.5635,-2.5489,-2.5169,-2.488,-2.4579,-2.4482,-2.4335,-2.4247,-2.4316,-2.4436,-2.8291,0.0,0.0,-2.8291,-2.8291,-2.8601,-2.967,-3.0805,-3.188,-3.3001,-3.4066,-3.4775,-3.4775,-3.4775,-3.4775,-3.4775,-3.4775,-3.4775,-3.4775,-3.4775,-3.4775,-3.4775,-3.4775,-3.4775,-3.4775,-3.4775,-3.4775,-3.4775,-3.4775,-3.4775,-3.4775,-3.4775,-3.4775,-3.4775,-3.4775,-3.4775,-3.4775,-3.4775,-3.4775,-3.4775,-3.4775,-3.4775,-3.4775,-3.4775,-3.4775,-3.4775,-3.4775,-3.4775,-3.4775,-3.4775,-3.4775,-3.4775,-3.4775,-3.4775,-3.4775,-3.4775,-3.4775,-3.4775,-3.4775,-3.3918,-3.2801,-3.3101,-3.2083,-3.0598,-3.0078,-2.966,-2.9313,-2.8495,-2.8291,-2.8291,-2.8291,-2.8291,-2.8291,-2.8291,-2.8291,-2.8203,-2.791,-2.7894,-2.7744,-2.7432,-2.7275,-2.7197,-2.7197,-2.709,-2.6914,-2.6602,-2.6289,-2.5957,-2.5713,-2.5693,-2.5693,-2.5693,-2.5693,-2.5693,-2.5693,-2.5693,-2.5693,-2.5693,-2.5693,-2.5693,-2.5693,-2.5635,-2.5489,-2.5284,-2.5137,-2.4883,-2.448,-2.444,-2.4341,-2.4202,-2.4202,-2.4202,-2.8291,-2.8291,-2.8291,-2.8291,-2.8291,-2.8601,-2.967,-3.0805,-3.188,-3.3001,-3.4066,-3.4775,-3.4775,-3.4775,-3.4775,-3.4775,-3.4775,-3.4775,-3.4775,-3.4775,-3.4775,-3.4775,-3.4775,-3.4775,0.0,-3.4775,-3.4775,-3.4775,-3.4775,-3.4775,-3.4775,-3.4775,-3.4775,-3.4775,-3.4775,-3.4775,-3.4775,-3.4775,-3.4775,-3.4775,-3.4775,-3.4775,-3.4775,-3.4775,-3.4775,-3.4775,-3.4775,-3.4775,-3.4775,-3.4775,-3.4775,-3.4775,-3.4775,-3.4775,-3.4775,-3.4775,-3.4775,-3.4775,-3.4775,-3.3411,-3.183,-3.2839,-3.1011,-2.8601,-2.9618,-2.9154,-2.8344,-2.8291,-2.8291,-2.8291,-2.8291,-2.8291,-2.8291,-2.8291,-2.8291,-2.8291,-2.8271,-2.8271,-2.8271,-2.8252,-2.793,-2.7699,-2.7699,-2.7295,-2.7012,-2.6992,-2.6982,-2.668,-2.5791,-2.5693,-2.5693,-2.5693,-2.5693,-2.5693,-2.5693,-2.5693,-2.5693,-2.5693,-2.5693,-2.5693,-2.5693,-2.543,-2.5294,-2.5284,-2.4784,-2.4529,-2.448,-2.4291,-2.4202,-2.4202,-2.4202,-2.4202,-2.8067,-2.8184,-2.8291,-2.8291,-2.8291,-2.8751,-3.0598,-3.1319,-3.2083,-3.3906,-3.4568,-3.4775,-3.4775,-3.4775,-3.4775,-3.4775,-3.4775,-3.4775,-3.4775,-3.4775,-3.4775,-3.4775,-3.4775,0.0,0.0,0.0,0.0,-3.4775,-3.4775,-3.498,-3.5328,-3.5352,-3.5509,-3.5857,-3.5533,-3.5352,-3.5352,-3.5004,-3.4775,-3.4775,-3.4775,-3.4775,-3.4775,-3.4775,-3.4775,-3.4775,-3.4775,-3.4775,-3.4775,-3.4775,-3.4775,-3.4775,-3.4775,-3.4775,-3.4775,-3.4775,-3.4775,-3.4775,-3.4775,-3.3869,-3.2588,-3.2235,-3.0897,-2.9313,-2.8953,-2.8601,-2.8291,-2.8291,-2.8291,-2.8291,-2.8291,-2.8291,-2.8291,-2.8291,-2.8291,-2.8291,-2.8291,-2.8291,-2.8291,-2.8291,-2.8174,-2.8086,-2.8086,-2.7959,-2.7764,-2.749,-2.7197,-2.6914,-2.6621,-2.6582,-2.6582,-2.6582,-2.6582,-2.6475,-2.6191,-2.6172,-2.6045,-2.5703,-2.5693,-2.5635,-2.544,-2.5342,-2.5137,-2.4784,-2.4578,-2.443,-2.4291,-2.4251,-2.4202,-2.4202,-2.4202,-2.4202,-2.8077,-2.8184,-2.8291,-2.8291,-2.8601,-2.9365,-3.1165,-3.188,-3.2689,-3.4421,-3.4775,-3.4775,-3.4775,-3.4775,-3.4775,-3.4775,-3.4775,-3.4775,-3.4775,-3.4775,-3.4775,-3.4775,-3.4775,-3.4775,0.0,0.0,0.0,-3.4775,-3.5004,-3.5256,-3.5605,-3.5797,-3.605,-3.6398,-3.6074,-3.5809,-3.5617,-3.528,-3.4967,-3.4775,-3.4775,-3.4775,-3.4775,-3.4775,-3.4775,-3.4775,-3.4775,-3.4775,-3.4775,-3.4775,-3.4775,-3.4775,-3.4775,-3.4775,-3.4775,-3.4775,-3.458,-3.4274,-3.4677,-3.3869,-3.2488,-3.183,-3.0546,-2.9207,-2.8495,-2.8291,-2.8291,-2.8291,-2.8291,-2.8291,-2.8291,-2.8291,-2.8291,-2.8291,-2.8291,-2.8291,-2.8291,-2.8291,-2.8291,-2.8291,-2.8291,-2.8291,-2.8291,-2.8291,-2.8203,-2.793,-2.7656,-2.7363,-2.7051,-2.7012,-2.7012,-2.7012,-2.7012,-2.6904,-2.6631,-2.6611,-2.6426,-2.5996,-2.5869,-2.5644,-2.5294,-2.5137,-2.4833,-2.4538,-2.444,-2.4341,-2.4202,-2.4202,-2.4202,-2.4202,-2.4202,-2.4202,-2.8291,-2.8291,-2.8291,-2.8291,-2.9059,-3.0078,-3.1268,-3.2336,-3.3411,-3.447,-3.4775,-3.4775,0.0,0.0,-3.4775,-3.4775,-3.4775,-3.4775,-3.4775,-3.4775,-3.4775,0.0,0.0,0.0,0.0,0.0,0.0,-3.4823,0.0,-3.5641,-3.5701,-3.617,-3.6459,-3.6483,-3.6459,-3.6194,-3.5665,-3.5605,-3.5328,-3.4775,-3.4775,-3.4775,-3.4775,-3.4775,-3.4775,-3.4775,-3.4775,-3.4775,-3.4775,-3.4775,-3.4775,-3.4726,-3.4775,-3.4775,-3.4726,-3.4775,-3.4115,-3.335,-3.4372,-3.335,-3.1575,-3.1524,-3.0089,-2.8398,-2.8291,-2.8291,-2.8291,-2.8291,-2.8291,-2.8291,-2.8291,-2.8291,-2.8291,-2.8291,-2.8291,-2.8291,-2.8291,-2.8291,-2.8291,-2.8291,-2.8291,-2.8291,-2.8291,-2.8291,-2.8291,-2.8291,-2.8291,-2.7998,-2.7187,-2.708,-2.708,-2.708,-2.708,-2.707,-2.7051,-2.7051,-2.6865,-2.6445,-2.6137,-2.5794,-2.5283,-2.4794,-2.448,-2.448,-2.4301,-2.4202,-2.4202,-2.4202,-2.4202,-2.4202,-2.4202,-2.4202,-2.8067,-2.8014,-2.8077,-2.8237,-2.8388,-2.8731,-3.0026,-3.1206,-3.2286,-3.34,-3.4213,-3.4775,0.0,0.0,0.0,-3.4775,-3.4775,0.0,-3.4775,-3.4775,0.0,-3.4775,0.0,-3.4775,-3.4775,-3.5184,0.0,0.0,-3.5533,-3.5966,-3.6747,-3.6916,-3.7168,-3.7565,-3.7192,-3.6735,-3.6206,-3.5425,-3.4968,-3.4775,-3.4775,-3.4775,-3.4775,-3.4775,-3.4775,-3.4775,-3.4775,-3.4775,-3.4775,-3.4775,-3.4323,-3.3709,-3.447,-3.4323,-3.3709,-3.4519,-3.4115,-3.325,-3.3499,-3.275,-3.1472,-3.0598,-2.9974,-2.9365,-2.8548,-2.8291,-2.8291,-2.8291,-2.8291,-2.8291,-2.8291,-2.8291,-2.8291,-2.8291,-2.8291,-2.8291,-2.8291,-2.8291,-2.8291,-2.8291,-2.8291,-2.8291,-2.8291,-2.8291,-2.8291,-2.8291,-2.8291,-2.8213,-2.7998,-2.7969,-2.7969,-2.7969,-2.7969,-2.7842,-2.7529,-2.75,-2.7263,-2.657,-2.6191,-2.5719,-2.5186,-2.4746,-2.444,-2.4301,-2.4251,-2.4202,-2.4202,-2.4202,-2.4202,-2.4202,-2.4202,-2.4202,-2.813,-2.8067,-2.8121,-2.8237,-2.89,-2.9608,-2.9817,-3.1154,-3.2488,-3.3101,-3.3659,0.0,-3.4726,-3.4775,0.0,0.0,0.0,0.0,-3.4775,-3.4775,-3.4775,0.0,-3.4775,0.0,-3.5148,-3.5437,-3.5809,0.0,-3.6314,-3.6567,-3.7168,-3.7409,-3.7673,-3.7974,-3.7697,-3.718,-3.6411,-3.5352,-3.4775,-3.4775,-3.4775,-3.4775,-3.4775,-3.4775,-3.4775,-3.4775,0.0,-3.4775,-3.4775,-3.4775,-3.4164,-3.325,-3.3857,-3.3449,-3.2588,-3.3151,-3.2689,-3.1768,-3.1768,-3.1062,-3.0141,-2.9974,-2.9565,-2.9112,-2.8495,-2.8291,-2.8291,-2.8291,-2.8291,-2.8291,-2.8291,-2.8291,-2.8291,-2.8291,-2.8291,-2.8291,-2.8291,-2.8291,-2.8291,-2.8291,-2.8291,-2.8291,-2.8291,-2.8291,-2.8291,-2.8291,-2.8291,-2.8291,-2.8291,-2.8291,-2.8291,-2.8291,-2.8291,-2.814,-2.78,-2.7781,-2.7491,-2.6745,-2.6351,-2.5843,-2.5144,-2.4779,-2.4485,-2.4211,-2.4202,-2.4202,-2.4202,-2.4202,-2.4202,-2.4202,-2.4202,-2.4202,-2.8291,-2.8291,-2.8237,-2.8291,-2.9733,-3.0856,-2.9922,-3.141,-3.2939,-3.2789,0.0,-3.3659,-3.4421,-3.4677,-3.4775,-3.4775,0.0,-3.4775,-3.4775,-3.4775,-3.4775,-3.4775,-3.4775,-3.504,-3.5569,-3.5677,-3.6134,-3.712,-3.7264,-3.73,-3.73,-3.7733,-3.7986,-3.7986,-3.7914,-3.7409,-3.6411,-3.5425,-3.4847,-3.4775,-3.4775,-3.4775,-3.4775,-3.4775,-3.4775,-3.4775,-3.4775,-3.4775,-3.4775,-3.4775,-3.4066,-3.3001,-3.3151,-3.2437,-3.137,-3.1524,-3.0856,-2.9922,-2.9922,-2.9207,-2.8441,-2.9418,-2.9059,-2.8291,-2.8291,-2.8291,-2.8291,-2.8291,-2.8291,-2.8291,-2.8291,-2.8291,-2.8291,-2.8291,-2.8291,-2.8291,-2.8291,-2.8291,-2.8291,-2.8291,-2.8291,-2.8291,-2.8291,-2.8291,-2.8291,-2.8291,-2.8291,-2.8291,-2.8291,-2.8291,-2.8291,-2.8291,-2.8291,-2.8184,-2.7906,-2.7906,-2.7592,-2.6867,-2.658,-2.6057,-2.5229,-2.4974,-2.4661,-2.4293,-2.4229,-2.4202,-2.4202,-2.4202,-2.4202,-2.4202,-2.4202,-2.4202,-2.8291,-2.813,-2.8014,-2.8237,-2.8432,-2.8528,-2.8548,-3.0297,0.0,0.0,-3.2627,-3.4323,-3.361,-3.4213,-3.4775,-3.4775,-3.4775,-3.4775,-3.4775,-3.4775,-3.4775,0.0,-3.4775,-3.504,-3.5569,-3.6014,0.0,0.0,-3.7601,-3.7841,-3.7841,-3.7938,-3.7986,-3.7986,-3.7553,-3.7036,-3.6411,-3.5797,-3.5256,-3.4775,-3.4775,-3.4775,-3.4775,-3.4775,-3.4775,-3.4775,-3.4775,0.0,-3.4775,-3.4775,-3.3659,-3.1982,-3.2851,-3.1971,-3.0287,-3.1268,-3.0856,-2.9922,-2.9922,-2.9207,-2.8344,-2.8495,-2.8451,-2.8291,-2.8291,-2.8291,-2.8291,-2.8291,-2.8291,-2.8291,-2.8291,-2.8291,-2.8291,-2.8291,-2.8291,-2.8291,-2.8291,-2.8291,-2.8291,-2.8291,-2.8291,-2.8291,-2.8291,-2.8291,-2.8291,-2.8291,-2.8291,-2.8291,-2.8291,-2.8291,-2.8291,-2.8291,-2.8291,-2.8184,-2.7906,-2.7906,-2.7609,-2.6995,-2.6623,-2.6212,-2.5853,-2.5176,-2.4748,-2.4725,-2.4385,-2.4202,-2.4202,-2.4202,-2.4202,-2.4202,-2.4202,-2.4202,-2.8232,-2.8184,-2.813,-2.8291,-2.8644,-2.8847,-2.8398,0.0,0.0,0.0,-3.1564,-3.2627,-3.3808,-3.4017,0.0,-3.4726,-3.4775,-3.4775,-3.4775,-3.4775,0.0,-3.4775,0.0,0.0,0.0,-3.6098,-3.6627,-3.7156,-3.7685,-3.7986,-3.7986,-3.7986,-3.7986,-3.7986,-3.7469,-3.694,-3.6411,-3.5881,-3.5352,-3.4775,-3.4775,-3.4775,-3.4775,-3.4775,-3.4775,-3.4775,-3.4775,-3.4775,-3.4775,-3.4775,-3.356,-3.1626,-3.2185,-3.1011,-2.9112,-2.9681,-2.9523,-2.9059,-2.9059,-2.8751,-2.8291,-2.8291,-2.8291,-2.8291,-2.8291,-2.8291,-2.8291,-2.8291,-2.8291,-2.8291,-2.8291,-2.8291,-2.8291,-2.8291,-2.8291,-2.8291,-2.8291,-2.8291,-2.8291,-2.8291,-2.8291,-2.8291,-2.8291,-2.8291,-2.8291,-2.8291,-2.8291,-2.8291,-2.8291,-2.8184,-2.8067,-2.8067,-2.8067,-2.7906,-2.7476,-2.7422,-2.726,-2.6845,-2.6606,-2.6349,-2.6021,-2.5644,-2.5249,-2.4794,-2.4633,-2.4422,-2.4202,-2.4202,-2.4202,-2.4202,-2.4202,-2.4202,-2.8066,-2.8223,-2.8291,-2.8291,-2.8953,-2.9365,-2.8495,-2.9112,0.0,-3.0753,-3.0753,-3.1308,-3.3709,-3.3808,-3.3808,0.0,-3.4775,-3.4775,-3.4775,-3.4775,-3.4775,0.0,0.0,0.0,-3.5569,-3.6098,0.0,-3.7156,-3.7685,-3.7986,-3.7986,-3.7986,-3.7986,-3.7986,-3.7469,-3.694,-3.6411,-3.5881,-3.5352,-3.4775,-3.4775,-3.4775,-3.4775,-3.4775,-3.4775,-3.4775,-3.4775,-3.4775,-3.4775,-3.4775,-3.356,-3.1575,-3.1575,-3.0245,-2.8291,-2.8291,-2.8291,-2.8291,-2.8291,-2.8291,-2.8291,-2.8291,-2.8291,-2.8291,-2.8291,-2.8291,-2.8291,-2.8291,-2.8291,-2.8291,-2.8291,-2.8291,-2.8291,-2.8291,-2.8291,-2.8291,-2.8291,-2.8291,-2.8291,-2.8291,-2.8291,-2.8291,-2.8291,-2.8291,-2.8291,-2.8291,-2.8291,-2.8291,-2.8237,-2.8014,-2.7853,-2.7745,-2.7745,-2.7584,-2.7043,-2.6989,-2.689,-2.6646,-2.6591,-2.6444,-2.6159,-2.6058,-2.5681,-2.4922,-2.4821,-2.4624,-2.4202,-2.4202,-2.4202,-2.4202,-2.4202,-2.4202,-2.7767,-2.7998,-2.8291,-2.8291,-2.8398,-2.8398,-2.8344,0.0,-2.967,-2.8804,-3.0897,-3.2689,-3.2033,-3.3411,-3.4677,0.0,0.0,-3.4775,-3.4775,-3.4775,0.0,0.0,0.0,0.0,0.0,-3.6098,-3.6627,-3.7156,-3.7685,-3.7986,-3.7986,-3.7986,-3.7986,-3.7986,-3.7469,-3.694,-3.6411,-3.5881,-3.5352,-3.4775,-3.4775,-3.4775,-3.4775,-3.4775,-3.4775,-3.4775,-3.4775,-3.4775,0.0,-3.4775,-3.356,-3.1575,-3.1575,-3.0245,-2.8291,-2.8291,-2.8291,-2.8291,-2.8291,-2.8291,-2.8291,-2.8291,-2.8291,-2.8291,-2.8291,-2.8291,-2.8291,-2.8291,-2.8291,-2.8291,-2.8291,-2.8291,-2.8291,-2.8291,-2.8291,-2.8291,-2.8291,-2.8291,-2.8291,-2.8291,-2.8291,-2.8291,-2.8291,-2.8291,-2.8291,-2.8291,-2.8291,-2.8237,-2.796,-2.7906,-2.7691,-2.7152,-2.7323,-2.7314,-2.7043,-2.6989,-2.689,-2.6646,-2.6591,-2.6573,-2.6536,-2.6214,-2.581,-2.5378,-2.4968,-2.4624,-2.4202,-2.4202,-2.4202,-2.4202,-2.4202,-2.4202,-2.7581,-2.7836,-2.7978,-2.8232,-2.8291,-2.8291,-2.8291,0.0,-2.9006,-2.9207,-2.9775,-3.0701,-3.2286,-3.2739,-3.33,0.0,0.0,0.0,-3.4775,0.0,0.0,0.0,-3.4775,0.0,0.0,0.0,-3.6278,-3.7132,-3.7685,-3.7986,-3.7986,-3.7986,-3.7986,-3.7986,-3.7469,-3.694,-3.6411,-3.5881,-3.5352,-3.4775,-3.4775,-3.4775,-3.4775,-3.4775,-3.4775,-3.4775,-3.4775,-3.4775,0.0,-3.4115,-3.2951,-3.1524,-3.0856,-2.9618,-2.8291,-2.8291,-2.8291,-2.8291,-2.8291,-2.8291,-2.8291,-2.8291,-2.8291,-2.8291,-2.8291,-2.8291,-2.8291,-2.8291,-2.8291,-2.8291,-2.8291,-2.8291,-2.8291,-2.8291,-2.8291,-2.8291,-2.8291,-2.8291,-2.8291,-2.8291,-2.8291,-2.8291,-2.8291,-2.8291,-2.8237,-2.8067,-2.8067,-2.796,-2.7638,-2.7476,-2.726,-2.7043,-2.7098,-2.7053,-2.6791,-2.6736,-2.6682,-2.6591,-2.6591,-2.6591,-2.6591,-2.6426,-2.6142,-2.5791,-2.5387,-2.4941,-2.4578,-2.433,-2.4202,-2.4202,-2.4202,-2.4202,-2.7129,-2.7523,-2.7787,-2.8027,-2.8203,-2.8291,0.0,0.0,-2.8495,-2.926,-2.9059,-2.9471,-3.1819,-3.2134,-3.2588,-3.4066,-3.4568,-3.4775,-3.4775,-3.4775,0.0,0.0,0.0,-3.4775,0.0,-3.5304,-3.599,-3.6892,-3.73,-3.7517,-3.7517,-3.7517,-3.7589,-3.7745,-3.7228,-3.6711,-3.6182,-3.5653,-3.5147,-3.4775,-3.4775,-3.4775,-3.4775,-3.4775,-3.4775,-3.4775,-3.4775,-3.4775,0.0,-3.3659,-3.2588,-3.1472,-3.0338,-2.926,-2.8291,-2.8291,-2.8291,-2.8291,-2.8291,-2.8291,-2.8291,-2.8291,-2.8291,-2.8291,-2.8291,-2.8291,-2.8291,-2.8291,-2.8291,-2.8291,-2.8291,-2.8291,-2.8291,-2.8291,-2.8291,-2.8291,-2.8291,-2.8291,-2.8291,-2.8291,-2.8291,-2.8291,-2.8291,-2.8291,-2.8184,-2.796,-2.7906,-2.7745,-2.7323,-2.7098,-2.6989,-2.689,-2.689,-2.6791,-2.6646,-2.6591,-2.6591,-2.6591,-2.6591,-2.6591,-2.6591,-2.6245,-2.6055,-2.6021,-2.5358,-2.4968,-2.4785,-2.4532,-2.4321,-2.4202,-2.4202,-2.4202,-2.6396,-2.7021,-2.7718,-2.7728,-2.7988,-2.8291,0.0,-2.8291,-2.8291,-2.8291,-2.9154,-2.9869,-2.9922,-3.1717,-3.3201,-3.3201,-3.4115,0.0,-3.4775,-3.4775,0.0,0.0,0.0,-3.4775,-3.4775,-3.5304,-3.5833,-3.6374,-3.6423,0.0,-3.6423,-3.6423,-3.6663,-3.718,-3.6687,-3.6158,-3.5629,-3.51,-3.4787,-3.4775,-3.4775,-3.4775,-3.4775,-3.4775,-3.4775,-3.4775,-3.4775,-3.4775,0.0,-3.3659,-3.2588,-3.1472,-3.0338,-2.926,-2.8291,-2.8291,-2.8291,-2.8291,-2.8291,-2.8291,-2.8291,-2.8291,-2.8291,-2.8291,-2.8291,-2.8291,-2.8291,-2.8291,-2.8291,-2.8291,-2.8291,-2.8291,-2.8291,-2.8291,-2.8291,-2.8291,-2.8291,-2.8291,-2.8291,-2.8291,-2.8291,-2.8291,-2.8291,-2.8291,-2.8184,-2.796,-2.7906,-2.7691,-2.7098,-2.6989,-2.689,-2.6646,-2.6591,-2.6591,-2.6591,-2.6591,-2.6591,-2.6591,-2.6591,-2.6591,-2.6591,-2.5459,-2.5211,-2.5968,-2.4789,-2.443,-2.4785,-2.4776,-2.4615,-2.4202,-2.4202,-2.4202,-2.6309,-2.6582,-2.6934,-2.7571,-2.7826,-2.7939,-2.8232,-2.8291,-2.8291,-2.8291,-2.8548,-2.9006,-2.9765,-3.1114,-3.2336,-3.3101,-3.4115,0.0,0.0,0.0,0.0,-3.4775,-3.4775,-3.4775,0.0,0.0,-3.5689,-3.5857,-3.6194,-3.6411,-3.6411,-3.6411,-3.6483,-3.6651,-3.6146,-3.5785,-3.5617,-3.5051,-3.4775,-3.4775,-3.4775,-3.4775,-3.4775,-3.4775,-3.4775,-3.4775,-3.4775,-3.4372,-3.361,-3.2538,-3.1472,-3.0338,-2.9207,-2.8601,-2.8291,-2.8291,-2.8291,-2.8291,-2.8291,-2.8291,-2.8291,-2.8291,-2.8291,-2.8291,-2.8291,-2.8291,-2.8291,-2.8291,-2.8291,-2.8291,-2.8291,-2.8291,-2.8291,-2.8291,-2.8291,-2.8291,-2.8291,-2.8291,-2.8291,-2.8291,-2.8291,-2.8291,-2.8291,-2.813,-2.7906,-2.7593,-2.7422,-2.7152,-2.6791,-2.6745,-2.6691,-2.6591,-2.6591,-2.6591,-2.6591,-2.6591,-2.6591,-2.6591,-2.6591,-2.6245,-2.5404,-2.5008,-2.4552,-2.3983,-2.4107,-2.4246,-2.4386,-2.4672,-2.4565,-2.4202,-2.4202,-2.4202,0.0,-2.6269,-2.6514,-2.7051,-2.7483,0.0,-2.7998,-2.8174,-2.8291,-2.8291,-2.8291,-2.8495,-2.9154,-3.0546,-3.183,-3.2488,-3.3857,0.0,0.0,0.0,0.0,-3.4775,0.0,0.0,0.0,-3.5075,-3.5316,-3.5316,-3.5629,-3.5809,-3.5809,-3.5809,-3.5809,-3.5809,-3.5689,-3.5521,-3.5328,-3.4943,-3.4775,-3.4775,-3.4775,-3.4775,-3.4775,-3.4775,-3.4775,-3.4775,-3.4775,-3.4164,0.0,-3.2033,-3.0959,-2.9765,-2.8698,-2.8291,-2.8291,-2.8291,-2.8291,-2.8291,-2.8291,-2.8291,-2.8291,-2.8291,-2.8291,-2.8291,-2.8291,-2.8291,-2.8291,-2.8291,-2.8291,-2.8291,-2.8291,-2.8291,-2.8291,-2.8291,-2.8291,-2.8291,-2.8291,-2.8291,-2.8291,-2.8291,-2.8291,-2.8291,-2.8291,-2.8067,-2.7799,-2.7431,-2.7152,-2.689,-2.6636,-2.6591,-2.6418,-2.5962,-2.6309,-2.6418,-2.5962,-2.6364,-2.6591,-2.6591,-2.619,-2.5569,-2.4842,-2.3935,-2.332,-2.3038,-2.303,-2.3459,-2.4196,-2.4573,-2.4647,-2.444,-2.4275,-2.4202,0.0,-2.6035,-2.6348,-2.6387,0.0,0.0,-2.7708,-2.7969,0.0,-2.8281,-2.8291,-2.8291,-2.8291,-3.0037,-3.1524,-3.1575,-3.3362,0.0,0.0,-3.4775,0.0,0.0,-3.4775,0.0,-3.4775,-3.4775,-3.4775,-3.4775,-3.4775,-3.4775,-3.4775,-3.4775,-3.4775,-3.4775,-3.5304,-3.5328,-3.4787,-3.4775,-3.4775,-3.4775,-3.4775,-3.4775,-3.4775,-3.4775,-3.4775,0.0,-3.4775,-3.4164,-3.3001,-3.2033,-3.0856,-2.967,-2.8698,-2.8291,-2.8291,-2.8291,-2.8291,-2.8291,-2.8291,-2.8291,-2.8291,-2.8291,-2.8291,-2.8291,-2.8291,-2.8291,-2.8291,-2.8291,-2.8291,-2.8291,-2.8291,-2.8291,-2.8291,-2.8291,-2.8291,-2.8291,-2.8291,-2.8291,-2.8291,-2.8291,-2.8291,-2.8291,-2.8291,-2.8077,-2.7745,-2.7422,-2.7152,-2.6836,-2.6527,-2.6473,-2.6017,-2.4778,-2.5679,-2.5907,-2.4778,-2.5798,-2.6473,-2.6473,-2.5348,-2.4612,-2.4556,-2.2418,-2.168,-2.2692,-2.1744,-2.2127,-2.4079,-2.4471,-2.4617,-2.4563,-2.4172,-2.3972,-2.5693,0.0,-2.5967,-2.6309,-2.6543,-2.6855,0.0,-2.7796,-2.791,-2.8223,-2.8291,-2.8291,-2.8291,-2.9418,-3.0598,-3.1472,0.0,-3.3857,-3.4677,0.0,0.0,-3.4775,-3.4775,-3.4775,-3.4775,-3.4775,-3.4775,-3.4775,-3.4775,-3.4775,-3.4775,-3.4775,-3.4775,-3.4775,-3.4895,-3.4907,-3.4775,-3.4775,-3.4775,-3.4775,-3.4775,-3.4775,-3.4775,-3.4775,-3.4775,-3.4775,-3.4775,-3.3709,-3.1982,-3.1677,-3.0453,-2.8654,-2.8398,-2.8291,-2.8291,-2.8291,-2.8291,-2.8291,-2.8291,-2.8291,-2.8291,-2.8291,-2.8291,-2.8291,-2.8291,-2.8291,-2.8291,-2.8291,-2.8291,-2.8291,-2.8291,-2.8291,-2.8291,-2.8291,-2.8291,-2.8291,-2.8291,-2.8291,-2.8291,-2.8291,-2.8291,-2.8237,-2.8014,-2.7755,-2.7422,-2.7152,-2.6899,-2.6354,-2.534,-2.5229,-2.4778,-2.3536,-2.3656,-2.3712,-2.3432,-2.4556,-2.5229,-2.5229,-2.4103,-2.3038,-2.2078,-2.1517,-2.0895,-2.027,-2.0895,-2.1741,-2.2818,-2.2928,-2.2675,-2.2133,-2.2042,-2.1862,-2.5693,-2.5693,-2.5742,-2.6035,-2.624,-2.6514,-2.6973,-2.7434,-2.7777,-2.7959,0.0,-2.8291,-2.8291,-2.9164,-3.0287,-3.1421,-3.2488,0.0,0.0,0.0,-3.4775,-3.4775,-3.4775,-3.4775,0.0,-3.4775,-3.4775,-3.4775,-3.4775,-3.4775,-3.4775,-3.4775,-3.4775,-3.4775,-3.4775,-3.4775,-3.4775,-3.4775,-3.4775,-3.4775,-3.4775,-3.4775,-3.4775,-3.4775,-3.4775,-3.4775,-3.4274,-3.3151,-3.1575,-3.1062,-2.9828,-2.8291,-2.8291,-2.8291,-2.8291,-2.8291,-2.8291,-2.8291,-2.8291,-2.8291,-2.8291,-2.8291,-2.8291,-2.8291,-2.8291,-2.8291,-2.8291,-2.8291,-2.8291,-2.8291,-2.8291,-2.8291,-2.8291,-2.8291,-2.8291,-2.8291,-2.8291,-2.8291,-2.8291,-2.8291,-2.8291,-2.8237,-2.796,-2.7638,-2.7323,-2.7043,-2.6791,-2.6136,-2.4953,-2.4778,-2.4103,-2.2353,-2.27,-2.2757,-2.2248,-2.2749,-2.3376,-2.3935,-2.2862,-2.1851,-2.1231,-2.0673,-2.0046,-1.9424,-2.0608,-2.142,-2.1851,-2.2237,-2.2181,-2.1816,-2.1605,-2.1344,-2.5693,-2.5693,-2.5693,-2.5693,-2.6016,-2.6309,-2.6367,0.0,0.0,0.0,0.0,0.0,0.0,-2.9059,0.0,0.0,0.0,0.0,-3.4677,-3.4775,-3.4775,-3.4775,-3.4775,0.0,-3.4775,-3.4775,-3.4775,-3.4775,-3.4775,-3.4775,-3.4775,-3.4775,-3.4775,-3.4775,-3.4775,-3.4775,-3.4775,-3.4775,-3.4775,-3.4775,-3.4775,-3.4726,-3.4568,-3.4726,-3.4628,-3.4262,0.0,0.0,-3.1268,-3.0287,-2.926,-2.8291,-2.8291,-2.8291,-2.8291,-2.8291,-2.8291,-2.8291,-2.8291,-2.8291,-2.8291,-2.8291,-2.8291,-2.8291,-2.8291,-2.8291,-2.8291,-2.8291,-2.8291,-2.8291,-2.8291,-2.8291,-2.8291,-2.8291,-2.8291,-2.8291,-2.8291,-2.8291,-2.8291,-2.8291,-2.8291,-2.8184,-2.7853,-2.7593,-2.7323,-2.6999,-2.6573,-2.5907,-2.4667,-2.4381,-2.3424,-2.1174,-2.1851,-2.2021,-2.1002,-2.0952,-2.1345,-2.2418,-2.1517,-2.0952,-2.0952,-1.9931,-1.9424,-1.9424,-2.0385,-2.0952,-2.0952,-2.1612,-2.1937,-2.1883,-2.1542,-2.1171,-2.5693,-2.5693,-2.5693,-2.5693,-2.5742,-2.5937,-2.6309,-2.6494,0.0,0.0,0.0,0.0,0.0,-2.8451,-2.891,0.0,0.0,-3.356,0.0,0.0,-3.4775,-3.4775,0.0,-3.4775,-3.4775,-3.4775,-3.4775,-3.4775,-3.4775,-3.4775,-3.4775,-3.4775,-3.4775,-3.4775,-3.4775,-3.4775,-3.4775,-3.4775,-3.4775,-3.4775,-3.4775,-3.4323,-3.3461,-3.4372,-3.3808,-3.2134,0.0,-3.2022,-3.013,-2.9974,-2.926,-2.8291,-2.8291,-2.8291,-2.8291,-2.8291,-2.8291,-2.8291,-2.8291,-2.8291,-2.8291,-2.8291,-2.8291,-2.8291,-2.8291,-2.8291,-2.8291,-2.8291,-2.8291,-2.8291,-2.8291,-2.8291,-2.8291,-2.8291,-2.8291,-2.8291,-2.8291,-2.8291,-2.8291,-2.8291,-2.8291,-2.813,-2.7593,-2.7431,-2.7215,-2.6745,-2.5743,-2.4667,-2.3432,-2.2353,-2.1231,-1.9822,-1.9815,-1.988,-1.9707,-1.9649,-1.9764,-1.9931,-1.9764,-1.9649,-1.9649,-1.9482,-1.9424,-1.9424,-1.9597,-1.9649,-1.9649,-1.9774,-1.9725,-1.9414,-1.9372,-1.9187,-2.5693,-2.5693,-2.5693,-2.5693,-2.5693,-2.5742,-2.5986,-2.6221,0.0,0.0,0.0,0.0,0.0,0.0,-2.8857,-3.0546,0.0,-3.356,-3.4677,-3.4775,-3.4775,0.0,0.0,-3.4775,-3.4775,-3.4775,-3.4775,-3.4775,-3.4775,-3.4775,-3.4775,-3.4775,-3.4775,-3.4775,-3.4775,-3.4775,-3.4775,-3.4775,-3.4775,-3.4775,-3.4213,-3.3967,-3.4066,-3.335,-3.2851,-3.2437,0.0,-3.0845,-2.9869,-2.926,-2.8751,-2.8291,-2.8291,-2.8291,-2.8291,-2.8291,-2.8291,-2.8291,-2.8291,-2.8291,-2.8291,-2.8291,-2.8291,-2.8291,-2.8291,-2.8291,-2.8291,-2.8291,-2.8291,-2.8291,-2.8291,-2.8291,-2.8291,-2.8291,-2.8291,-2.8291,-2.8291,-2.8291,-2.8291,-2.8291,-2.8291,-2.813,-2.7485,-2.7377,-2.6989,-2.5789,-2.5174,-2.4103,-2.2248,-2.1517,-2.0723,-1.954,-1.9424,-1.9424,-1.9424,-1.9424,-1.9424,-1.9424,-1.9424,-1.9424,-1.9424,-1.9424,-1.9424,-1.9424,-1.9424,-1.9424,-1.9424,-1.9424,-1.9299,-1.9165,-1.9165,-1.9005,-2.5693,-2.5693,-2.5693,-2.5693,-2.5693,-2.5693,-2.5693,-2.5996,-2.6269,0.0,0.0,0.0,0.0,-2.8008,0.0,-3.1216,-3.2286,-3.33,-3.4628,-3.4775,-3.4775,-3.4775,-3.4775,-3.4775,-3.4775,-3.4775,-3.4775,-3.4775,-3.4775,-3.4775,-3.4775,-3.4775,-3.4775,-3.4775,-3.4775,-3.4775,-3.4775,-3.4775,-3.4775,-3.4775,-3.3967,-3.3758,-3.4017,-3.26,-3.1982,-3.1971,-3.0535,-2.9775,-2.946,-2.8654,-2.8291,-2.8291,-2.8291,-2.8291,-2.8291,-2.8291,-2.8291,-2.8291,-2.8291,-2.8291,-2.8291,-2.8291,-2.8291,-2.8291,-2.8291,-2.8291,-2.8291,-2.8291,-2.8291,-2.8291,-2.8291,-2.8291,-2.8291,-2.8291,-2.8291,-2.8291,-2.8291,-2.8291,-2.8291,-2.8291,-2.8291,-2.813,-2.7485,-2.7377,-2.6826,-2.5055,-2.4556,-2.36,-2.146,-2.0952,-2.0443,-1.9482,-1.9424,-1.9424,-1.9424,-1.9424,-1.9424,-1.9424,-1.9424,-1.9424,-1.9424,-1.9424,-1.9424,-1.9424,-1.9424,-1.9424,-1.9424,-1.9424,-1.9424,-1.9424,-1.9424,-1.9245,-2.5693,-2.5693,-2.5693,-2.5693,-2.5693,-2.5693,-2.5693,-2.5713,0.0,-2.6309,0.0,0.0,0.0,-2.8008,-2.9016,-3.1216,-3.1677,-3.2437,-3.4519,0.0,-3.4775,-3.4775,-3.4775,-3.4775,-3.4775,-3.4775,-3.4775,-3.4775,-3.4775,-3.4775,-3.4775,-3.4775,-3.4775,-3.4775,-3.4775,-3.4775,-3.4775,-3.4775,-3.4775,-3.4775,-3.4726,-3.3659,-3.188,-3.2689,-3.1462,-2.8708,-2.9513,-2.9365,-2.8388,-2.8344,-2.8291,-2.8291,-2.8291,-2.8291,-2.8291,-2.8291,-2.8291,-2.8291,-2.8291,-2.8291,-2.8291,-2.8291,-2.8291,-2.8291,-2.8291,-2.8291,-2.8291,-2.8291,-2.8291,-2.8291,-2.8291,-2.8291,-2.8291,-2.8291,-2.8291,-2.8291,-2.8291,-2.8291,-2.8291,-2.8291,-2.8291,-2.813,-2.7485,-2.7377,-2.6826,-2.5055,-2.3824,-2.2636,-2.1345,-2.0213,-1.9482,-1.9424,-1.9424,-1.9424,-1.9424,-1.9424,-1.9424,-1.9424,-1.9424,-1.9424,-1.9424,-1.9424,-1.9424,-1.9424,-1.9424,-1.9424,-1.9424,-1.9424,-1.9424,-1.9424,-1.9424,-1.9417,-2.5693,-2.5693,-2.5693,-2.5693,-2.5693,0.0,0.0,-2.5693,-2.5732,-2.5947,-2.6201,0.0,0.0,0.0,-2.8748,-3.1224,-3.1575,-3.2336,-3.447,-3.4775,-3.4775,-3.4775,-3.4775,-3.4775,-3.4775,-3.4775,-3.4775,-3.4775,-3.4775,-3.4775,-3.4775,-3.4775,-3.4775,-3.4775,-3.4775,-3.4775,-3.4775,-3.4775,-3.4775,-3.4775,-3.3461,-3.2739,-3.2538,-3.0908,-2.9828,-2.926,-2.9006,-2.8644,-2.8291,-2.8291,-2.8291,-2.8291,-2.8291,-2.8291,-2.8291,-2.8291,-2.8291,-2.8291,-2.8291,-2.8291,-2.8291,-2.8291,-2.8291,-2.8291,-2.8291,-2.8291,-2.8291,-2.8291,-2.8291,-2.8291,-2.8291,-2.8291,-2.8291,-2.8291,-2.8291,-2.8291,-2.8291,-2.8291,-2.8291,-2.8291,-2.8291,-2.813,-2.7485,-2.6754,-2.5689,-2.3927,-2.2636,-2.146,-2.022,-1.9707,-1.9424,-1.9424,-1.9424,-1.9424,-1.9424,-1.9424,-1.9424,-1.9424,-1.9424,-1.9424,-1.9424,-1.9424,-1.9424,-1.9424,-1.9424,-1.9424,-1.9424,-1.9424,-1.9424,-1.9424,-1.9424,-1.9301,-2.5693,-2.5693,-2.5693,-2.5693,0.0,0.0,-2.5693,-2.5693,-2.5693,-2.5693,-2.6084,-2.6611,-2.7324,0.0,0.0,0.0,-3.1575,-3.2336,-3.447,-3.4775,-3.4775,-3.4775,-3.4775,-3.4775,-3.4775,-3.4775,-3.4775,-3.4775,-3.4775,-3.4775,-3.4775,-3.4775,-3.4775,-3.4775,-3.4775,-3.4775,-3.4775,-3.4775,-3.4628,-3.4262,-3.2437,-3.1982,-3.26,-2.9984,-2.9006,-2.9365,-2.8601,-2.8291,-2.8291,-2.8291,-2.8291,-2.8291,-2.8291,-2.8291,-2.8291,-2.8291,-2.8291,-2.8291,-2.8291,-2.8291,-2.8291,-2.8291,-2.8291,-2.8291,-2.8291,-2.8291,-2.8291,-2.8291,-2.8291,-2.8291,-2.8291,-2.8291,-2.8291,-2.8291,-2.8291,-2.8291,-2.8291,-2.8291,-2.8291,-2.8291,-2.8237,-2.8023,-2.7485,-2.63,-2.4901,-2.3255,-2.1964,-2.078,-1.954,-1.9424,-1.9424,-1.9424,-1.9424,-1.9424,-1.9424,-1.9424,-1.9424,-1.9424,-1.9424,-1.9424,-1.9424,-1.9424,-1.9424,-1.9424,-1.9424,-1.9424,-1.9424,-1.9424,-1.9424,-1.9424,-1.9424,-1.9243,-2.5693,-2.5693,-2.5693,-2.5693,0.0,0.0,-2.5693,-2.5693,-2.5693,-2.5693,-2.6084,-2.6514,-2.6934,-2.7363,0.0,-3.1192,-3.1575,-3.2336,-3.447,-3.4775,-3.4775,-3.4775,-3.4775,-3.4775,-3.4775,-3.4775,-3.4775,-3.4775,-3.4775,-3.4775,-3.4775,-3.4775,-3.4775,-3.4775,-3.4775,-3.4775,-3.4775,-3.4775,-3.4274,-3.3201,-3.2083,-3.1575,-3.1534,-3.038,-2.9313,-2.8291,-2.8291,-2.8291,-2.8291,-2.8291,-2.8291,-2.8291,-2.8291,-2.8291,-2.8291,-2.8291,-2.8291,-2.8291,-2.8291,-2.8291,-2.8291,-2.8291,-2.8291,-2.8291,-2.8291,-2.8291,-2.8291,-2.8291,-2.8291,-2.8291,-2.8291,-2.8291,-2.8291,-2.8291,-2.8291,-2.8291,-2.8291,-2.8291,-2.8291,-2.8291,-2.8067,-2.7799,-2.7422,-2.6136,-2.4689,-2.3199,-2.1964,-2.0723,-1.954,-1.9424,-1.9424,-1.9424,-1.9424,-1.9424,-1.9424,-1.9424,-1.9424,-1.9424,-1.9424,-1.9424,-1.9424,-1.9424,-1.9424,-1.9424,-1.9424,-1.9424,-1.9424,-1.9424,-1.9424,-1.9424,-1.9424,-1.9243,-2.5693,-2.5693,-2.5693,-2.5693,0.0,0.0,0.0,-2.5693,0.0,0.0,-2.5791,-2.6064,-2.6494,-2.6924,0.0,-3.0684,-3.1407,-3.2336,-3.447,-3.4775,-3.4775,-3.4775,-3.4775,-3.4775,-3.4775,-3.4775,-3.4775,-3.4775,-3.4775,-3.4775,-3.4775,-3.4775,-3.4775,-3.4775,-3.4775,-3.4775,-3.4775,-3.4066,-3.3499,-3.3201,-3.1308,-3.038,-3.039,-2.926,-2.8601,-2.8291,-2.8291,-2.8291,-2.8291,-2.8291,-2.8291,-2.8291,-2.8291,-2.8291,-2.8291,-2.8291,-2.8291,-2.8291,-2.8291,-2.8291,-2.8291,-2.8291,-2.8291,-2.8291,-2.8291,-2.8291,-2.8291,-2.8291,-2.8291,-2.8291,-2.8291,-2.8291,-2.8291,-2.8291,-2.8291,-2.8291,-2.8291,-2.8291,-2.8291,-2.8291,-2.8067,-2.7511,-2.6354,-2.4901,-2.3447,-2.1957,-2.0723,-1.9822,-1.9424,-1.9424,-1.9424,-1.9424,-1.9424,-1.9424,-1.9424,-1.9424,-1.9424,-1.9424,-1.9424,-1.9424,-1.9424,-1.9424,-1.9424,-1.9424,-1.9424,-1.9424,-1.9424,-1.9424,-1.9424,-1.9424,-1.9424,-1.9068,-2.5693,-2.5693,-2.5693,-2.5693,-2.5693,-2.5693,-2.5693,0.0,0.0,0.0,-2.5693,-2.582,-2.6309,-2.6728,0.0,-3.0467,-3.0892,-3.1819,-3.4421,-3.4421,-3.4323,-3.4726,-3.4775,-3.4775,-3.4775,-3.4775,-3.4775,-3.4775,-3.4775,-3.4775,-3.4775,-3.4775,-3.4775,-3.4775,-3.4775,-3.458,-3.4164,-3.3511,-3.2739,-3.1869,-3.0535,-2.967,-2.926,-2.8601,-2.8291,-2.8291,-2.8291,-2.8291,-2.8291,-2.8291,-2.8291,-2.8291,-2.8291,-2.8291,-2.8291,-2.8291,-2.8291,-2.8291,-2.8291,-2.8291,-2.8291,-2.8291,-2.8291,-2.8291,-2.8291,-2.8291,-2.8291,-2.8291,-2.8291,-2.8291,-2.8291,-2.8291,-2.8291,-2.8291,-2.8291,-2.8291,-2.8291,-2.8291,-2.8291,-2.8184,-2.7511,-2.6681,-2.5626,-2.3838,-2.2225,-2.1338,-2.0162,-1.9424,-1.9424,-1.9424,-1.9424,-1.9424,-1.9424,-1.9424,-1.9424,-1.9424,-1.9424,-1.9424,-1.9424,-1.9424,-1.9424,-1.9424,-1.9424,-1.9424,-1.9424,-1.9424,-1.9424,-1.9424,-1.9424,-1.9424,-1.9424,-1.901,-2.5684,-2.5635,-2.5635,-2.5635,-2.5684,-2.5693,-2.5693,-2.5693,-2.5693,-2.5693,0.0,-2.581,-2.626,-2.6709,-2.7833,-3.0413,-3.031,-3.1051,-3.4323,-3.3857,-3.361,-3.4677,-3.4775,-3.4775,-3.4775,-3.4775,-3.4775,-3.4775,-3.4775,-3.4775,-3.4775,-3.4775,-3.4775,-3.4775,-3.4775,-3.4262,-3.3201,-3.3101,-3.1971,-2.9922,-2.9817,-2.926,-2.8291,-2.8291,-2.8291,-2.8291,-2.8291,-2.8291,-2.8291,-2.8291,-2.8291,-2.8291,-2.8291,-2.8291,-2.8291,-2.8291,-2.8291,-2.8291,-2.8291,-2.8291,-2.8291,-2.8291,-2.8291,-2.8291,-2.8291,-2.8291,-2.8291,-2.8291,-2.8291,-2.8291,-2.8291,-2.8291,-2.8291,-2.8291,-2.8291,-2.8291,-2.8291,-2.8291,-2.8237,-2.796,-2.6626,-2.5461,-2.5122,-2.2902,-2.1174,-2.1067,-2.0104,-1.9424,-1.9424,-1.9424,-1.9424,-1.9424,-1.9424,-1.9424,-1.9424,-1.9424,-1.9424,-1.9424,-1.9424,-1.9424,-1.9424,-1.9424,-1.9424,-1.9424,-1.9424,-1.9424,-1.9424,-1.9424,-1.9424,-1.9424,-1.9424,-1.901,-2.544,-2.5391,-2.5391,-2.5391,-2.5538,-2.5693,-2.5693,-2.5693,-2.5693,-2.5693,-2.5693,-2.5713,-2.581,-2.6504,-2.7733,-3.0041,-3.0149,-3.1051,-3.4323,-3.3857,-3.361,-3.4677,-3.4775,-3.4775,-3.4775,-3.4775,-3.4775,-3.4775,-3.4775,-3.4775,-3.4775,-3.4775,-3.4775,-3.4775,-3.4775,-3.4262,-3.3201,-3.2336,-3.1257,-2.9869,-2.9059,-2.8495,-2.8291,-2.8291,-2.8291,-2.8291,-2.8291,-2.8291,-2.8291,-2.8291,-2.8291,-2.8291,-2.8291,-2.8291,-2.8291,-2.8291,-2.8291,-2.8291,-2.8291,-2.8291,-2.8291,-2.8291,-2.8291,-2.8291,-2.8291,-2.8291,-2.8291,-2.8291,-2.8291,-2.8291,-2.8291,-2.8291,-2.8291,-2.8291,-2.8291,-2.8291,-2.8291,-2.8291,-2.8237,-2.796,-2.6626,-2.5232,-2.3997,-2.2338,-2.0895,-1.9931,-1.9597,-1.9424,-1.9424,-1.9424,-1.9424,-1.9424,-1.9424,-1.9424,-1.9424,-1.9424,-1.9424,-1.9424,-1.9424,-1.9424,-1.9424,-1.9424,-1.9424,-1.9424,-1.9424,-1.9424,-1.9424,-1.9424,-1.9424,-1.9424,-1.9424,-1.901,-2.5382,-2.5284,0.0,-2.5137,0.0,-2.5489,-2.5489,-2.5586,-2.5693,-2.5693,-2.5693,-2.5693,-2.5693,-2.6386,-2.7551,-2.9211,-2.9291,-3.0287,-3.356,-3.3101,-3.2839,-3.3918,-3.447,-3.458,-3.4066,-3.447,-3.4775,-3.4775,-3.4775,-3.4775,-3.4775,-3.4775,-3.4568,-3.4066,-3.4017,-3.325,-3.1666,-3.1051,-3.0235,-2.9112,-2.8548,-2.8291,-2.8291,-2.8291,-2.8291,-2.8291,-2.8291,-2.8291,-2.8291,-2.8291,-2.8291,-2.8291,-2.8291,-2.8291,-2.8291,-2.8291,-2.8291,-2.8291,-2.8291,-2.8291,-2.8291,-2.8291,-2.8291,-2.8291,-2.8291,-2.8291,-2.8291,-2.8291,-2.8291,-2.8291,-2.8291,-2.8291,-2.8291,-2.8291,-2.8291,-2.8291,-2.8291,-2.7726,-2.7168,-2.6844,-2.5113,-2.3383,-2.25,-2.1224,-2.0104,-1.9482,-1.9424,-1.9424,-1.9424,-1.9424,-1.9424,-1.9424,-1.9424,-1.9424,-1.9424,-1.9424,-1.9424,-1.9424,-1.9424,-1.9424,-1.9424,-1.9424,-1.9424,-1.9424,-1.9424,-1.9424,-1.9424,-1.9243,-1.9185,-1.9185,-1.9185,-1.8829,-2.5362,-2.5284,-2.5186,-2.4981,-2.5088,0.0,-2.5284,-2.5489,-2.5635,-2.5684,-2.5693,-2.5693,-2.5693,-2.6377,-2.7269,-2.8406,-2.8374,-2.9284,-3.2476,-3.2134,-3.1931,-3.2801,-3.3869,-3.4115,-3.3051,-3.3906,-3.4519,-3.4519,-3.4677,-3.4726,-3.4519,-3.4519,-3.4017,-3.2951,-3.2901,-3.1971,-2.9922,-2.9922,-2.9365,-2.8291,-2.8291,-2.8291,-2.8291,-2.8291,-2.8291,-2.8291,-2.8291,-2.8291,-2.8291,-2.8291,-2.8291,-2.8291,-2.8291,-2.8291,-2.8291,-2.8291,-2.8291,-2.8291,-2.8291,-2.8291,-2.8291,-2.8291,-2.8291,-2.8291,-2.8291,-2.8291,-2.8291,-2.8291,-2.8291,-2.8291,-2.8291,-2.8291,-2.8291,-2.8291,-2.8291,-2.8291,-2.8237,-2.7105,-2.5991,-2.5617,-2.3383,-2.1373,-2.0945,-2.0046,-1.9424,-1.9424,-1.9424,-1.9424,-1.9424,-1.9424,-1.9424,-1.9424,-1.9424,-1.9424,-1.9424,-1.9424,-1.9424,-1.9424,-1.9424,-1.9424,-1.9424,-1.9424,-1.9424,-1.9424,-1.9424,-1.9424,-1.9424,-1.912,-1.8939,-1.8874,-1.8939,-1.8655,-2.5285,0.0,-2.4932,0.0,-2.4932,-2.503,0.0,0.0,-2.544,0.0,-2.5693,-2.5693,-2.5693,-2.6143,-2.6923,-2.8365,-2.8124,-2.8741,-3.1418,-3.1677,-3.1626,-3.1779,-3.2739,-3.3001,-3.1931,-3.2801,-3.34,-3.34,-3.4262,-3.4372,-3.3461,-3.34,-3.2901,-3.183,-3.183,-3.1206,-2.9922,-2.9922,-2.9365,-2.8291,-2.8291,-2.8291,-2.8291,-2.8291,-2.8291,-2.8291,-2.8291,-2.8291,-2.8291,-2.8291,-2.8291,-2.8291,-2.8291,-2.8291,-2.8291,-2.8291,-2.8291,-2.8291,-2.8291,-2.8291,-2.8291,-2.8291,-2.8291,-2.8291,-2.8291,-2.8291,-2.8291,-2.8291,-2.8291,-2.8291,-2.8291,-2.8291,-2.8291,-2.8291,-2.8291,-2.8237,-2.8014,-2.6997,-2.5936,-2.5342,-2.3063,-2.0888,-1.9822,-1.954,-1.9424,-1.9424,-1.9424,-1.9424,-1.9424,-1.9424,-1.9424,-1.9424,-1.9424,-1.9424,-1.9424,-1.9424,-1.9424,-1.9424,-1.9424,-1.9424,-1.9424,-1.9424,-1.9424,-1.9424,-1.9424,-1.9424,-1.9424,-1.9366,-1.9178,-1.8939,-1.9185,-1.8842,-2.5402,-2.5088,-2.4883,0.0,-2.4784,-2.4883,-2.4883,-2.499,-2.5088,-2.5235,-2.5382,-2.5538,-2.5684,-2.6094,-2.6674,-2.7582,-2.7683,-2.8369,-3.0379,-3.065,-3.065,-3.065,-3.1626,-3.188,-3.0753,-3.1677,-3.2286,-3.2286,-3.275,-3.2789,-3.2336,-3.2286,-3.1768,-3.0691,-3.065,-3.013,-2.9006,-2.9006,-2.8751,-2.8291,-2.8291,-2.8291,-2.8291,-2.8291,-2.8291,-2.8291,-2.8291,-2.8291,-2.8291,-2.8291,-2.8291,-2.8291,-2.8291,-2.8291,-2.8291,-2.8291,-2.8291,-2.8291,-2.8291,-2.8291,-2.8291,-2.8291,-2.8291,-2.8291,-2.8291,-2.8291,-2.8291,-2.8291,-2.8291,-2.8291,-2.8291,-2.8291,-2.8291,-2.8291,-2.8184,-2.7789,-2.6844,-2.5663,-2.4267,-2.233,-2.1002,-2.0046,-1.9482,-1.9424,-1.9424,-1.9424,-1.9424,-1.9424,-1.9424,-1.9424,-1.9424,-1.9424,-1.9424,-1.9424,-1.9424,-1.9424,-1.9424,-1.9424,-1.9424,-1.9424,-1.9424,-1.9424,-1.9424,-1.9424,-1.9424,-1.9424,-1.9424,-1.9185,-1.8946,-1.8648,-1.8939,-1.8596,0.0,0.0,-2.4906,-2.5031,-2.4922,-2.4784,0.0,0.0,-2.4833,0.0,-2.5088,-2.5235,-2.544,-2.5907,-2.6357,-2.6787,-2.7217,-2.7949,-2.9184,-2.9651,-2.9817,-2.9513,-3.0494,-3.0753,-2.9618,-3.0494,-3.1165,-3.1165,-3.1421,-3.1472,-3.1165,-3.1165,-3.065,-2.9513,-2.9513,-2.9112,-2.8291,-2.8291,-2.8291,-2.8291,-2.8291,-2.8291,-2.8291,-2.8291,-2.8291,-2.8291,-2.8291,-2.8291,-2.8291,-2.8291,-2.8291,-2.8291,-2.8291,-2.8291,-2.8291,-2.8291,-2.8291,-2.8291,-2.8291,-2.8291,-2.8291,-2.8291,-2.8291,-2.8291,-2.8291,-2.8291,-2.8291,-2.8291,-2.8291,-2.8291,-2.8291,-2.8291,-2.8291,-2.8237,-2.7789,-2.7006,-2.5397,-2.4061,-2.2387,-1.9873,-1.9424,-1.9424,-1.9424,-1.9424,-1.9424,-1.9424,-1.9424,-1.9424,-1.9424,-1.9424,-1.9424,-1.9424,-1.9424,-1.9424,-1.9424,-1.9424,-1.9424,-1.9424,-1.9424,-1.9424,-1.9424,-1.9424,-1.9424,-1.9424,-1.9424,-1.9424,-1.9424,-1.912,-1.8823,-1.8538,-1.8881,-1.8532,0.0,-2.5654,0.0,-2.6355,-2.5586,-2.4578,0.0,0.0,-2.4578,-2.4833,-2.4932,-2.4932,-2.4932,-2.5401,-2.5869,-2.6357,-2.6777,-2.7197,-2.7741,-2.8997,-2.9513,-2.8495,-2.9313,-2.9565,-2.8495,-2.9365,-2.9974,-2.9974,-3.1011,-3.1114,-3.0026,-2.9974,-2.9513,-2.8398,-2.8398,-2.8344,-2.8291,-2.8291,-2.8291,-2.8291,-2.8291,-2.8291,-2.8291,-2.8291,-2.8291,-2.8291,-2.8291,-2.8291,-2.8291,-2.8291,-2.8291,-2.8291,-2.8291,-2.8291,-2.8291,-2.8291,-2.8291,-2.8291,-2.8291,-2.8291,-2.8291,-2.8291,-2.8291,-2.8291,-2.8291,-2.8291,-2.8291,-2.8291,-2.8291,-2.8291,-2.8291,-2.8291,-2.8237,-2.796,-2.7051,-2.5709,-2.3877,-2.2394,-2.0945,-1.9649,-1.9424,-1.9424,-1.9424,-1.9424,-1.9424,-1.9424,-1.9424,-1.9424,-1.9424,-1.9424,-1.9424,-1.9424,-1.9424,-1.9424,-1.9424,-1.9424,-1.9424,-1.9424,-1.9424,-1.9424,-1.9424,-1.9424,-1.9424,-1.9424,-1.9424,-1.9424,-1.9424,-1.9366,-1.9185,-1.8881,-1.9243,-1.8842,0.0,0.0,0.0,-2.6111,-2.5749,-2.516,-2.4767,-2.4587,-2.4489,-2.4449,-2.4538,-2.4637,-2.4637,-2.4932,-2.5379,-2.606,-2.6485,-2.6962,-2.7607,-2.8387,-2.8751,-2.8344,-2.8654,-2.8698,-2.8344,-2.8654,-2.8857,-2.8857,-2.927,-2.9323,-2.89,-2.8857,-2.8708,-2.8291,-2.8291,-2.8291,-2.8291,-2.8291,-2.8291,-2.8291,-2.8291,-2.8291,-2.8291,-2.8291,-2.8291,-2.8291,-2.8291,-2.8291,-2.8291,-2.8291,-2.8291,-2.8291,-2.8291,-2.8291,-2.8291,-2.8291,-2.8291,-2.8291,-2.8291,-2.8291,-2.8291,-2.8291,-2.8291,-2.8291,-2.8291,-2.8291,-2.8291,-2.8291,-2.8291,-2.8291,-2.8291,-2.8291,-2.796,-2.6735,-2.5388,-2.3941,-2.2338,-2.0938,-1.9931,-1.9482,-1.9424,-1.9424,-1.9424,-1.9424,-1.9424,-1.9424,-1.9424,-1.9424,-1.9424,-1.9424,-1.9424,-1.9424,-1.9424,-1.9424,-1.9424,-1.9424,-1.9424,-1.9424,-1.9424,-1.9424,-1.9424,-1.9424,-1.9424,-1.9424,-1.9424,-1.9424,-1.9424,-1.9424,-1.9243,-1.8939,-1.9243,-1.89,-2.7279,0.0,0.0,0.0,-2.6321,-2.5637,-2.5121,-2.4818,-2.4587,-2.4449,-2.4489,-2.448,-2.448,-2.4587,-2.4878,-2.5509,-2.6011,-2.6535,-2.7227,-2.7707,-2.8028,-2.8281,-2.8291,-2.8291,-2.8291,-2.8291,-2.8291,-2.8291,-2.8291,0.0,-2.8291,-2.8291,-2.8291,-2.8291,-2.8291,-2.8291,-2.8291,-2.8291,-2.8291,-2.8291,-2.8291,-2.8291,-2.8291,-2.8291,-2.8291,-2.8291,-2.8291,-2.8291,-2.8291,-2.8291,-2.8291,-2.8291,-2.8291,-2.8291,-2.8291,-2.8291,-2.8291,-2.8291,-2.8291,-2.8291,-2.8291,-2.8291,-2.8291,-2.8291,-2.8291,-2.8291,-2.8291,-2.8291,-2.8291,-2.8291,-2.8291,-2.7853,-2.6952,-2.5287,-2.3718,-2.2274,-2.0888,-1.9989,-1.9424,-1.9424,-1.9424,-1.9424,-1.9424,-1.9424,-1.9424,-1.9424,-1.9424,-1.9424,-1.9424,-1.9424,-1.9424,-1.9424,-1.9424,-1.9424,-1.9424,-1.9424,-1.9424,-1.9424,-1.9424,-1.9424,-1.9424,-1.9424,-1.9424,-1.9424,-1.9424,-1.9424,-1.9424,-1.9424,-1.9301,-1.9062,-1.9307,-1.8959,0.0,0.0,0.0,0.0,0.0,0.0,-2.6026,0.0,-2.4922,-2.4883,-2.4677,-2.4529,-2.4529,-2.4341,-2.435,-2.4833,-2.5291,-2.5809,-2.6465,-2.6958,-2.754,-2.8169,-2.8281,-2.8291,-2.8291,-2.8291,-2.8291,-2.8291,-2.8291,-2.8291,-2.8291,-2.8291,-2.8291,-2.8291,-2.8291,-2.8291,-2.8291,-2.8291,-2.8291,-2.8291,-2.8291,-2.8291,-2.8291,-2.8291,-2.8291,-2.8291,-2.8291,-2.8291,-2.8291,-2.8291,-2.8291,-2.8291,-2.8291,-2.8291,-2.8291,-2.8291,-2.8291,-2.8291,-2.8291,-2.8291,-2.8291,-2.8291,-2.8291,-2.8291,-2.8291,-2.8291,-2.8291,-2.8291,-2.8291,-2.8291,-2.8291,-2.6961,-2.5287,-2.3774,-2.2281,-2.0895,-1.9649,-1.9424,-1.9424,-1.9424,-1.9424,-1.9424,-1.9424,-1.9424,-1.9424,-1.9424,-1.9424,-1.9424,-1.9424,-1.9424,-1.9424,-1.9424,-1.9424,-1.9424,-1.9424,-1.9424,-1.9424,-1.9424,-1.9424,-1.9424,-1.9424,-1.9424,-1.9424,-1.9424,-1.9424,-1.9424,-1.9424,-1.9424,-1.9424,-1.9424,-1.9366,-1.901,-2.8143,0.0,0.0,0.0,0.0,0.0,0.0,0.0,-2.4775,-2.4875,-2.4833,-2.4784,-2.4784,-2.4735,-2.4745,-2.4883,-2.5133,-2.5443,-2.5819,-2.6517,-2.7127,-2.7559,-2.783,-2.8077,-2.8291,-2.8291,-2.8291,0.0,-2.8291,-2.8291,-2.8291,-2.8291,-2.8291,-2.8291,-2.8291,-2.8291,-2.8291,-2.8291,-2.8291,-2.8291,-2.8291,-2.8291,-2.8291,-2.8291,-2.8291,-2.8291,-2.8291,-2.8291,-2.8291,-2.8291,-2.8291,-2.8291,-2.8291,-2.8291,-2.8291,-2.8291,-2.8291,-2.8291,-2.8291,-2.8291,-2.8291,-2.8291,-2.8291,-2.8291,-2.8291,-2.8291,-2.8291,-2.8291,-2.8291,-2.8237,-2.8067,-2.7466,-2.63,-2.3941,-2.2958,-2.1907,-1.988,-1.9424,-1.9424,-1.9424,-1.9424,-1.9424,-1.9424,-1.9424,-1.9424,-1.9424,-1.9424,-1.9424,-1.9424,-1.9424,-1.9424,-1.9424,-1.9424,-1.9424,-1.9424,-1.9424,-1.9424,-1.9424,-1.9424,-1.9424,-1.9424,-1.9424,-1.9424,-1.9424,-1.9424,-1.9424,-1.9424,-1.9424,-1.9424,-1.9366,-1.912,-1.8823,0.0,0.0,0.0,0.0,0.0,0.0,-2.6435,-2.5625,-2.4919,0.0,-2.4981,-2.4883,-2.4735,-2.4735,-2.4686,-2.4637,-2.4892,-2.5258,-2.5688,-2.6145,-2.662,-2.7104,-2.7554,-2.7868,-2.8027,-2.8193,-2.8291,-2.8291,-2.8291,-2.8291,-2.8291,-2.8291,-2.8291,-2.8291,-2.8291,-2.8291,-2.8291,-2.8291,-2.8291,-2.8291,-2.8291,-2.8291,-2.8291,-2.8291,-2.8291,-2.8291,-2.8291,-2.8291,-2.8291,-2.8291,-2.8291,-2.8291,-2.8291,-2.8291,-2.8291,-2.8291,-2.8291,-2.8291,-2.8291,-2.8291,-2.8291,-2.8291,-2.8291,-2.8291,-2.8291,-2.8291,-2.8291,-2.8291,-2.8237,-2.8067,-2.7745,-2.6744,-2.5296,-2.3623,-2.2346,-2.1117,-1.9707,-1.9424,-1.9424,-1.9424,-1.9424,-1.9424,-1.9424,-1.9424,-1.9424,-1.9424,-1.9424,-1.9424,-1.9424,-1.9424,-1.9424,-1.9424,-1.9424,-1.9424,-1.9424,-1.9424,-1.9424,-1.9424,-1.9424,-1.9424,-1.9424,-1.9424,-1.9424,-1.9424,-1.9424,-1.9424,-1.9424,-1.9424,-1.9424,-1.9424,-1.9185,-1.8829,0.0,0.0,0.0,0.0,0.0,0.0,-2.6976,-2.6078,-2.5212,0.0,-2.5099,-2.4932,-2.4686,-2.4627,-2.4587,-2.4399,-2.4686,-2.5163,-2.5743,-2.5898,-2.6162,-2.6793,-2.7273,-2.7617,-2.7708,-2.7998,-2.8242,-2.8291,-2.8291,-2.8291,-2.8291,-2.8291,-2.8291,-2.8291,-2.8291,-2.8291,-2.8291,-2.8291,-2.8291,-2.8291,-2.8291,-2.8291,-2.8291,-2.8291,-2.8291,-2.8291,-2.8291,-2.8291,-2.8291,-2.8291,-2.8291,-2.8291,-2.8291,-2.8291,-2.8291,-2.8291,-2.8291,-2.8291,-2.8291,-2.8291,-2.8291,-2.8291,-2.8291,-2.8291,-2.8291,-2.8291,-2.8291,-2.8291,-2.813,-2.7799,-2.7485,-2.5516,-2.3503,-2.3087,-2.1288,-1.954,-1.9424,-1.9424,-1.9424,-1.9424,-1.9424,-1.9424,-1.9424,-1.9424,-1.9424,-1.9424,-1.9424,-1.9424,-1.9424,-1.9424,-1.9424,-1.9424,-1.9424,-1.9424,-1.9424,-1.9424,-1.9424,-1.9424,-1.9424,-1.9424,-1.9424,-1.9424,-1.9424,-1.9424,-1.9424,-1.9424,-1.9424,-1.9424,-1.9424,-1.9424,-1.9424,-1.901,0.0,0.0,0.0,0.0,0.0,0.0,-2.6669,-2.6138,-2.5574,0.0,-2.5334,-2.5538,-2.5489,-2.5489,-2.544,-2.5391,-2.5284,-2.5117,-2.4839,-2.5239,-2.5736,-2.6133,-2.657,-2.7069,-2.7627,-2.7796,-2.793,-2.8271,-2.8291,-2.8291,-2.8291,-2.8291,-2.8291,-2.8291,-2.8291,-2.8291,-2.8291,-2.8291,-2.8291,-2.8291,-2.8291,-2.8291,-2.8291,-2.8291,-2.8291,-2.8291,-2.8291,-2.8291,-2.8291,-2.8291,-2.8291,-2.8291,-2.8291,-2.8291,-2.8291,-2.8291,-2.8291,-2.8291,-2.8291,-2.8291,-2.8291,-2.8291,-2.8291,-2.8291,-2.8291,-2.8291,-2.8291,-2.8291,-2.813,-2.7799,-2.7485,-2.6136,-2.4514,-2.3311,-2.1907,-2.0551,-1.9597,-1.9424,-1.9424,-1.9424,-1.9424,-1.9424,-1.9424,-1.9424,-1.9424,-1.9424,-1.9424,-1.9424,-1.9424,-1.9424,-1.9424,-1.9424,-1.9424,-1.9424,-1.9424,-1.9424,-1.9424,-1.9424,-1.9424,-1.9424,-1.9424,-1.9424,-1.9424,-1.9424,-1.9424,-1.9424,-1.9424,-1.9424,-1.9424,-1.9424,-1.9424,-1.901,0.0,0.0,0.0,-2.851,0.0,0.0,0.0,-2.6259,-2.5474,-2.5521,-2.5339,-2.5237,-2.5294,-2.543,-2.544,-2.5333,-2.543,-2.5333,-2.4981,-2.521,-2.5492,-2.5808,-2.6235,-2.6635,-2.7012,-2.7217,-2.7519,-2.7949,-2.8174,-2.8291,-2.8291,-2.8291,-2.8291,-2.8291,-2.8291,-2.8291,-2.8291,-2.8291,-2.8291,-2.8291,-2.8291,-2.8291,-2.8291,-2.8291,-2.8291,-2.8291,-2.8291,-2.8291,-2.8291,-2.8291,-2.8291,-2.8291,-2.8291,-2.8291,-2.8291,-2.8291,-2.8291,-2.8291,-2.8291,-2.8291,-2.8291,-2.8291,-2.8291,-2.8291,-2.8291,-2.8291,-2.8291,-2.8291,-2.797,-2.7584,-2.7422,-2.5753,-2.3919,-2.3199,-2.1623,-2.0162,-1.954,-1.9424,-1.9424,-1.9424,-1.9424,-1.9424,-1.9424,-1.9424,-1.9424,-1.9424,-1.9424,-1.9424,-1.9424,-1.9424,-1.9424,-1.9424,-1.9424,-1.9424,-1.9424,-1.9424,-1.9424,-1.9424,-1.9424,-1.9424,-1.9424,-1.9424,-1.9424,-1.9424,-1.9424,-1.9424,-1.9424,-1.9424,-1.9424,-1.9424,-1.9424,-1.901,0.0,0.0,0.0,0.0,0.0,-2.7247,0.0,0.0,0.0,-2.5528,0.0,0.0,0.0,0.0,0.0,-2.4974,0.0,0.0,0.0,-2.5285,0.0,-2.5693,-2.5996,-2.6239,-2.6387,-2.6768,-2.7197,-2.7679,-2.7978,-2.8203,-2.8291,-2.8291,-2.8291,-2.8291,-2.8291,-2.8291,-2.8291,-2.8291,-2.8291,-2.8291,-2.8291,-2.8291,-2.8291,-2.8291,-2.8291,-2.8291,-2.8291,-2.8291,-2.8291,-2.8291,-2.8291,-2.8291,-2.8291,-2.8291,-2.8291,-2.8291,-2.8291,-2.8291,-2.8291,-2.8291,-2.8291,-2.8291,-2.8291,-2.8291,-2.8291,-2.8291,-2.8291,-2.8291,-2.7691,-2.7034,-2.7034,-2.4863,-2.2636,-2.2636,-2.1002,-1.9424,-1.9424,-1.9424,-1.9424,-1.9424,-1.9424,-1.9424,-1.9424,-1.9424,-1.9424,-1.9424,-1.9424,-1.9424,-1.9424,-1.9424,-1.9424,-1.9424,-1.9424,-1.9424,-1.9424,-1.9424,-1.9424,-1.9424,-1.9424,-1.9424,-1.9424,-1.9424,-1.9424,-1.9424,-1.9424,-1.9424,-1.9424,-1.9424,-1.9424,-1.9424,-1.9424,-1.9068,0.0,0.0,0.0,0.0,-2.7846,0.0,0.0,0.0,-2.4893,-2.4222,0.0,0.0,0.0,0.0,0.0,0.0,0.0,0.0,-2.5148,-2.5237,-2.5391,-2.5693,-2.5528,-2.5662,-2.6348,-2.6768,-2.7197,-2.7679,-2.7767,-2.79,-2.8271,-2.8291,-2.8291,-2.8291,-2.8291,-2.8291,-2.8291,-2.8291,-2.8291,-2.8291,-2.8291,-2.8291,-2.8291,-2.8291,-2.8291,-2.8291,-2.8291,-2.8291,-2.8291,-2.8291,-2.8291,-2.8291,-2.8291,-2.8291,-2.8291,-2.8291,-2.8291,-2.8291,-2.8291,-2.8291,-2.8291,-2.8291,-2.8291,-2.8291,-2.8291,-2.8291,-2.8291,-2.8291,-2.707,-2.579,-2.579,-2.3623,-2.1402,-2.1402,-2.0385,-1.9424,-1.9424,-1.9424,-1.9424,-1.9424,-1.9424,-1.9424,-1.9424,-1.9424,-1.9424,-1.9424,-1.9424,-1.9424,-1.9424,-1.9424,-1.9424,-1.9424,-1.9424,-1.9424,-1.9424,-1.9424,-1.9424,-1.9424,-1.9424,-1.9424,-1.9424,-1.9424,-1.9424,-1.9424,-1.9424,-1.9424,-1.9424,-1.9424,-1.9424,-1.9424,-1.9424,-1.9185,0.0,0.0,0.0,0.0,0.0,0.0,-2.5902,0.0,-2.472,0.0,0.0,0.0,0.0,0.0,0.0,0.0,-2.5518,0.0,0.0,0.0,-2.5391,0.0,0.0,0.0,-2.5947,-2.6396,-2.6728,-2.6914,-2.7148,-2.7471,-2.791,-2.793,-2.8047,-2.8281,-2.8291,-2.8291,-2.8291,-2.8291,-2.8291,-2.8291,-2.8291,-2.8291,-2.8291,-2.8291,-2.8291,-2.8291,-2.8291,-2.8291,-2.8291,-2.8291,-2.8291,-2.8291,-2.8291,-2.8291,-2.8291,-2.8291,-2.8291,-2.8291,-2.8291,-2.8291,-2.8291,-2.8291,-2.8291,-2.8291,-2.8291,-2.7789,-2.7241,-2.7241,-2.6082,-2.4808,-2.4642,-2.3023,-2.1395,-2.1231,-2.027,-1.9424,-1.9424,-1.9424,-1.9424,-1.9424,-1.9424,-1.9424,-1.9424,-1.9424,-1.9424,-1.9424,-1.9424,-1.9424,-1.9424,-1.9424,-1.9424,-1.9424,-1.9424,-1.9424,-1.9424,-1.9424,-1.9424,-1.9424,-1.9424,-1.9424,-1.9424,-1.9424,-1.9424,-1.9424,-1.9424,-1.9424,-1.9424,-1.9424,-1.9424,-1.9424,-1.9424,-1.9243,-2.6805,0.0,0.0,0.0,0.0,0.0,0.0,0.0,0.0,0.0,0.0,0.0,0.0,0.0,0.0,0.0,0.0,-2.5645,0.0,-2.546,0.0,0.0,0.0,0.0,0.0,-2.6025,-2.626,-2.6377,-2.667,-2.709,-2.7689,-2.7718,-2.7861,-2.8281,-2.8291,-2.8291,-2.8291,-2.8291,-2.8291,-2.8291,-2.8291,-2.8291,-2.8291,-2.8291,-2.8291,-2.8291,-2.8291,-2.8291,-2.8291,-2.8291,-2.8291,-2.8291,-2.8291,-2.8291,-2.8291,-2.8291,-2.8291,-2.8291,-2.8291,-2.8291,-2.8291,-2.8291,-2.8291,-2.8237,-2.7906,-2.7187,-2.6409,-2.6073,-2.4918,-2.376,-2.348,-2.224,-2.1052,-2.078,-2.0046,-1.9424,-1.9424,-1.9424,-1.9424,-1.9424,-1.9424,-1.9424,-1.9424,-1.9424,-1.9424,-1.9424,-1.9424,-1.9424,-1.9424,-1.9424,-1.9424,-1.9424,-1.9424,-1.9424,-1.9424,-1.9424,-1.9424,-1.9424,-1.9424,-1.9424,-1.9424,-1.9424,-1.9424,-1.9424,-1.9424,-1.9424,-1.9424,-1.9424,-1.9424,-1.9424,-1.9424,-1.9243,0.0,0.0,0.0,-2.5777,0.0,0.0,0.0,0.0,-2.3144,0.0,0.0,0.0,0.0,0.0,0.0,0.0,0.0,0.0,0.0,0.0,0.0,0.0,0.0,0.0,0.0,-2.5703,-2.5937,-2.6357,-2.6396,-2.6777,-2.7669,-2.7718,-2.7861,-2.8281,-2.8291,-2.8291,-2.8291,-2.8291,-2.8291,-2.8291,-2.8291,-2.8291,-2.8291,-2.8291,-2.8291,-2.8291,-2.8291,-2.8291,-2.8291,-2.8291,-2.8291,-2.8291,-2.8291,-2.8291,-2.8291,-2.8291,-2.8291,-2.8291,-2.8291,-2.8291,-2.8291,-2.8291,-2.8291,-2.8067,-2.6907,-2.6527,-2.6245,-2.5067,-2.3679,-2.2523,-2.2248,-2.1002,-1.9815,-1.954,-1.9424,-1.9424,-1.9424,-1.9424,-1.9424,-1.9424,-1.9424,-1.9424,-1.9424,-1.9424,-1.9424,-1.9424,-1.9424,-1.9424,-1.9424,-1.9424,-1.9424,-1.9424,-1.9424,-1.9424,-1.9424,-1.9424,-1.9424,-1.9424,-1.9424,-1.9424,-1.9424,-1.9424,-1.9424,-1.9424,-1.9424,-1.9424,-1.9424,-1.9424,-1.9424,-1.9424,-1.9424,-1.9366,0.0,0.0,-2.4016,-2.4016,0.0,0.0,0.0,0.0,0.0,0.0,0.0,0.0,0.0,0.0,0.0,0.0,0.0,0.0,0.0,0.0,0.0,0.0,0.0,0.0,0.0,0.0,-2.5752,-2.5947,-2.5957,-2.6211,-2.6787,-2.709,-2.7432,-2.7861,-2.8144,-2.8291,-2.8291,-2.8291,-2.8291,-2.8291,-2.8291,-2.8291,-2.8291,-2.8291,-2.8291,-2.8291,-2.8291,-2.8291,-2.8291,-2.8291,-2.8291,-2.8291,-2.8291,-2.8291,-2.8291,-2.8291,-2.8291,-2.8291,-2.8291,-2.8291,-2.8291,-2.8291,-2.7736,-2.7015,-2.6636,-2.5415,-2.4086,-2.3687,-2.2644,-2.1531,-2.1067,-2.05,-1.9989,-1.954,-1.9424,-1.9424,-1.9424,-1.9424,-1.9424,-1.9424,-1.9424,-1.9424,-1.9424,-1.9424,-1.9424,-1.9424,-1.9424,-1.9424,-1.9424,-1.9424,-1.9424,-1.9424,-1.9424,-1.9424,-1.9424,-1.9424,-1.9424,-1.9424,-1.9424,-1.9424,-1.9424,-1.9424,-1.9424,-1.9424,-1.9424,-1.9424,-1.9424,-1.9424,-1.9424,-1.9424,-1.9424,-1.9301,-2.3983,-2.356,0.0,-2.3091,-2.3091,0.0,-2.3091,0.0,-2.3091,0.0,0.0,0.0,0.0,0.0,0.0,0.0,0.0,0.0,0.0,-2.5693,0.0,0.0,0.0,0.0,0.0,-2.5693,-2.5693,-2.5693,-2.5693,-2.5879,-2.6367,-2.665,-2.706,-2.7699,-2.793,-2.8144,-2.8291,-2.8291,-2.8291,-2.8291,-2.8291,-2.8291,-2.8291,-2.8291,-2.8291,-2.8291,-2.8291,-2.8291,-2.8291,-2.8291,-2.8291,-2.8291,-2.8291,-2.8291,-2.8291,-2.8291,-2.8291,-2.8237,-2.7799,-2.7682,-2.7574,-2.7178,-2.6509,-2.579,-2.536,-2.4197,-2.2902,-2.2334,-2.1726,-2.101,-2.0309,-2.0193,-2.0162,-1.954,-1.9424,-1.9424,-1.9424,-1.9424,-1.9424,-1.9424,-1.9424,-1.9424,-1.9424,-1.9424,-1.9424,-1.9424,-1.9424,-1.9424,-1.9424,-1.9424,-1.9424,-1.9424,-1.9424,-1.9424,-1.9424,-1.9424,-1.9424,-1.9424,-1.9424,-1.9424,-1.9424,-1.9424,-1.9424,-1.9424,-1.9424,-1.9424,-1.9424,-1.9424,-1.9424,-1.9424,-1.9424,-1.9185]},{"header":{"parameterUnit":"m.s-1","parameterCategory":1,"la1":30.6,"la2":29.2853,"lo1":-89.7004,"lo2":-87.6739,"dy":0.0162,"dx":0.0183,"nx":112,"ny":82,"refTime":"2023-08-31T06:00:00:Z","depth":0,"parameterNumber":3,"parameterNumberName":"V-component_of_WINDS"},"data":[0.0,0.0,0.0,0.0,0.0,0.0,0.0,0.0,0.0,0.0,0.0,0.0,0.0,0.0,0.0,0.0,0.0,0.0,0.0,0.0,0.0,0.0,0.0,0.0,0.0,0.0,0.0,0.0,0.0,0.0,0.0,0.0,0.0,0.0,0.0,0.0,0.0,0.0,0.0,0.0,0.0,0.0,0.0,0.0,0.0,0.0,0.0,0.0,0.0,0.0,0.0,0.0,0.0,0.0,0.0,0.0,0.0,0.0,0.0,0.0,0.0,0.0,0.0,0.0,0.0,0.0,0.0,0.0,0.0,0.0,0.0,0.0,0.0,0.0,0.0,0.0,0.0,0.0,0.0,0.0,0.0,0.0,0.0,0.0,0.0,0.0,0.0,0.0,0.0,0.0,2.2449,2.2066,2.1871,2.1801,2.1883,2.1758,2.173,2.1911,0.0,0.0,0.0,0.0,0.0,0.0,0.0,0.0,0.0,0.0,0.0,0.0,0.0,0.0,0.0,0.0,0.0,0.0,0.0,0.0,0.0,0.0,0.0,0.0,0.0,0.0,0.0,0.0,0.0,0.0,0.0,0.0,0.0,0.0,0.0,0.0,0.0,0.0,0.0,0.0,0.0,0.0,0.0,0.0,0.0,0.0,0.0,0.0,0.0,0.0,0.0,0.0,0.0,0.0,0.0,0.0,0.0,0.0,0.0,0.0,0.0,0.0,0.0,0.0,0.0,0.0,0.0,0.0,0.0,0.0,0.0,0.0,0.0,0.0,0.0,0.0,0.0,0.0,0.0,0.0,0.0,0.0,0.0,0.0,0.0,0.0,0.0,0.0,0.0,0.0,0.0,0.0,0.0,0.0,0.0,0.0,0.0,0.0,0.0,0.0,0.0,0.0,0.0,0.0,2.306,2.2987,2.2977,2.2771,2.2428,2.2358,2.2348,2.2387,0.0,0.0,0.0,0.0,0.0,0.0,0.0,0.0,0.0,0.0,0.0,0.0,0.0,0.0,0.0,0.0,0.0,0.0,0.0,0.0,0.0,0.0,0.0,0.0,0.0,0.0,0.0,0.0,0.0,0.0,0.0,0.0,0.0,0.0,0.0,0.0,0.0,0.0,0.0,0.0,0.0,0.0,0.0,0.0,0.0,0.0,0.0,0.0,0.0,0.0,0.0,0.0,0.0,0.0,0.0,0.0,0.0,0.0,0.0,0.0,0.0,0.0,0.0,0.0,0.0,0.0,0.0,0.0,0.0,0.0,0.0,0.0,0.0,0.0,0.0,0.0,0.0,0.0,0.0,0.0,0.0,0.0,0.0,0.0,0.0,0.0,0.0,0.0,0.0,0.0,0.0,0.0,0.0,0.0,0.0,0.0,0.0,0.0,0.0,0.0,0.0,0.0,0.0,2.4295,2.4104,2.4579,2.4618,2.4519,2.4299,2.4277,2.4082,2.3624,2.3381,0.0,0.0,0.0,0.0,0.0,0.0,0.0,0.0,0.0,0.0,0.0,0.0,0.0,0.0,0.0,0.0,0.0,0.0,0.0,0.0,0.0,0.0,0.0,0.0,0.0,0.0,0.0,0.0,0.0,0.0,0.0,0.0,0.0,0.0,0.0,0.0,0.0,0.0,0.0,0.0,0.0,0.0,0.0,0.0,0.0,0.0,0.0,0.0,0.0,0.0,0.0,0.0,0.0,0.0,0.0,0.0,0.0,0.0,0.0,0.0,0.0,0.0,0.0,0.0,0.0,0.0,0.0,0.0,0.0,0.0,0.0,0.0,0.0,0.0,0.0,0.0,0.0,0.0,0.0,0.0,0.0,0.0,0.0,0.0,0.0,0.0,0.0,0.0,0.0,0.0,0.0,0.0,0.0,0.0,0.0,0.0,0.0,0.0,0.0,0.0,0.0,0.0,2.5529,2.5599,2.6042,2.612,2.6073,2.5958,2.5947,2.5675,2.4998,2.4662,0.0,0.0,0.0,0.0,0.0,0.0,0.0,0.0,0.0,0.0,0.0,0.0,0.0,0.0,0.0,0.0,0.0,0.0,0.0,0.0,0.0,0.0,0.0,0.0,0.0,0.0,0.0,0.0,0.0,0.0,0.0,0.0,0.0,0.0,0.0,0.0,0.0,0.0,0.0,0.0,0.0,0.0,0.0,0.0,0.0,0.0,0.0,0.0,0.0,0.0,0.0,0.0,0.0,0.0,0.0,0.0,0.0,0.0,0.0,0.0,0.0,0.0,0.0,0.0,0.0,0.0,0.0,0.0,0.0,0.0,0.0,0.0,0.0,0.0,0.0,0.0,0.0,0.0,0.0,0.0,0.0,0.0,0.0,0.0,0.0,0.0,0.0,0.0,0.0,0.0,0.0,0.0,0.0,0.0,0.0,0.0,0.0,0.0,0.0,0.0,0.0,0.0,2.7716,2.7905,2.7088,2.7007,2.6864,2.6484,2.6438,2.6398,2.6358,2.5206,0.0,0.0,0.0,0.0,0.0,0.0,0.0,0.0,0.0,0.0,0.0,0.0,0.0,0.0,0.0,0.0,0.0,0.0,0.0,0.0,0.0,0.0,0.0,0.0,0.0,0.0,0.0,0.0,0.0,0.0,0.0,0.0,0.0,0.0,0.0,0.0,0.0,0.0,0.0,0.0,0.0,0.0,0.0,0.0,0.0,0.0,0.0,0.0,0.0,0.0,0.0,0.0,0.0,0.0,0.0,0.0,0.0,0.0,0.0,0.0,0.0,0.0,0.0,0.0,0.0,0.0,0.0,0.0,0.0,0.0,0.0,0.0,0.0,0.0,0.0,0.0,0.0,0.0,0.0,0.0,0.0,0.0,0.0,0.0,0.0,0.0,0.0,0.0,0.0,0.0,0.0,0.0,0.0,0.0,0.0,0.0,0.0,0.0,0.0,0.0,0.0,0.0,2.8303,2.8581,0.0,2.8803,2.8718,2.8563,2.8551,2.8343,2.7767,0.0,0.0,0.0,0.0,0.0,0.0,0.0,0.0,0.0,0.0,0.0,0.0,0.0,0.0,0.0,0.0,0.0,0.0,0.0,0.0,0.0,0.0,0.0,0.0,0.0,0.0,0.0,0.0,0.0,0.0,0.0,0.0,0.0,0.0,0.0,0.0,0.0,0.0,0.0,0.0,0.0,0.0,0.0,0.0,0.0,0.0,0.0,0.0,0.0,0.0,0.0,0.0,0.0,0.0,0.0,0.0,0.0,0.0,0.0,0.0,0.0,0.0,0.0,0.0,0.0,0.0,0.0,0.0,0.0,0.0,0.0,0.0,0.0,0.0,0.0,0.0,0.0,0.0,0.0,0.0,0.0,0.0,0.0,0.0,0.0,0.0,0.0,0.0,0.0,0.0,0.0,0.0,0.0,0.0,0.0,0.0,0.0,0.0,0.0,0.0,0.0,0.0,2.8831,2.891,2.9131,0.0,2.9792,2.9792,2.9792,2.9792,2.9546,2.8961,0.0,0.0,0.0,0.0,0.0,0.0,0.0,0.0,0.0,0.0,0.0,0.0,0.0,0.0,0.0,0.0,0.0,0.0,0.0,0.0,0.0,0.0,0.0,0.0,0.0,0.0,0.0,0.0,0.0,0.0,0.0,0.0,0.0,0.0,0.0,0.0,0.0,0.0,0.0,0.0,0.0,0.0,0.0,0.0,0.0,0.0,0.0,0.0,0.0,0.0,0.0,0.0,0.0,0.0,0.0,0.0,0.0,0.0,0.0,0.0,0.0,0.0,0.0,0.0,0.0,0.0,0.0,0.0,0.0,0.0,0.0,0.0,0.0,0.0,0.0,0.0,0.0,0.0,0.0,0.0,0.0,0.0,0.0,0.0,0.0,0.0,0.0,0.0,0.0,0.0,0.0,0.0,0.0,0.0,0.0,0.0,0.0,0.0,0.0,0.0,0.0,0.0,2.9792,2.9792,2.9792,2.9792,2.9792,2.9792,2.9792,2.9792,2.9792,0.0,0.0,0.0,0.0,0.0,0.0,0.0,0.0,0.0,0.0,0.0,0.0,0.0,0.0,0.0,0.0,0.0,0.0,0.0,0.0,0.0,0.0,0.0,0.0,0.0,0.0,0.0,0.0,0.0,0.0,0.0,0.0,0.0,0.0,0.0,0.0,0.0,0.0,0.0,0.0,0.0,0.0,0.0,0.0,0.0,0.0,0.0,0.0,0.0,0.0,0.0,0.0,0.0,0.0,0.0,0.0,0.0,0.0,0.0,0.0,0.0,0.0,0.0,0.0,0.0,0.0,0.0,0.0,0.0,0.0,0.0,0.0,0.0,0.0,0.0,0.0,0.0,0.0,0.0,0.0,0.0,0.0,0.0,0.0,0.0,0.0,0.0,0.0,0.0,0.0,0.0,0.0,0.0,0.0,0.0,0.0,0.0,0.0,0.0,0.0,0.0,0.0,0.0,2.9792,2.9792,2.9792,2.9792,2.9792,2.9792,2.9792,2.9792,2.9792,2.9792,0.0,0.0,0.0,0.0,0.0,0.0,0.0,0.0,0.0,0.0,0.0,0.0,0.0,0.0,0.0,0.0,0.0,0.0,0.0,0.0,0.0,0.0,0.0,0.0,0.0,0.0,0.0,0.0,0.0,0.0,0.0,0.0,0.0,0.0,0.0,0.0,0.0,0.0,0.0,0.0,0.0,0.0,0.0,0.0,0.0,0.0,0.0,0.0,0.0,0.0,0.0,0.0,0.0,0.0,0.0,0.0,0.0,0.0,0.0,0.0,0.0,0.0,0.0,0.0,0.0,0.0,0.0,0.0,0.0,0.0,0.0,0.0,0.0,0.0,0.0,0.0,0.0,0.0,0.0,0.0,0.0,0.0,0.0,0.0,0.0,0.0,0.0,0.0,0.0,0.0,0.0,0.0,0.0,0.0,0.0,0.0,0.0,0.0,0.0,0.0,0.0,0.0,2.9934,2.9972,3.0049,3.0049,2.9972,2.9934,3.0049,2.9972,2.9934,3.0049,0.0,0.0,0.0,0.0,0.0,0.0,0.0,0.0,0.0,0.0,0.0,0.0,0.0,0.0,0.0,0.0,0.0,0.0,0.0,0.0,0.0,0.0,0.0,0.0,0.0,0.0,0.0,0.0,0.0,0.0,0.0,0.0,0.0,0.0,0.0,0.0,0.0,0.0,0.0,0.0,0.0,0.0,0.0,0.0,0.0,0.0,0.0,0.0,0.0,0.0,0.0,0.0,0.0,0.0,0.0,0.0,0.0,0.0,0.0,0.0,0.0,0.0,0.0,0.0,0.0,0.0,0.0,0.0,0.0,0.0,0.0,0.0,0.0,0.0,0.0,0.0,0.0,0.0,0.0,0.0,0.0,0.0,0.0,0.0,0.0,0.0,0.0,0.0,0.0,0.0,0.0,0.0,0.0,0.0,0.0,0.0,0.0,0.0,0.0,0.0,0.0,0.0,3.0228,3.0432,3.0608,3.0608,3.0432,3.0394,3.057,3.0432,3.0394,3.057,0.0,0.0,0.0,0.0,0.0,0.0,0.0,0.0,0.0,0.0,0.0,0.0,0.0,0.0,0.0,0.0,0.0,0.0,0.0,0.0,0.0,0.0,0.0,0.0,0.0,0.0,0.0,0.0,0.0,0.0,0.0,0.0,0.0,0.0,0.0,0.0,0.0,0.0,0.0,0.0,0.0,0.0,0.0,0.0,0.0,0.0,0.0,0.0,0.0,0.0,0.0,0.0,0.0,0.0,0.0,0.0,0.0,0.0,0.0,0.0,3.6674,0.0,0.0,0.0,0.0,0.0,0.0,0.0,0.0,0.0,0.0,0.0,0.0,0.0,0.0,0.0,0.0,0.0,0.0,0.0,0.0,0.0,0.0,0.0,0.0,0.0,0.0,0.0,0.0,0.0,0.0,0.0,0.0,0.0,0.0,0.0,0.0,0.0,0.0,0.0,0.0,0.0,3.1182,3.1746,3.2141,3.2141,3.2083,3.2083,3.2141,3.2083,3.2083,3.2141,3.2083,0.0,0.0,0.0,0.0,0.0,0.0,0.0,0.0,0.0,0.0,0.0,0.0,0.0,0.0,0.0,0.0,0.0,0.0,0.0,0.0,0.0,0.0,0.0,0.0,0.0,0.0,0.0,0.0,0.0,0.0,0.0,0.0,0.0,0.0,0.0,0.0,0.0,0.0,0.0,0.0,0.0,0.0,0.0,0.0,0.0,0.0,0.0,0.0,0.0,0.0,0.0,0.0,0.0,0.0,0.0,0.0,0.0,0.0,0.0,0.0,3.7377,0.0,0.0,0.0,0.0,0.0,0.0,0.0,0.0,0.0,0.0,0.0,0.0,0.0,0.0,0.0,0.0,0.0,0.0,0.0,0.0,0.0,0.0,0.0,0.0,0.0,0.0,0.0,0.0,0.0,0.0,0.0,0.0,0.0,0.0,0.0,0.0,0.0,0.0,0.0,0.0,3.2132,3.2585,3.2869,3.2869,3.2784,3.2784,3.2869,3.2784,3.2784,3.2869,3.2784,0.0,0.0,0.0,0.0,0.0,0.0,0.0,0.0,0.0,0.0,0.0,0.0,0.0,0.0,0.0,0.0,0.0,0.0,0.0,0.0,0.0,0.0,0.0,0.0,0.0,0.0,0.0,0.0,0.0,0.0,0.0,0.0,0.0,0.0,0.0,0.0,0.0,0.0,0.0,0.0,0.0,0.0,0.0,0.0,0.0,0.0,0.0,0.0,0.0,0.0,0.0,0.0,0.0,3.9388,3.9388,3.9388,3.9388,3.9388,3.9328,3.8242,3.8063,3.8527,3.7988,0.0,0.0,0.0,0.0,0.0,0.0,0.0,0.0,0.0,0.0,0.0,0.0,0.0,0.0,0.0,0.0,0.0,0.0,0.0,0.0,0.0,0.0,0.0,0.0,3.4192,3.4041,3.3276,0.0,0.0,0.0,0.0,0.0,0.0,0.0,0.0,0.0,0.0,0.0,3.3066,3.3408,3.361,3.361,3.3443,3.3408,3.3575,3.3443,3.3408,3.3575,3.3443,3.3276,0.0,0.0,0.0,0.0,0.0,0.0,0.0,0.0,0.0,0.0,0.0,0.0,0.0,0.0,0.0,0.0,0.0,0.0,0.0,0.0,0.0,0.0,0.0,0.0,0.0,0.0,0.0,0.0,0.0,0.0,0.0,0.0,4.2314,4.2522,0.0,0.0,0.0,0.0,0.0,0.0,0.0,0.0,0.0,0.0,0.0,0.0,0.0,3.9388,3.9388,3.9388,3.9388,3.9388,3.9388,3.9388,3.9388,3.9388,3.9388,3.9373,3.9194,0.0,3.9239,3.9149,0.0,0.0,0.0,0.0,0.0,0.0,0.0,0.0,0.0,0.0,0.0,0.0,0.0,0.0,0.0,0.0,0.0,0.0,0.0,0.0,0.0,0.0,3.5294,3.5294,3.5279,3.5279,0.0,3.3788,3.2593,3.2593,3.2536,0.0,0.0,0.0,0.0,0.0,0.0,0.0,3.4095,3.4739,3.518,3.518,3.518,3.518,3.518,3.518,3.518,3.518,3.518,3.4839,3.4129,3.4129,0.0,0.0,0.0,0.0,0.0,0.0,0.0,0.0,0.0,0.0,0.0,0.0,0.0,0.0,0.0,0.0,0.0,0.0,0.0,0.0,0.0,0.0,0.0,0.0,0.0,0.0,0.0,0.0,0.0,4.3208,4.3121,4.3043,4.2496,4.2106,0.0,0.0,0.0,0.0,0.0,0.0,0.0,0.0,0.0,3.9388,3.9388,3.9589,3.9963,3.9963,4.0157,4.0516,4.0516,4.0516,4.0516,4.0516,4.0516,4.0502,4.0127,3.9963,3.9948,3.9574,3.9388,3.9388,0.0,0.0,0.0,0.0,3.9388,3.9388,3.9388,3.8781,3.7898,3.7524,0.0,0.0,0.0,0.0,0.0,0.0,0.0,0.0,0.0,0.0,3.5504,3.5504,3.5504,3.5504,3.5504,3.482,3.424,0.0,3.3856,3.3739,3.4259,0.0,0.0,0.0,0.0,3.4346,3.4905,3.5279,3.5504,3.5504,3.5504,3.5504,3.5504,3.5504,3.5504,3.5504,3.5504,3.5344,3.4986,3.4971,3.4872,0.0,0.0,0.0,0.0,0.0,0.0,0.0,0.0,0.0,0.0,0.0,0.0,0.0,0.0,0.0,0.0,0.0,0.0,0.0,0.0,0.0,0.0,0.0,0.0,0.0,0.0,0.0,0.0,4.338,4.3359,4.2929,4.2649,4.2424,0.0,0.0,0.0,0.0,0.0,0.0,4.1042,4.0242,3.9974,4.0304,4.0102,4.0231,4.071,4.0688,4.0905,4.1422,4.1422,4.1422,4.1422,4.1422,4.1422,4.1354,4.0861,4.0651,4.0591,3.9768,3.9388,3.9388,3.9388,3.9388,3.9388,3.9388,3.9388,3.9388,3.9388,3.896,3.8302,3.7823,3.712,3.6357,3.5699,0.0,0.0,0.0,0.0,3.5504,3.5504,3.5504,3.5504,3.5504,3.5504,3.5504,3.5504,3.5504,3.5504,0.0,3.5019,3.4791,3.5392,0.0,0.0,0.0,0.0,3.4824,3.5424,3.5504,3.5504,3.5504,3.5504,3.5504,3.5504,3.5504,3.5504,3.5504,3.5504,3.5504,3.5504,3.5522,3.5589,3.5688,0.0,0.0,0.0,0.0,0.0,0.0,0.0,0.0,0.0,0.0,0.0,0.0,0.0,0.0,0.0,0.0,0.0,0.0,0.0,0.0,0.0,0.0,0.0,0.0,0.0,0.0,0.0,0.0,0.0,4.1874,4.1866,0.0,0.0,0.0,0.0,4.1104,4.1013,4.1271,4.1908,4.128,4.1513,4.2796,4.2032,4.1618,4.161,4.1438,4.1392,4.1422,4.1422,4.1422,4.1422,4.1422,4.1422,4.1422,4.1339,4.1324,4.1235,3.9948,3.9388,3.9388,3.9388,3.9388,3.9388,3.9388,3.9388,3.9388,3.9388,3.896,3.8377,3.8347,3.7494,3.6357,3.5699,3.5504,0.0,0.0,3.5504,3.5504,3.5504,3.5504,3.5504,3.5504,3.5504,3.5504,3.5504,3.5504,3.5504,0.0,3.5472,3.5457,3.5504,0.0,3.5407,3.5504,3.5472,3.5457,3.5504,3.5504,3.5504,3.5504,3.5504,3.5504,3.5504,3.5504,3.5504,3.5504,3.5504,3.5504,3.5504,3.5621,3.5688,3.5688,3.5894,0.0,0.0,0.0,0.0,0.0,0.0,0.0,0.0,0.0,0.0,0.0,0.0,0.0,0.0,0.0,0.0,0.0,0.0,0.0,0.0,0.0,0.0,0.0,0.0,0.0,0.0,0.0,0.0,4.191,4.2028,0.0,4.1925,4.2438,4.2702,4.2511,4.2496,4.2565,4.2831,4.2073,4.1847,4.2355,4.2068,4.2107,4.2546,4.2486,4.2659,4.3082,4.2928,4.2904,4.2851,4.268,4.2626,4.2611,4.2192,4.2051,4.1976,4.1055,4.0427,4.0008,3.9589,3.9388,3.9388,3.9388,3.9388,3.9388,3.9388,3.926,3.8975,3.8697,3.7912,3.7064,3.6955,3.6847,3.6731,3.6731,3.6731,3.6731,3.6731,3.6432,3.6133,3.6133,3.5804,3.5522,3.5621,3.5554,3.5537,3.5621,3.5554,3.5504,3.5504,3.5504,3.5504,3.5504,3.5504,3.5504,3.5504,3.5504,3.5504,3.5504,3.5504,3.5504,3.5504,3.5504,3.5504,3.5504,3.5572,3.5621,3.5621,3.5814,3.5926,3.6006,3.6085,3.6179,0.0,0.0,0.0,0.0,0.0,0.0,0.0,0.0,0.0,0.0,0.0,0.0,0.0,0.0,0.0,0.0,0.0,0.0,0.0,0.0,0.0,0.0,0.0,0.0,0.0,0.0,4.2637,4.231,4.2563,4.2652,4.2482,4.3013,4.3293,4.3079,4.3063,4.3262,4.3707,4.2982,4.2755,4.3213,4.2924,4.2993,4.3434,4.3358,4.3547,4.3988,4.3871,4.3808,4.3808,4.3621,4.3542,4.3512,4.3115,4.2896,4.2773,4.2113,4.1535,4.098,4.0156,3.9655,3.9424,3.9496,3.9445,3.9424,3.9496,3.9568,3.952,3.8983,3.842,3.791,3.7835,3.7692,3.7609,3.7609,3.7609,3.7609,3.7609,3.7308,3.7007,3.7007,3.6661,3.6378,3.6479,3.6429,3.6378,3.6464,3.5937,3.5504,3.5554,3.5587,3.5647,3.5854,3.5769,3.5709,3.5804,3.5737,3.5619,3.5504,3.5587,3.5651,3.5572,3.5749,3.5827,3.5666,3.5896,3.5961,3.5799,3.5958,3.6116,3.6196,3.6274,3.6569,3.7118,0.0,0.0,0.0,0.0,0.0,0.0,0.0,0.0,0.0,0.0,0.0,0.0,0.0,0.0,0.0,0.0,0.0,0.0,0.0,0.0,0.0,0.0,0.0,4.3348,4.3444,4.3414,4.3023,4.3354,4.3534,4.331,4.3528,4.3408,4.2756,4.2694,4.3264,4.4579,4.4009,4.424,4.5511,4.4734,4.432,4.432,4.4104,4.4026,4.4026,4.4026,4.4026,4.4026,4.3988,4.3988,4.3988,4.3988,4.3871,4.3684,4.2997,4.2634,4.2314,4.1181,4.022,3.9484,3.9685,3.9634,3.949,3.9691,3.9854,3.9889,3.9241,3.9028,3.8907,3.8253,3.8071,3.8056,3.8056,3.8056,3.8056,3.8056,3.8041,3.8026,3.8026,3.801,3.7995,3.7995,3.7995,3.7995,3.7995,3.6682,3.5614,3.5763,3.578,3.5974,3.6652,3.6362,0.0,3.6499,3.625,3.5953,3.5629,3.5857,3.5987,3.578,3.6398,3.6569,3.6128,3.6529,3.6589,3.6129,3.6195,3.6227,3.6227,3.6445,3.7133,3.8306,0.0,0.0,0.0,0.0,0.0,0.0,0.0,0.0,0.0,0.0,0.0,0.0,0.0,0.0,0.0,0.0,0.0,0.0,0.0,0.0,0.0,0.0,4.4125,4.3596,4.3171,4.2827,4.2717,4.3242,4.3571,4.3534,4.4464,4.4957,4.4787,4.4772,4.4926,4.5295,4.4702,4.4502,4.4849,4.4641,4.4511,4.4511,4.4458,4.4435,4.4435,4.4281,4.4205,4.4205,4.4065,4.3988,4.3988,4.3988,4.3988,4.3895,4.3713,4.3311,4.2743,4.1806,4.1279,4.1091,4.1276,4.1025,4.058,4.0601,4.037,4.0001,3.9943,3.9847,3.9712,3.9669,3.9573,3.9449,3.9449,3.9449,3.9449,3.9449,3.9104,3.8724,3.8724,3.8345,3.8044,3.8193,3.8111,3.8044,3.8193,3.7722,3.7316,3.7349,3.7382,3.7443,3.7607,3.7537,0.0,3.7588,3.7503,3.7415,3.7331,3.7397,3.7415,3.7382,3.7996,3.8319,3.8197,3.8402,3.8423,3.8277,3.7504,3.7072,3.7072,3.7562,3.7982,0.0,0.0,0.0,0.0,0.0,0.0,0.0,0.0,0.0,0.0,0.0,0.0,0.0,0.0,0.0,0.0,0.0,0.0,0.0,0.0,0.0,0.0,4.461,4.4471,4.4086,4.3664,4.3541,4.3818,4.4187,4.4456,4.4456,4.5126,4.5464,4.5187,4.5157,4.5157,4.5157,4.4825,4.461,4.461,4.461,4.461,4.461,4.461,4.461,4.461,4.4473,4.4435,4.4435,4.432,4.4243,4.4243,4.4243,4.4205,4.4143,4.4143,4.3876,0.0,0.0,0.0,0.0,0.0,4.1815,4.1553,4.1553,4.1346,4.1097,4.124,4.0969,4.0669,4.081,4.0541,4.0207,4.0207,4.0207,4.0207,4.0207,3.9936,3.9616,3.9616,3.9325,3.9084,3.9201,3.9118,3.9084,3.9201,3.9118,0.0,3.9051,3.8544,3.8302,3.8849,3.8762,3.8783,3.9209,3.9137,3.8997,3.8854,3.8965,3.9029,3.8981,3.955,0.0,0.0,0.0,3.9944,3.968,3.8755,0.0,0.0,0.0,3.8546,3.9038,0.0,0.0,0.0,3.7911,3.7268,0.0,0.0,0.0,0.0,0.0,0.0,0.0,0.0,0.0,0.0,0.0,0.0,0.0,0.0,0.0,0.0,4.461,4.461,4.461,4.461,4.4803,4.5403,4.548,4.548,4.548,4.548,4.5218,4.4618,4.461,4.461,4.461,0.0,0.0,0.0,0.0,4.461,4.461,4.461,4.461,4.461,4.461,4.461,4.461,4.461,4.461,4.461,4.461,4.4511,4.432,4.432,4.4243,4.4028,4.3586,4.2953,4.2286,4.2286,4.2352,4.246,4.246,0.0,0.0,4.2602,4.2202,4.1709,4.1709,4.1278,4.0705,4.0643,4.0612,4.0597,4.052,4.0489,4.0489,4.0489,4.0558,4.0612,4.0612,4.0681,4.0715,4.0715,4.0715,4.0715,4.0715,3.949,3.8956,4.0159,3.9992,4.0087,4.1052,4.0893,4.0626,4.0307,0.0,0.0,4.0552,4.1118,4.129,4.0853,4.1235,4.1188,4.0639,4.0049,3.9935,4.0409,3.9242,3.9154,4.0231,3.963,3.9604,4.0087,3.8399,3.7329,0.0,0.0,0.0,0.0,0.0,0.0,0.0,0.0,0.0,0.0,0.0,0.0,0.0,0.0,0.0,4.461,4.461,4.461,4.461,4.461,4.4671,4.4795,4.481,4.481,4.481,4.481,4.4764,4.4625,4.461,4.461,4.461,4.461,4.461,4.461,4.461,4.461,4.461,4.461,4.461,4.461,0.0,0.0,4.461,4.461,4.461,4.461,4.461,4.4587,4.4549,4.4549,4.4511,4.4458,4.422,4.4121,4.4089,4.4089,4.3774,4.3334,4.3334,4.2996,4.2602,4.2602,4.2525,4.2417,4.2417,4.2309,0.0,4.154,4.1401,4.1263,4.0643,4.0489,4.0489,4.0489,4.0904,4.1309,4.1309,4.1739,4.2109,4.2109,4.2109,4.2109,4.2109,4.099,4.0325,4.114,4.1177,4.1389,4.2106,4.2149,4.2099,4.2037,4.2068,4.2099,4.2085,4.2689,4.3023,4.2921,4.2944,4.245,4.1262,4.1577,4.1565,4.1172,4.0819,4.0759,4.0984,4.0381,4.0149,4.024,3.9292,3.8916,0.0,0.0,0.0,0.0,0.0,0.0,0.0,0.0,0.0,0.0,0.0,4.461,0.0,0.0,4.461,4.461,4.461,4.461,4.461,4.461,4.461,4.461,4.461,4.461,4.461,4.461,4.461,4.461,4.461,4.461,4.461,4.461,4.461,4.461,4.461,4.461,4.461,4.461,4.461,4.461,4.461,4.461,4.461,4.461,4.461,4.461,4.461,4.461,4.461,4.461,4.461,4.4572,4.4511,4.4511,4.461,4.461,4.4409,4.4117,4.4117,4.3864,4.3587,4.3587,4.3356,4.3152,4.3536,4.343,4.3142,4.3197,4.3205,4.3126,4.2746,4.2651,4.2651,4.2651,4.2919,4.3038,4.267,4.288,4.2989,4.2585,4.252,4.252,4.252,4.1949,4.1739,4.2395,4.252,4.2754,4.3456,4.3545,4.3545,4.3545,4.3545,4.3545,4.3545,4.3856,4.4047,4.4047,4.4013,4.3715,4.3032,4.2911,4.2709,4.2417,4.1984,4.1798,4.185,4.1553,4.1456,4.1526,4.1172,4.07,0.0,0.0,0.0,0.0,0.0,0.0,0.0,0.0,4.6811,4.6811,4.564,4.461,4.461,4.461,4.461,4.461,4.461,4.461,4.461,4.461,4.461,4.461,4.461,4.461,4.461,4.461,4.461,4.461,4.461,4.461,4.461,4.461,4.461,4.461,4.461,4.461,4.461,4.461,4.461,4.461,4.461,4.461,4.461,4.461,4.461,4.461,4.461,4.461,4.461,4.461,4.461,4.461,4.461,4.461,4.461,4.461,4.461,4.461,4.461,4.4685,4.4783,4.4648,4.4427,4.4315,4.4768,4.4621,4.4405,4.4867,4.5,4.4967,4.4837,4.4805,4.4805,4.4805,4.4903,4.4821,4.4251,4.4215,4.4098,4.3462,4.3203,4.3105,4.3105,4.299,4.3045,4.3453,4.3512,4.3781,4.4514,4.4615,4.4615,4.4615,4.4615,4.4615,4.4615,4.4615,4.4615,4.4615,4.4615,4.4615,4.4615,4.3978,4.3639,4.3639,4.2922,4.263,4.2745,4.2771,4.2867,4.3013,4.3202,4.2517,4.9001,4.9001,4.9001,4.9001,4.9001,4.9001,0.0,0.0,4.6811,4.6811,4.564,4.461,4.461,4.461,4.461,4.461,4.461,4.461,4.461,4.461,4.461,4.461,4.461,4.461,4.461,4.461,4.461,4.461,4.461,4.461,4.461,4.461,4.461,4.461,4.461,4.461,4.461,4.461,4.461,4.461,4.461,4.461,4.461,4.461,4.461,4.461,4.461,4.461,4.461,4.461,4.461,4.461,4.461,4.461,4.461,4.461,4.461,4.461,4.461,4.503,4.5458,4.4821,4.5447,4.6352,4.575,4.5971,4.6352,4.5807,4.5679,4.5567,4.4951,4.4805,4.4805,4.4805,4.5258,4.5653,4.557,4.6049,4.6439,4.6325,4.5786,4.5349,4.5349,4.4793,4.4179,4.3571,4.3512,4.3781,4.4514,4.4615,4.4615,4.4615,4.4615,4.4615,4.4615,4.4615,4.4615,4.4615,4.4615,4.4615,4.4615,4.4513,4.4479,4.4479,4.3861,4.3552,4.3552,4.3685,4.3748,4.3809,4.4565,4.4194,4.9001,4.9001,0.0,0.0,4.9001,4.8892,4.845,4.7556,4.6673,4.6253,4.5311,4.461,4.461,4.461,4.461,0.0,4.461,4.461,4.461,4.461,4.461,4.461,4.461,4.461,4.461,4.461,4.461,4.461,4.461,4.461,4.461,4.461,4.461,4.461,4.461,4.461,4.461,4.461,4.461,4.461,4.461,4.461,4.461,4.461,4.461,4.461,4.461,4.461,4.461,4.461,4.461,4.461,4.461,4.461,4.461,4.461,4.461,4.461,4.461,4.5067,4.566,4.5348,4.5949,4.6811,4.6932,4.7204,4.7457,4.7602,4.7664,4.7597,4.7313,4.723,4.723,4.723,4.7467,4.7522,4.7102,4.7248,4.731,4.687,4.6549,4.6346,4.6346,4.6075,4.5616,4.4884,4.4418,4.4236,4.457,4.4615,4.4615,4.4615,4.4615,4.4615,4.4615,4.4615,4.4615,4.4615,4.4615,4.4615,4.4615,4.4615,4.4626,4.4709,4.4487,4.4426,4.457,4.4624,4.4704,4.4774,4.5136,4.5005,4.9001,0.0,0.0,4.9001,4.9001,4.8798,4.8064,4.7322,4.6604,4.5841,4.5104,4.461,4.461,4.461,4.461,4.461,4.461,4.461,4.461,4.461,4.461,4.461,4.461,4.461,4.461,4.461,4.461,4.461,4.461,4.461,4.461,4.461,4.461,4.461,4.461,4.461,4.461,4.461,4.461,4.461,4.461,4.461,4.461,4.461,4.461,4.461,4.461,4.461,4.461,4.461,4.461,4.461,4.461,4.461,4.461,4.461,4.461,4.461,4.461,4.5216,4.5985,4.5769,4.6464,4.7456,4.7787,4.8047,4.8306,4.8861,4.9001,4.9001,4.9001,4.9001,4.9001,4.9001,4.9001,4.8849,4.8342,4.8193,4.8054,4.7513,4.7242,4.7107,4.7107,4.6921,4.6616,4.6075,4.5534,4.5072,4.4649,4.4615,4.4615,4.4615,4.4615,4.4615,4.4615,4.4615,4.4615,4.4615,4.4615,4.4615,4.4615,4.4626,4.4709,4.4803,4.4886,4.5005,4.5203,4.5247,4.53,4.5397,4.5397,4.5397,4.9001,4.9001,4.9001,4.9001,4.9001,4.8798,4.8064,4.7322,4.6604,4.5841,4.5104,4.461,4.461,4.461,4.461,4.461,4.461,4.461,4.461,4.461,4.461,4.461,4.461,4.461,0.0,4.461,4.461,4.461,4.461,4.461,4.461,4.461,4.461,4.461,4.461,4.461,4.461,4.461,4.461,4.461,4.461,4.461,4.461,4.461,4.461,4.461,4.461,4.461,4.461,4.461,4.461,4.461,4.461,4.461,4.461,4.461,4.461,4.461,4.461,4.5567,4.6638,4.5933,4.7187,4.8798,4.8096,4.8401,4.897,4.9001,4.9001,4.9001,4.9001,4.9001,4.9001,4.9001,4.9001,4.9001,4.8968,4.8968,4.8968,4.8934,4.8376,4.7855,4.7855,4.7276,4.6786,4.6752,4.6735,4.621,4.4784,4.4615,4.4615,4.4615,4.4615,4.4615,4.4615,4.4615,4.4615,4.4615,4.4615,4.4615,4.4615,4.472,4.482,4.4803,4.5059,4.5177,4.5203,4.5327,4.5397,4.5397,4.5397,4.5397,4.9107,4.9063,4.9001,4.9001,4.9001,4.8688,4.7456,4.6983,4.6464,4.52,4.4746,4.461,4.461,4.461,4.461,4.461,4.461,4.461,4.461,4.461,4.461,4.461,4.461,0.0,0.0,0.0,0.0,4.461,4.461,4.4772,4.5218,4.5249,4.5449,4.5895,4.548,4.5249,4.5249,4.4803,4.461,4.461,4.461,4.461,4.461,4.461,4.461,4.461,4.461,4.461,4.461,4.461,4.461,4.461,4.461,4.461,4.461,4.461,4.461,4.461,4.461,4.5253,4.6111,4.6359,4.7238,4.8306,4.8545,4.8798,4.9001,4.9001,4.9001,4.9001,4.9001,4.9001,4.9001,4.9001,4.9001,4.9001,4.9001,4.9001,4.9001,4.9001,4.8798,4.8646,4.8646,4.8426,4.8088,4.7614,4.7107,4.6616,4.6109,4.6041,4.6041,4.6041,4.6041,4.5855,4.5365,4.5331,4.5111,4.4632,4.4615,4.4626,4.4737,4.4793,4.4886,4.5059,4.515,4.523,4.5327,4.5371,4.5397,4.5397,4.5397,4.5397,4.9124,4.9063,4.9001,4.9001,4.8798,4.8274,4.7085,4.6604,4.604,4.4858,4.461,4.461,4.461,4.461,4.461,4.461,4.461,4.461,4.461,4.461,4.461,4.461,4.461,4.461,0.0,0.0,0.0,4.461,4.4803,4.5126,4.5572,4.5818,4.6142,4.6588,4.6172,4.5834,4.5588,4.5157,4.4856,4.461,4.461,4.461,4.461,4.461,4.461,4.461,4.461,4.461,4.461,4.461,4.461,4.461,4.461,4.461,4.461,4.461,4.4761,4.4971,4.4685,4.5253,4.6182,4.6638,4.7489,4.837,4.8861,4.9001,4.9001,4.9001,4.9001,4.9001,4.9001,4.9001,4.9001,4.9001,4.9001,4.9001,4.9001,4.9001,4.9001,4.9001,4.9001,4.9001,4.9001,4.9001,4.8849,4.8376,4.7902,4.7394,4.6853,4.6786,4.6786,4.6786,4.6786,4.6599,4.6126,4.6092,4.5771,4.5026,4.5032,4.4981,4.482,4.4886,4.5032,4.5194,4.5247,4.53,4.5397,4.5397,4.5397,4.5397,4.5397,4.5397,4.9001,4.9001,4.9001,4.9001,4.8482,4.7787,4.7017,4.6288,4.5567,4.4821,4.461,4.461,0.0,0.0,4.461,4.461,4.461,4.461,4.461,4.461,4.461,0.0,0.0,0.0,0.0,0.0,0.0,4.4671,0.0,4.5618,4.5695,4.6296,4.6665,4.6696,4.6665,4.6326,4.5649,4.5572,4.5218,4.461,4.461,4.461,4.461,4.461,4.461,4.461,4.461,4.461,4.461,4.461,4.461,4.4648,4.461,4.461,4.4648,4.461,4.5067,4.5588,4.4896,4.5588,4.6811,4.6846,4.7803,4.894,4.9001,4.9001,4.9001,4.9001,4.9001,4.9001,4.9001,4.9001,4.9001,4.9001,4.9001,4.9001,4.9001,4.9001,4.9001,4.9001,4.9001,4.9001,4.9001,4.9001,4.9001,4.9001,4.9001,4.8494,4.709,4.6904,4.6904,4.6904,4.6904,4.6887,4.6853,4.6853,4.6532,4.5805,4.5846,4.5592,4.4916,4.5076,4.5203,4.5203,4.5344,4.5397,4.5397,4.5397,4.5397,4.5397,4.5397,4.5397,4.9107,4.9138,4.9124,4.9032,4.8923,4.8654,4.7819,4.7035,4.6324,4.5551,4.4993,4.461,0.0,0.0,0.0,4.461,4.461,0.0,4.461,4.461,0.0,4.461,0.0,4.461,4.461,4.5033,0.0,0.0,4.548,4.6034,4.7034,4.725,4.7573,4.8081,4.7604,4.7019,4.6342,4.5341,4.4756,4.461,4.461,4.461,4.461,4.461,4.461,4.461,4.461,4.461,4.461,4.461,4.4933,4.5348,4.4821,4.4933,4.5348,4.4783,4.5067,4.566,4.5478,4.602,4.688,4.7456,4.7852,4.8274,4.8829,4.9001,4.9001,4.9001,4.9001,4.9001,4.9001,4.9001,4.9001,4.9001,4.9001,4.9001,4.9001,4.9001,4.9001,4.9001,4.9001,4.9001,4.9001,4.9001,4.9001,4.9001,4.9001,4.8866,4.8494,4.8443,4.8443,4.8443,4.8443,4.8223,4.7682,4.7631,4.734,4.6724,4.6175,4.5925,4.5908,4.5459,4.5247,4.5344,4.5371,4.5397,4.5397,4.5397,4.5397,4.5397,4.5397,4.5397,4.9094,4.9107,4.9077,4.9032,4.8576,4.808,4.795,4.7069,4.6182,4.5769,4.5384,0.0,4.4648,4.461,0.0,0.0,0.0,0.0,4.461,4.461,4.461,0.0,4.461,0.0,4.4987,4.5357,4.5834,0.0,4.648,4.6803,4.7573,4.7881,4.8219,4.8604,4.825,4.7588,4.6603,4.5249,4.461,4.461,4.461,4.461,4.461,4.461,4.461,4.461,0.0,4.461,4.461,4.461,4.503,4.566,4.5237,4.5515,4.6111,4.5733,4.604,4.6657,4.6657,4.7153,4.777,4.7852,4.8129,4.845,4.8861,4.9001,4.9001,4.9001,4.9001,4.9001,4.9001,4.9001,4.9001,4.9001,4.9001,4.9001,4.9001,4.9001,4.9001,4.9001,4.9001,4.9001,4.9001,4.9001,4.9001,4.9001,4.9001,4.9001,4.9001,4.9001,4.9001,4.9001,4.9001,4.8863,4.8518,4.8484,4.8222,4.7634,4.7295,4.6862,4.6309,4.5996,4.5688,4.5414,4.5397,4.5397,4.5397,4.5397,4.5397,4.5397,4.5397,4.5397,4.9001,4.9001,4.9032,4.9001,4.8048,4.7288,4.7885,4.6898,4.5861,4.5969,0.0,4.5384,4.4858,4.4685,4.461,4.461,0.0,4.461,4.461,4.461,4.461,4.461,4.461,4.4849,4.5526,4.5664,4.6249,4.7511,4.7696,4.7742,4.7742,4.8296,4.862,4.862,4.8527,4.7881,4.6603,4.5341,4.4702,4.461,4.461,4.461,4.461,4.461,4.461,4.461,4.461,4.461,4.461,4.461,4.5104,4.5841,4.5733,4.6218,4.6949,4.6846,4.7288,4.7885,4.7885,4.837,4.8892,4.8242,4.8482,4.9001,4.9001,4.9001,4.9001,4.9001,4.9001,4.9001,4.9001,4.9001,4.9001,4.9001,4.9001,4.9001,4.9001,4.9001,4.9001,4.9001,4.9001,4.9001,4.9001,4.9001,4.9001,4.9001,4.9001,4.9001,4.9001,4.9001,4.9001,4.9001,4.9001,4.9063,4.9199,4.9199,4.9018,4.8595,4.8574,4.7992,4.6708,4.6601,4.6259,4.5569,4.5449,4.5397,4.5397,4.5397,4.5397,4.5397,4.5397,4.5397,4.9001,4.9094,4.9138,4.9032,4.8875,4.8796,4.8829,4.7671,0.0,0.0,4.606,4.4933,4.5421,4.4993,4.461,4.461,4.461,4.461,4.461,4.461,4.461,0.0,4.461,4.4849,4.5526,4.6095,0.0,0.0,4.8127,4.8435,4.8435,4.8558,4.862,4.862,4.8065,4.7404,4.6603,4.5818,4.5126,4.461,4.461,4.461,4.461,4.461,4.461,4.461,4.461,0.0,4.461,4.461,4.5384,4.6534,4.5949,4.6518,4.7655,4.7017,4.7288,4.7885,4.7885,4.837,4.897,4.8861,4.8909,4.9001,4.9001,4.9001,4.9001,4.9001,4.9001,4.9001,4.9001,4.9001,4.9001,4.9001,4.9001,4.9001,4.9001,4.9001,4.9001,4.9001,4.9001,4.9001,4.9001,4.9001,4.9001,4.9001,4.9001,4.9001,4.9001,4.9001,4.9001,4.9001,4.9001,4.9063,4.9199,4.9199,4.9299,4.946,4.8907,4.8529,4.8368,4.7224,4.6544,4.6379,4.5742,4.5397,4.5397,4.5397,4.5397,4.5397,4.5397,4.5397,4.89,4.9063,4.9094,4.9001,4.875,4.8608,4.894,0.0,0.0,0.0,4.6795,4.606,4.5274,4.5142,0.0,4.4648,4.461,4.461,4.461,4.461,0.0,4.461,0.0,0.0,0.0,4.6203,4.688,4.7558,4.8235,4.862,4.862,4.862,4.862,4.862,4.7958,4.7281,4.6603,4.5926,4.5249,4.461,4.461,4.461,4.461,4.461,4.461,4.461,4.461,4.461,4.461,4.461,4.5458,4.6777,4.6394,4.7187,4.845,4.8081,4.8177,4.8482,4.8482,4.8688,4.9001,4.9001,4.9001,4.9001,4.9001,4.9001,4.9001,4.9001,4.9001,4.9001,4.9001,4.9001,4.9001,4.9001,4.9001,4.9001,4.9001,4.9001,4.9001,4.9001,4.9001,4.9001,4.9001,4.9001,4.9001,4.9001,4.9001,4.9001,4.9001,4.9063,4.9107,4.9107,4.9107,4.9199,4.9441,4.9471,4.956,4.983,4.9516,4.9166,4.881,4.8103,4.7362,4.6631,4.6207,4.5811,4.5397,4.5397,4.5397,4.5397,4.5397,4.5397,4.8612,4.8883,4.9001,4.9001,4.8545,4.8274,4.8861,4.845,0.0,4.7355,4.7355,4.6967,4.5348,4.5274,4.5274,0.0,4.461,4.461,4.461,4.461,4.461,0.0,0.0,0.0,4.5526,4.6203,0.0,4.7558,4.8235,4.862,4.862,4.862,4.862,4.862,4.7958,4.7281,4.6603,4.5926,4.5249,4.461,4.461,4.461,4.461,4.461,4.461,4.461,4.461,4.461,4.461,4.461,4.5458,4.6811,4.6811,4.7704,4.9001,4.9001,4.9001,4.9001,4.9001,4.9001,4.9001,4.9001,4.9001,4.9001,4.9001,4.9001,4.9001,4.9001,4.9001,4.9001,4.9001,4.9001,4.9001,4.9001,4.9001,4.9001,4.9001,4.9001,4.9001,4.9001,4.9001,4.9001,4.9001,4.9001,4.9001,4.9001,4.9001,4.9001,4.9032,4.9138,4.9229,4.929,4.929,4.9381,4.9679,4.9708,4.9784,4.9982,5.0011,4.9735,4.9068,4.8879,4.8172,4.6872,4.6682,4.619,4.5397,4.5397,4.5397,4.5397,4.5397,4.5397,4.7973,4.8494,4.9001,4.9001,4.894,4.894,4.897,0.0,4.8064,4.8656,4.7238,4.604,4.6499,4.5567,4.4685,0.0,0.0,4.461,4.461,4.461,0.0,0.0,0.0,0.0,0.0,4.6203,4.688,4.7558,4.8235,4.862,4.862,4.862,4.862,4.862,4.7958,4.7281,4.6603,4.5926,4.5249,4.461,4.461,4.461,4.461,4.461,4.461,4.461,4.461,4.461,0.0,4.461,4.5458,4.6811,4.6811,4.7704,4.9001,4.9001,4.9001,4.9001,4.9001,4.9001,4.9001,4.9001,4.9001,4.9001,4.9001,4.9001,4.9001,4.9001,4.9001,4.9001,4.9001,4.9001,4.9001,4.9001,4.9001,4.9001,4.9001,4.9001,4.9001,4.9001,4.9001,4.9001,4.9001,4.9001,4.9001,4.9001,4.9001,4.9032,4.9168,4.9199,4.932,4.9619,4.9547,4.953,4.9679,4.9708,4.9784,4.9982,5.0011,4.9976,4.9907,4.9172,4.8413,4.7603,4.6958,4.619,4.5397,4.5397,4.5397,4.5397,4.5397,4.5397,4.7652,4.8091,4.846,4.89,4.9001,4.9001,4.9001,0.0,4.8513,4.837,4.7999,4.7389,4.6324,4.6005,4.5624,0.0,0.0,0.0,4.461,0.0,0.0,0.0,4.461,0.0,0.0,0.0,4.6434,4.7527,4.8235,4.862,4.862,4.862,4.862,4.862,4.7958,4.7281,4.6603,4.5926,4.5249,4.461,4.461,4.461,4.461,4.461,4.461,4.461,4.461,4.461,0.0,4.5067,4.5877,4.6846,4.7288,4.8096,4.9001,4.9001,4.9001,4.9001,4.9001,4.9001,4.9001,4.9001,4.9001,4.9001,4.9001,4.9001,4.9001,4.9001,4.9001,4.9001,4.9001,4.9001,4.9001,4.9001,4.9001,4.9001,4.9001,4.9001,4.9001,4.9001,4.9001,4.9001,4.9001,4.9001,4.9032,4.9107,4.9107,4.9168,4.935,4.9441,4.956,4.9679,4.9649,4.9696,4.986,4.9889,4.9918,5.0011,5.0011,5.0011,5.0011,4.97,4.9166,4.8379,4.762,4.6906,4.6104,4.5638,4.5397,4.5397,4.5397,4.5397,4.6989,4.7551,4.8007,4.8545,4.8849,4.9001,0.0,0.0,4.8861,4.8338,4.8482,4.821,4.6622,4.6429,4.6111,4.5104,4.4746,4.461,4.461,4.461,0.0,0.0,0.0,4.461,0.0,4.5187,4.6065,4.7219,4.7742,4.8019,4.8019,4.8019,4.8112,4.8312,4.765,4.6988,4.6311,4.5634,4.5087,4.461,4.461,4.461,4.461,4.461,4.461,4.461,4.461,4.461,0.0,4.5384,4.6111,4.688,4.7622,4.8338,4.9001,4.9001,4.9001,4.9001,4.9001,4.9001,4.9001,4.9001,4.9001,4.9001,4.9001,4.9001,4.9001,4.9001,4.9001,4.9001,4.9001,4.9001,4.9001,4.9001,4.9001,4.9001,4.9001,4.9001,4.9001,4.9001,4.9001,4.9001,4.9001,4.9001,4.9063,4.9168,4.9199,4.929,4.9547,4.9649,4.9708,4.9784,4.9784,4.986,4.9982,5.0011,5.0011,5.0011,5.0011,5.0011,5.0011,5.0149,4.9786,4.881,4.8453,4.7709,4.6613,4.6017,4.5621,4.5397,4.5397,4.5397,4.572,4.6802,4.7889,4.7906,4.8477,4.9001,0.0,4.9001,4.9001,4.9001,4.8401,4.7917,4.7885,4.6692,4.5697,4.5697,4.5067,0.0,4.461,4.461,0.0,0.0,0.0,4.461,4.461,4.5187,4.5865,4.6557,4.6619,0.0,4.6619,4.6619,4.6927,4.7588,4.6957,4.628,4.5603,4.4926,4.4625,4.461,4.461,4.461,4.461,4.461,4.461,4.461,4.461,4.461,0.0,4.5384,4.6111,4.688,4.7622,4.8338,4.9001,4.9001,4.9001,4.9001,4.9001,4.9001,4.9001,4.9001,4.9001,4.9001,4.9001,4.9001,4.9001,4.9001,4.9001,4.9001,4.9001,4.9001,4.9001,4.9001,4.9001,4.9001,4.9001,4.9001,4.9001,4.9001,4.9001,4.9001,4.9001,4.9001,4.9063,4.9168,4.9199,4.932,4.9649,4.9708,4.9784,4.9982,5.0011,5.0011,5.0011,5.0011,5.0011,5.0011,5.0011,5.0011,5.0011,5.0509,5.0153,4.8838,4.9315,4.86,4.6613,4.6596,4.6173,4.5397,4.5397,4.5397,4.5568,4.6041,4.665,4.7635,4.8075,4.8392,4.89,4.9001,4.9001,4.9001,4.8829,4.8513,4.7982,4.7119,4.6288,4.5769,4.5067,0.0,0.0,0.0,0.0,4.461,4.461,4.461,0.0,0.0,4.568,4.5895,4.6326,4.6603,4.6603,4.6603,4.6696,4.6911,4.6265,4.5803,4.5588,4.4964,4.461,4.461,4.461,4.461,4.461,4.461,4.461,4.461,4.461,4.4896,4.5421,4.6147,4.688,4.7622,4.837,4.8798,4.9001,4.9001,4.9001,4.9001,4.9001,4.9001,4.9001,4.9001,4.9001,4.9001,4.9001,4.9001,4.9001,4.9001,4.9001,4.9001,4.9001,4.9001,4.9001,4.9001,4.9001,4.9001,4.9001,4.9001,4.9001,4.9001,4.9001,4.9001,4.9001,4.9094,4.9199,4.9398,4.9471,4.9619,4.986,4.9906,4.9935,5.0011,5.0011,5.0011,5.0011,5.0011,5.0011,5.0011,5.0011,5.0149,5.0537,5.0712,5.0761,5.0708,4.9978,4.9302,4.8644,4.7269,4.6199,4.5397,4.5397,4.5397,0.0,4.55,4.5923,4.6853,4.7483,0.0,4.8494,4.8798,4.9001,4.9001,4.9001,4.8861,4.8401,4.7489,4.6638,4.6182,4.5237,0.0,0.0,0.0,0.0,4.461,0.0,0.0,0.0,4.4995,4.5203,4.5203,4.5603,4.5834,4.5834,4.5834,4.5834,4.5834,4.568,4.5464,4.5218,4.4825,4.461,4.461,4.461,4.461,4.461,4.461,4.461,4.461,4.461,4.503,0.0,4.6499,4.7221,4.7982,4.8719,4.9001,4.9001,4.9001,4.9001,4.9001,4.9001,4.9001,4.9001,4.9001,4.9001,4.9001,4.9001,4.9001,4.9001,4.9001,4.9001,4.9001,4.9001,4.9001,4.9001,4.9001,4.9001,4.9001,4.9001,4.9001,4.9001,4.9001,4.9001,4.9001,4.9001,4.9107,4.926,4.9488,4.9619,4.9784,4.9964,5.0011,5.008,5.0274,5.0138,5.008,5.0274,5.0109,5.0011,5.0011,5.0178,5.0453,5.0793,5.1184,5.1467,5.1594,5.0976,5.0307,4.9609,4.7584,4.6355,4.5845,4.5535,4.5397,0.0,4.5094,4.5635,4.5703,0.0,0.0,4.7872,4.8443,0.0,4.8984,4.9001,4.9001,4.9001,4.7836,4.6846,4.6811,4.5604,0.0,0.0,4.461,0.0,0.0,4.461,0.0,4.461,4.461,4.461,4.461,4.461,4.461,4.461,4.461,4.461,4.461,4.5187,4.5218,4.4625,4.461,4.461,4.461,4.461,4.461,4.461,4.461,4.461,0.0,4.461,4.503,4.5841,4.6499,4.7288,4.8064,4.8719,4.9001,4.9001,4.9001,4.9001,4.9001,4.9001,4.9001,4.9001,4.9001,4.9001,4.9001,4.9001,4.9001,4.9001,4.9001,4.9001,4.9001,4.9001,4.9001,4.9001,4.9001,4.9001,4.9001,4.9001,4.9001,4.9001,4.9001,4.9001,4.9001,4.9001,4.9124,4.929,4.9471,4.9619,4.9813,5.0022,5.0051,5.0246,5.0803,5.0397,5.0302,5.0803,5.0359,5.0051,5.0051,5.0564,5.0884,5.091,5.1866,5.2179,5.1725,5.2173,5.1502,4.9644,4.7769,4.679,4.6686,4.5943,4.5563,4.4615,0.0,4.4976,4.5568,4.5974,4.6515,0.0,4.8024,4.8342,4.8883,4.9001,4.9001,4.9001,4.8242,4.7456,4.688,0.0,4.5237,4.4685,0.0,0.0,4.461,4.461,4.461,4.461,4.461,4.461,4.461,4.461,4.461,4.461,4.461,4.461,4.461,4.4764,4.4779,4.461,4.461,4.461,4.461,4.461,4.461,4.461,4.461,4.461,4.461,4.461,4.5348,4.6534,4.6742,4.7572,4.8767,4.894,4.9001,4.9001,4.9001,4.9001,4.9001,4.9001,4.9001,4.9001,4.9001,4.9001,4.9001,4.9001,4.9001,4.9001,4.9001,4.9001,4.9001,4.9001,4.9001,4.9001,4.9001,4.9001,4.9001,4.9001,4.9001,4.9001,4.9001,4.9001,4.9032,4.9138,4.9307,4.9471,4.9619,4.9801,5.0092,5.0547,5.0602,5.0803,5.1347,5.1314,5.1288,5.1416,5.091,5.0602,5.0602,5.1105,5.1594,5.2012,5.2268,5.254,5.2806,5.254,5.1688,5.0215,4.9735,4.8905,4.7736,4.7541,4.7151,4.4615,4.4615,4.4699,4.5094,4.5449,4.5923,4.6718,4.7398,4.799,4.8426,0.0,4.9001,4.9001,4.8418,4.7655,4.6914,4.6182,0.0,0.0,0.0,4.461,4.461,4.461,4.461,0.0,4.461,4.461,4.461,4.461,4.461,4.461,4.461,4.461,4.461,4.461,4.461,4.461,4.461,4.461,4.461,4.461,4.461,4.461,4.461,4.461,4.461,4.4971,4.5733,4.6811,4.7153,4.7967,4.9001,4.9001,4.9001,4.9001,4.9001,4.9001,4.9001,4.9001,4.9001,4.9001,4.9001,4.9001,4.9001,4.9001,4.9001,4.9001,4.9001,4.9001,4.9001,4.9001,4.9001,4.9001,4.9001,4.9001,4.9001,4.9001,4.9001,4.9001,4.9001,4.9001,4.9032,4.9168,4.935,4.9547,4.9679,4.986,5.0206,5.0739,5.0803,5.1105,5.1873,5.1743,5.1719,5.1939,5.1701,5.1442,5.1184,5.1651,5.2108,5.2384,5.2649,5.2912,5.3185,5.2654,5.2033,5.1323,5.0688,4.9966,4.9145,4.8811,4.8222,4.4615,4.4615,4.4615,4.4615,4.506,4.5568,4.5669,0.0,0.0,0.0,0.0,0.0,0.0,4.8482,0.0,0.0,0.0,0.0,4.4685,4.461,4.461,4.461,4.461,0.0,4.461,4.461,4.461,4.461,4.461,4.461,4.461,4.461,4.461,4.461,4.461,4.461,4.461,4.461,4.461,4.461,4.461,4.4648,4.4746,4.4648,4.4723,4.4955,0.0,0.0,4.7017,4.7655,4.8338,4.9001,4.9001,4.9001,4.9001,4.9001,4.9001,4.9001,4.9001,4.9001,4.9001,4.9001,4.9001,4.9001,4.9001,4.9001,4.9001,4.9001,4.9001,4.9001,4.9001,4.9001,4.9001,4.9001,4.9001,4.9001,4.9001,4.9001,4.9001,4.9001,4.9001,4.9063,4.9229,4.9398,4.9547,4.9725,4.9976,5.0302,5.0857,5.0973,5.1398,5.2408,5.2108,5.2036,5.2477,5.2518,5.2338,5.1866,5.2268,5.2518,5.2518,5.2955,5.3185,5.3185,5.2761,5.2518,5.2518,5.1382,5.0755,5.0629,4.999,4.9277,4.4615,4.4615,4.4615,4.4615,4.4699,4.4925,4.5568,4.5889,0.0,0.0,0.0,0.0,0.0,4.8909,4.8593,0.0,0.0,4.5458,0.0,0.0,4.461,4.461,0.0,4.461,4.461,4.461,4.461,4.461,4.461,4.461,4.461,4.461,4.461,4.461,4.461,4.461,4.461,4.461,4.461,4.461,4.461,4.4933,4.5531,4.4896,4.5274,4.6429,0.0,4.6483,4.7754,4.7852,4.8338,4.9001,4.9001,4.9001,4.9001,4.9001,4.9001,4.9001,4.9001,4.9001,4.9001,4.9001,4.9001,4.9001,4.9001,4.9001,4.9001,4.9001,4.9001,4.9001,4.9001,4.9001,4.9001,4.9001,4.9001,4.9001,4.9001,4.9001,4.9001,4.9001,4.9001,4.9094,4.9398,4.9488,4.9607,4.9906,5.0387,5.0857,5.1416,5.1873,5.2384,5.3017,5.2999,5.2995,5.306,5.3082,5.3039,5.2955,5.3039,5.3082,5.3082,5.3164,5.3185,5.3185,5.3121,5.3082,5.3082,5.2889,5.2407,5.1752,5.1642,5.1148,4.4615,4.4615,4.4615,4.4615,4.4615,4.4699,4.501,4.5415,0.0,0.0,0.0,0.0,0.0,0.0,4.8625,4.7489,0.0,4.5458,4.4685,4.461,4.461,0.0,0.0,4.461,4.461,4.461,4.461,4.461,4.461,4.461,4.461,4.461,4.461,4.461,4.461,4.461,4.461,4.461,4.461,4.461,4.4993,4.5179,4.5104,4.5588,4.5949,4.6218,0.0,4.7272,4.7917,4.8338,4.8688,4.9001,4.9001,4.9001,4.9001,4.9001,4.9001,4.9001,4.9001,4.9001,4.9001,4.9001,4.9001,4.9001,4.9001,4.9001,4.9001,4.9001,4.9001,4.9001,4.9001,4.9001,4.9001,4.9001,4.9001,4.9001,4.9001,4.9001,4.9001,4.9001,4.9001,4.9094,4.9458,4.9518,4.9708,5.0341,5.063,5.1105,5.1939,5.2268,5.2608,5.3143,5.3185,5.3185,5.3185,5.3185,5.3185,5.3185,5.3185,5.3185,5.3185,5.3185,5.3185,5.3185,5.3185,5.3185,5.3185,5.3185,5.3023,5.2656,5.2656,5.2215,4.4615,4.4615,4.4615,4.4615,4.4615,4.4615,4.4615,4.5026,4.55,0.0,0.0,0.0,0.0,4.8511,0.0,4.7051,4.6324,4.5624,4.4723,4.461,4.461,4.461,4.461,4.461,4.461,4.461,4.461,4.461,4.461,4.461,4.461,4.461,4.461,4.461,4.461,4.461,4.461,4.461,4.461,4.461,4.5179,4.5311,4.5142,4.6127,4.6534,4.6518,4.7473,4.7999,4.8193,4.8767,4.9001,4.9001,4.9001,4.9001,4.9001,4.9001,4.9001,4.9001,4.9001,4.9001,4.9001,4.9001,4.9001,4.9001,4.9001,4.9001,4.9001,4.9001,4.9001,4.9001,4.9001,4.9001,4.9001,4.9001,4.9001,4.9001,4.9001,4.9001,4.9001,4.9001,4.9001,4.9094,4.9458,4.9518,4.9796,5.0667,5.091,5.1339,5.2291,5.2518,5.2739,5.3164,5.3185,5.3185,5.3185,5.3185,5.3185,5.3185,5.3185,5.3185,5.3185,5.3185,5.3185,5.3185,5.3185,5.3185,5.3185,5.3185,5.3185,5.3185,5.3185,5.2876,4.4615,4.4615,4.4615,4.4615,4.4615,4.4615,4.4615,4.4649,0.0,4.5568,0.0,0.0,0.0,4.8511,4.853,4.7051,4.6742,4.6218,4.4783,0.0,4.461,4.461,4.461,4.461,4.461,4.461,4.461,4.461,4.461,4.461,4.461,4.461,4.461,4.461,4.461,4.461,4.461,4.461,4.461,4.461,4.4648,4.5384,4.6604,4.604,4.6864,4.8736,4.8161,4.8274,4.8923,4.897,4.9001,4.9001,4.9001,4.9001,4.9001,4.9001,4.9001,4.9001,4.9001,4.9001,4.9001,4.9001,4.9001,4.9001,4.9001,4.9001,4.9001,4.9001,4.9001,4.9001,4.9001,4.9001,4.9001,4.9001,4.9001,4.9001,4.9001,4.9001,4.9001,4.9001,4.9001,4.9094,4.9458,4.9518,4.9796,5.0667,5.1236,5.175,5.2338,5.2828,5.3164,5.3185,5.3185,5.3185,5.3185,5.3185,5.3185,5.3185,5.3185,5.3185,5.3185,5.3185,5.3185,5.3185,5.3185,5.3185,5.3185,5.3185,5.3185,5.3185,5.3185,5.3167,4.4615,4.4615,4.4615,4.4615,4.4615,0.0,0.0,4.4615,4.4682,4.4942,4.5382,0.0,0.0,0.0,4.7962,4.6952,4.6811,4.6288,4.4821,4.461,4.461,4.461,4.461,4.461,4.461,4.461,4.461,4.461,4.461,4.461,4.461,4.461,4.461,4.461,4.461,4.461,4.461,4.461,4.461,4.461,4.5531,4.6005,4.6147,4.7254,4.7967,4.8338,4.8513,4.875,4.9001,4.9001,4.9001,4.9001,4.9001,4.9001,4.9001,4.9001,4.9001,4.9001,4.9001,4.9001,4.9001,4.9001,4.9001,4.9001,4.9001,4.9001,4.9001,4.9001,4.9001,4.9001,4.9001,4.9001,4.9001,4.9001,4.9001,4.9001,4.9001,4.9001,4.9001,4.9001,4.9001,4.9094,4.9458,4.9791,5.0282,5.1166,5.175,5.2291,5.2846,5.306,5.3185,5.3185,5.3185,5.3185,5.3185,5.3185,5.3185,5.3185,5.3185,5.3185,5.3185,5.3185,5.3185,5.3185,5.3185,5.3185,5.3185,5.3185,5.3185,5.3185,5.3185,5.3209,4.4615,4.4615,4.4615,4.4615,0.0,0.0,4.4615,4.4615,4.4615,4.4615,4.5179,4.6092,4.7327,0.0,0.0,0.0,4.6811,4.6288,4.4821,4.461,4.461,4.461,4.461,4.461,4.461,4.461,4.461,4.461,4.461,4.461,4.461,4.461,4.461,4.461,4.461,4.461,4.461,4.461,4.4723,4.4955,4.6218,4.6534,4.6127,4.7869,4.8513,4.8274,4.8798,4.9001,4.9001,4.9001,4.9001,4.9001,4.9001,4.9001,4.9001,4.9001,4.9001,4.9001,4.9001,4.9001,4.9001,4.9001,4.9001,4.9001,4.9001,4.9001,4.9001,4.9001,4.9001,4.9001,4.9001,4.9001,4.9001,4.9001,4.9001,4.9001,4.9001,4.9001,4.9001,4.9001,4.9032,4.9155,4.9458,4.9988,5.0634,5.1475,5.206,5.2586,5.3143,5.3185,5.3185,5.3185,5.3185,5.3185,5.3185,5.3185,5.3185,5.3185,5.3185,5.3185,5.3185,5.3185,5.3185,5.3185,5.3185,5.3185,5.3185,5.3185,5.3185,5.3185,5.3185,5.323,4.4615,4.4615,4.4615,4.4615,0.0,0.0,4.4615,4.4615,4.4615,4.4615,4.5179,4.5923,4.665,4.7394,0.0,4.6903,4.6811,4.6288,4.4821,4.461,4.461,4.461,4.461,4.461,4.461,4.461,4.461,4.461,4.461,4.461,4.461,4.461,4.461,4.461,4.461,4.461,4.461,4.461,4.4971,4.5697,4.6464,4.6811,4.6862,4.7572,4.8306,4.9001,4.9001,4.9001,4.9001,4.9001,4.9001,4.9001,4.9001,4.9001,4.9001,4.9001,4.9001,4.9001,4.9001,4.9001,4.9001,4.9001,4.9001,4.9001,4.9001,4.9001,4.9001,4.9001,4.9001,4.9001,4.9001,4.9001,4.9001,4.9001,4.9001,4.9001,4.9001,4.9001,4.9001,4.9001,4.9107,4.926,4.9471,5.0074,5.076,5.15,5.206,5.2608,5.3143,5.3185,5.3185,5.3185,5.3185,5.3185,5.3185,5.3185,5.3185,5.3185,5.3185,5.3185,5.3185,5.3185,5.3185,5.3185,5.3185,5.3185,5.3185,5.3185,5.3185,5.3185,5.3185,5.323,4.4615,4.4615,4.4615,4.4615,0.0,0.0,0.0,4.4615,0.0,0.0,4.4784,4.5145,4.5889,4.6633,0.0,4.6139,4.6453,4.6288,4.4821,4.461,4.461,4.461,4.461,4.461,4.461,4.461,4.461,4.461,4.461,4.461,4.461,4.461,4.461,4.461,4.461,4.461,4.461,4.5104,4.5478,4.5697,4.6967,4.7572,4.7589,4.8338,4.8798,4.9001,4.9001,4.9001,4.9001,4.9001,4.9001,4.9001,4.9001,4.9001,4.9001,4.9001,4.9001,4.9001,4.9001,4.9001,4.9001,4.9001,4.9001,4.9001,4.9001,4.9001,4.9001,4.9001,4.9001,4.9001,4.9001,4.9001,4.9001,4.9001,4.9001,4.9001,4.9001,4.9001,4.9001,4.9001,4.9107,4.9376,4.9959,5.0634,5.1302,5.2042,5.2608,5.3017,5.3185,5.3185,5.3185,5.3185,5.3185,5.3185,5.3185,5.3185,5.3185,5.3185,5.3185,5.3185,5.3185,5.3185,5.3185,5.3185,5.3185,5.3185,5.3185,5.3185,5.3185,5.3185,5.3185,5.3293,4.4615,4.4615,4.4615,4.4615,4.4615,4.4615,4.4615,0.0,0.0,0.0,4.4615,4.4835,4.5568,4.6295,0.0,4.5814,4.6563,4.6622,4.4858,4.4858,4.4933,4.4648,4.461,4.461,4.461,4.461,4.461,4.461,4.461,4.461,4.461,4.461,4.461,4.461,4.461,4.4761,4.503,4.5494,4.6005,4.6588,4.7473,4.8064,4.8338,4.8798,4.9001,4.9001,4.9001,4.9001,4.9001,4.9001,4.9001,4.9001,4.9001,4.9001,4.9001,4.9001,4.9001,4.9001,4.9001,4.9001,4.9001,4.9001,4.9001,4.9001,4.9001,4.9001,4.9001,4.9001,4.9001,4.9001,4.9001,4.9001,4.9001,4.9001,4.9001,4.9001,4.9001,4.9001,4.9001,4.9063,4.9376,4.9786,5.0293,5.1121,5.1886,5.232,5.2868,5.3185,5.3185,5.3185,5.3185,5.3185,5.3185,5.3185,5.3185,5.3185,5.3185,5.3185,5.3185,5.3185,5.3185,5.3185,5.3185,5.3185,5.3185,5.3185,5.3185,5.3185,5.3185,5.3185,5.3185,5.3314,4.4598,4.4626,4.4626,4.4626,4.4598,4.4615,4.4615,4.4615,4.4615,4.4615,0.0,4.4818,4.5483,4.6261,4.6552,4.5732,4.6897,4.7137,4.4933,4.5237,4.5421,4.4685,4.461,4.461,4.461,4.461,4.461,4.461,4.461,4.461,4.461,4.461,4.461,4.461,4.461,4.4955,4.5697,4.5769,4.6518,4.7885,4.795,4.8338,4.9001,4.9001,4.9001,4.9001,4.9001,4.9001,4.9001,4.9001,4.9001,4.9001,4.9001,4.9001,4.9001,4.9001,4.9001,4.9001,4.9001,4.9001,4.9001,4.9001,4.9001,4.9001,4.9001,4.9001,4.9001,4.9001,4.9001,4.9001,4.9001,4.9001,4.9001,4.9001,4.9001,4.9001,4.9001,4.9001,4.9032,4.9168,4.9815,5.0377,5.0525,5.159,5.2408,5.2472,5.289,5.3185,5.3185,5.3185,5.3185,5.3185,5.3185,5.3185,5.3185,5.3185,5.3185,5.3185,5.3185,5.3185,5.3185,5.3185,5.3185,5.3185,5.3185,5.3185,5.3185,5.3185,5.3185,5.3185,5.3185,5.3314,4.4737,4.4765,4.4765,4.4765,4.4682,4.4615,4.4615,4.4615,4.4615,4.4615,4.4615,4.4649,4.4818,4.5906,4.6384,4.5065,4.6536,4.7137,4.4933,4.5237,4.5421,4.4685,4.461,4.461,4.461,4.461,4.461,4.461,4.461,4.461,4.461,4.461,4.461,4.461,4.461,4.4955,4.5697,4.6288,4.7001,4.7917,4.8482,4.8861,4.9001,4.9001,4.9001,4.9001,4.9001,4.9001,4.9001,4.9001,4.9001,4.9001,4.9001,4.9001,4.9001,4.9001,4.9001,4.9001,4.9001,4.9001,4.9001,4.9001,4.9001,4.9001,4.9001,4.9001,4.9001,4.9001,4.9001,4.9001,4.9001,4.9001,4.9001,4.9001,4.9001,4.9001,4.9001,4.9001,4.9032,4.9168,4.9815,5.047,5.1025,5.1837,5.254,5.2955,5.3121,5.3185,5.3185,5.3185,5.3185,5.3185,5.3185,5.3185,5.3185,5.3185,5.3185,5.3185,5.3185,5.3185,5.3185,5.3185,5.3185,5.3185,5.3185,5.3185,5.3185,5.3185,5.3185,5.3185,5.3185,5.3314,4.4748,4.4803,0.0,4.4886,0.0,4.4709,4.4709,4.4654,4.4615,4.4615,4.4615,4.4615,4.4615,4.5816,4.6424,4.5305,4.6989,4.7655,4.5458,4.5769,4.5933,4.5216,4.4821,4.4761,4.5104,4.4821,4.461,4.461,4.461,4.461,4.461,4.461,4.4746,4.5104,4.5142,4.566,4.6726,4.7137,4.7688,4.845,4.8829,4.9001,4.9001,4.9001,4.9001,4.9001,4.9001,4.9001,4.9001,4.9001,4.9001,4.9001,4.9001,4.9001,4.9001,4.9001,4.9001,4.9001,4.9001,4.9001,4.9001,4.9001,4.9001,4.9001,4.9001,4.9001,4.9001,4.9001,4.9001,4.9001,4.9001,4.9001,4.9001,4.9001,4.9001,4.9001,4.9001,4.9256,4.9521,4.9698,5.0507,5.131,5.1746,5.2366,5.289,5.3164,5.3185,5.3185,5.3185,5.3185,5.3185,5.3185,5.3185,5.3185,5.3185,5.3185,5.3185,5.3185,5.3185,5.3185,5.3185,5.3185,5.3185,5.3185,5.3185,5.3185,5.3185,5.323,5.3251,5.3251,5.3251,5.3357,4.4714,4.4803,4.4858,4.4951,4.4913,0.0,4.4803,4.4709,4.4626,4.4598,4.4615,4.4615,4.4615,4.5686,4.641,4.5792,4.7457,4.814,4.6166,4.6429,4.6569,4.5985,4.5253,4.5067,4.5805,4.52,4.4783,4.4783,4.4685,4.4648,4.4783,4.4783,4.5142,4.5877,4.5913,4.6518,4.7885,4.7885,4.8274,4.9001,4.9001,4.9001,4.9001,4.9001,4.9001,4.9001,4.9001,4.9001,4.9001,4.9001,4.9001,4.9001,4.9001,4.9001,4.9001,4.9001,4.9001,4.9001,4.9001,4.9001,4.9001,4.9001,4.9001,4.9001,4.9001,4.9001,4.9001,4.9001,4.9001,4.9001,4.9001,4.9001,4.9001,4.9001,4.9001,4.9001,4.9032,4.9534,5.0061,5.0276,5.131,5.2242,5.2499,5.2912,5.3185,5.3185,5.3185,5.3185,5.3185,5.3185,5.3185,5.3185,5.3185,5.3185,5.3185,5.3185,5.3185,5.3185,5.3185,5.3185,5.3185,5.3185,5.3185,5.3185,5.3185,5.3185,5.3185,5.3254,5.3297,5.33,5.3297,5.3418,4.4578,0.0,4.4978,0.0,4.4978,4.4923,0.0,0.0,4.4737,0.0,4.4615,4.4615,4.4615,4.528,4.582,4.5725,4.7038,4.7715,4.6799,4.6742,4.6777,4.6673,4.6005,4.5841,4.6569,4.5985,4.5551,4.5551,4.4955,4.4896,4.5531,4.5551,4.5913,4.6638,4.6638,4.7035,4.7885,4.7885,4.8274,4.9001,4.9001,4.9001,4.9001,4.9001,4.9001,4.9001,4.9001,4.9001,4.9001,4.9001,4.9001,4.9001,4.9001,4.9001,4.9001,4.9001,4.9001,4.9001,4.9001,4.9001,4.9001,4.9001,4.9001,4.9001,4.9001,4.9001,4.9001,4.9001,4.9001,4.9001,4.9001,4.9001,4.9001,4.9001,4.9001,4.9032,4.9138,4.9593,5.009,5.0415,5.1497,5.2522,5.3017,5.3143,5.3185,5.3185,5.3185,5.3185,5.3185,5.3185,5.3185,5.3185,5.3185,5.3185,5.3185,5.3185,5.3185,5.3185,5.3185,5.3185,5.3185,5.3185,5.3185,5.3185,5.3185,5.3185,5.3185,5.3206,5.3233,5.3297,5.3251,5.3394,4.4444,4.4913,4.5005,0.0,4.5059,4.5005,4.5005,4.4968,4.4913,4.4831,4.4748,4.4682,4.4598,4.5196,4.5853,4.6247,4.7231,4.7802,4.7457,4.7422,4.7422,4.7422,4.6777,4.6604,4.7355,4.6742,4.6324,4.6324,4.602,4.5969,4.6288,4.6324,4.6657,4.7372,4.7422,4.7754,4.8513,4.8513,4.8688,4.9001,4.9001,4.9001,4.9001,4.9001,4.9001,4.9001,4.9001,4.9001,4.9001,4.9001,4.9001,4.9001,4.9001,4.9001,4.9001,4.9001,4.9001,4.9001,4.9001,4.9001,4.9001,4.9001,4.9001,4.9001,4.9001,4.9001,4.9001,4.9001,4.9001,4.9001,4.9001,4.9001,4.9001,4.9001,4.9063,4.9243,4.9698,5.023,5.0876,5.1819,5.2477,5.2912,5.3164,5.3185,5.3185,5.3185,5.3185,5.3185,5.3185,5.3185,5.3185,5.3185,5.3185,5.3185,5.3185,5.3185,5.3185,5.3185,5.3185,5.3185,5.3185,5.3185,5.3185,5.3185,5.3185,5.3185,5.3185,5.3251,5.3316,5.34,5.3297,5.3439,0.0,0.0,4.4702,4.4811,4.4961,4.5059,0.0,0.0,4.5032,0.0,4.4913,4.4831,4.4737,4.51,4.5652,4.6397,4.7141,4.7686,4.7858,4.7915,4.795,4.8161,4.7522,4.7355,4.8096,4.7522,4.7085,4.7085,4.6914,4.688,4.7085,4.7085,4.7422,4.8161,4.8161,4.845,4.9001,4.9001,4.9001,4.9001,4.9001,4.9001,4.9001,4.9001,4.9001,4.9001,4.9001,4.9001,4.9001,4.9001,4.9001,4.9001,4.9001,4.9001,4.9001,4.9001,4.9001,4.9001,4.9001,4.9001,4.9001,4.9001,4.9001,4.9001,4.9001,4.9001,4.9001,4.9001,4.9001,4.9001,4.9001,4.9001,4.9001,4.9032,4.9243,4.961,5.0387,5.1017,5.1795,5.2977,5.3185,5.3185,5.3185,5.3185,5.3185,5.3185,5.3185,5.3185,5.3185,5.3185,5.3185,5.3185,5.3185,5.3185,5.3185,5.3185,5.3185,5.3185,5.3185,5.3185,5.3185,5.3185,5.3185,5.3185,5.3185,5.3185,5.3185,5.3254,5.3339,5.3459,5.3318,5.344,0.0,4.3121,0.0,4.3863,4.4541,4.515,0.0,0.0,4.515,4.5032,4.4978,4.4978,4.4978,4.4782,4.4919,4.5652,4.638,4.7107,4.7808,4.7903,4.8161,4.8861,4.8306,4.8129,4.8861,4.8274,4.7852,4.7852,4.7187,4.7119,4.7819,4.7852,4.8161,4.894,4.894,4.897,4.9001,4.9001,4.9001,4.9001,4.9001,4.9001,4.9001,4.9001,4.9001,4.9001,4.9001,4.9001,4.9001,4.9001,4.9001,4.9001,4.9001,4.9001,4.9001,4.9001,4.9001,4.9001,4.9001,4.9001,4.9001,4.9001,4.9001,4.9001,4.9001,4.9001,4.9001,4.9001,4.9001,4.9001,4.9001,4.9001,4.9032,4.9168,4.9563,5.0185,5.106,5.1813,5.2499,5.3082,5.3185,5.3185,5.3185,5.3185,5.3185,5.3185,5.3185,5.3185,5.3185,5.3185,5.3185,5.3185,5.3185,5.3185,5.3185,5.3185,5.3185,5.3185,5.3185,5.3185,5.3185,5.3185,5.3185,5.3185,5.3185,5.3185,5.3185,5.3206,5.3251,5.3318,5.323,5.3394,0.0,0.0,0.0,4.3029,4.3496,4.402,4.4912,4.5167,4.522,4.5264,4.5194,4.514,4.514,4.4978,4.5086,4.5711,4.6457,4.7174,4.7817,4.8312,4.8688,4.897,4.8767,4.8719,4.897,4.8767,4.8625,4.8625,4.8354,4.8322,4.8576,4.8625,4.8736,4.9001,4.9001,4.9001,4.9001,4.9001,4.9001,4.9001,4.9001,4.9001,4.9001,4.9001,4.9001,4.9001,4.9001,4.9001,4.9001,4.9001,4.9001,4.9001,4.9001,4.9001,4.9001,4.9001,4.9001,4.9001,4.9001,4.9001,4.9001,4.9001,4.9001,4.9001,4.9001,4.9001,4.9001,4.9001,4.9001,4.9001,4.9001,4.9001,4.9168,4.9756,5.0369,5.1051,5.1837,5.2481,5.2955,5.3164,5.3185,5.3185,5.3185,5.3185,5.3185,5.3185,5.3185,5.3185,5.3185,5.3185,5.3185,5.3185,5.3185,5.3185,5.3185,5.3185,5.3185,5.3185,5.3185,5.3185,5.3185,5.3185,5.3185,5.3185,5.3185,5.3185,5.3185,5.3185,5.323,5.3297,5.323,5.3373,3.9599,0.0,0.0,0.0,4.2327,4.32,4.4177,4.4773,4.5167,4.5264,4.522,4.5203,4.5203,4.5167,4.523,4.555,4.6209,4.6901,4.7518,4.8233,4.8792,4.8984,4.9001,4.9001,4.9001,4.9001,4.9001,4.9001,4.9001,0.0,4.9001,4.9001,4.9001,4.9001,4.9001,4.9001,4.9001,4.9001,4.9001,4.9001,4.9001,4.9001,4.9001,4.9001,4.9001,4.9001,4.9001,4.9001,4.9001,4.9001,4.9001,4.9001,4.9001,4.9001,4.9001,4.9001,4.9001,4.9001,4.9001,4.9001,4.9001,4.9001,4.9001,4.9001,4.9001,4.9001,4.9001,4.9001,4.9001,4.9001,4.9001,4.9229,4.9639,5.0442,5.1155,5.1843,5.2522,5.2934,5.3185,5.3185,5.3185,5.3185,5.3185,5.3185,5.3185,5.3185,5.3185,5.3185,5.3185,5.3185,5.3185,5.3185,5.3185,5.3185,5.3185,5.3185,5.3185,5.3185,5.3185,5.3185,5.3185,5.3185,5.3185,5.3185,5.3185,5.3185,5.3185,5.3185,5.3209,5.3274,5.3227,5.3353,0.0,0.0,0.0,0.0,0.0,0.0,4.2784,0.0,4.4961,4.5005,4.5096,4.5177,4.5177,4.53,4.5318,4.5032,4.5627,4.6322,4.6895,4.7648,4.8307,4.8914,4.8984,4.9001,4.9001,4.9001,4.9001,4.9001,4.9001,4.9001,4.9001,4.9001,4.9001,4.9001,4.9001,4.9001,4.9001,4.9001,4.9001,4.9001,4.9001,4.9001,4.9001,4.9001,4.9001,4.9001,4.9001,4.9001,4.9001,4.9001,4.9001,4.9001,4.9001,4.9001,4.9001,4.9001,4.9001,4.9001,4.9001,4.9001,4.9001,4.9001,4.9001,4.9001,4.9001,4.9001,4.9001,4.9001,4.9001,4.9001,4.9001,4.9656,5.0442,5.113,5.1861,5.254,5.3082,5.3185,5.3185,5.3185,5.3185,5.3185,5.3185,5.3185,5.3185,5.3185,5.3185,5.3185,5.3185,5.3185,5.3185,5.3185,5.3185,5.3185,5.3185,5.3185,5.3185,5.3185,5.3185,5.3185,5.3185,5.3185,5.3185,5.3185,5.3185,5.3185,5.3185,5.3185,5.3185,5.3185,5.3206,5.3314,3.7094,0.0,0.0,0.0,0.0,0.0,0.0,0.0,4.4238,4.4875,4.5032,4.5059,4.5059,4.5086,4.5103,4.5005,4.5692,4.6257,4.634,4.7471,4.8315,4.834,4.8816,4.9124,4.9001,4.9001,4.9001,0.0,4.9001,4.9001,4.9001,4.9001,4.9001,4.9001,4.9001,4.9001,4.9001,4.9001,4.9001,4.9001,4.9001,4.9001,4.9001,4.9001,4.9001,4.9001,4.9001,4.9001,4.9001,4.9001,4.9001,4.9001,4.9001,4.9001,4.9001,4.9001,4.9001,4.9001,4.9001,4.9001,4.9001,4.9001,4.9001,4.9001,4.9001,4.9001,4.9001,4.9001,4.9001,4.9032,4.9107,4.9424,4.9988,5.1051,5.1565,5.2084,5.2995,5.3185,5.3185,5.3185,5.3185,5.3185,5.3185,5.3185,5.3185,5.3185,5.3185,5.3185,5.3185,5.3185,5.3185,5.3185,5.3185,5.3185,5.3185,5.3185,5.3185,5.3185,5.3185,5.3185,5.3185,5.3185,5.3185,5.3185,5.3185,5.3185,5.3185,5.3185,5.3185,5.3206,5.3254,5.3339,0.0,0.0,0.0,0.0,0.0,0.0,4.1494,4.2752,4.382,0.0,4.4951,4.5005,4.5086,4.5086,4.5113,4.514,4.549,4.5802,4.5987,4.6806,4.7413,4.7543,4.8209,4.8636,4.8545,4.8832,4.9001,4.9001,4.9001,4.9001,4.9001,4.9001,4.9001,4.9001,4.9001,4.9001,4.9001,4.9001,4.9001,4.9001,4.9001,4.9001,4.9001,4.9001,4.9001,4.9001,4.9001,4.9001,4.9001,4.9001,4.9001,4.9001,4.9001,4.9001,4.9001,4.9001,4.9001,4.9001,4.9001,4.9001,4.9001,4.9001,4.9001,4.9001,4.9001,4.9001,4.9001,4.9001,4.9032,4.9107,4.929,4.9774,5.046,5.1243,5.1855,5.2431,5.306,5.3185,5.3185,5.3185,5.3185,5.3185,5.3185,5.3185,5.3185,5.3185,5.3185,5.3185,5.3185,5.3185,5.3185,5.3185,5.3185,5.3185,5.3185,5.3185,5.3185,5.3185,5.3185,5.3185,5.3185,5.3185,5.3185,5.3185,5.3185,5.3185,5.3185,5.3185,5.3185,5.3185,5.3251,5.3357,0.0,0.0,0.0,0.0,0.0,0.0,4.0183,4.1834,4.3449,0.0,4.4818,4.4978,4.5113,4.5123,4.5167,4.5291,4.5113,4.5162,4.5733,4.5892,4.6124,4.6641,4.7357,4.7834,4.7872,4.8494,4.8917,4.9001,4.9001,4.9001,4.9001,4.9001,4.9001,4.9001,4.9001,4.9001,4.9001,4.9001,4.9001,4.9001,4.9001,4.9001,4.9001,4.9001,4.9001,4.9001,4.9001,4.9001,4.9001,4.9001,4.9001,4.9001,4.9001,4.9001,4.9001,4.9001,4.9001,4.9001,4.9001,4.9001,4.9001,4.9001,4.9001,4.9001,4.9001,4.9001,4.9001,4.9001,4.9094,4.926,4.9458,5.0349,5.1276,5.1551,5.2361,5.3143,5.3185,5.3185,5.3185,5.3185,5.3185,5.3185,5.3185,5.3185,5.3185,5.3185,5.3185,5.3185,5.3185,5.3185,5.3185,5.3185,5.3185,5.3185,5.3185,5.3185,5.3185,5.3185,5.3185,5.3185,5.3185,5.3185,5.3185,5.3185,5.3185,5.3185,5.3185,5.3185,5.3185,5.3185,5.3185,5.3314,0.0,0.0,0.0,0.0,0.0,0.0,3.9353,4.0733,4.2144,0.0,4.4213,4.4682,4.4709,4.4709,4.4737,4.4765,4.4803,4.4964,4.5275,4.5768,4.6073,4.6073,4.6724,4.7361,4.7851,4.8024,4.8376,4.8968,4.9001,4.9001,4.9001,4.9001,4.9001,4.9001,4.9001,4.9001,4.9001,4.9001,4.9001,4.9001,4.9001,4.9001,4.9001,4.9001,4.9001,4.9001,4.9001,4.9001,4.9001,4.9001,4.9001,4.9001,4.9001,4.9001,4.9001,4.9001,4.9001,4.9001,4.9001,4.9001,4.9001,4.9001,4.9001,4.9001,4.9001,4.9001,4.9001,4.9001,4.9094,4.926,4.9458,5.0074,5.0822,5.1449,5.2084,5.2676,5.3121,5.3185,5.3185,5.3185,5.3185,5.3185,5.3185,5.3185,5.3185,5.3185,5.3185,5.3185,5.3185,5.3185,5.3185,5.3185,5.3185,5.3185,5.3185,5.3185,5.3185,5.3185,5.3185,5.3185,5.3185,5.3185,5.3185,5.3185,5.3185,5.3185,5.3185,5.3185,5.3185,5.3185,5.3185,5.3314,0.0,0.0,0.0,3.6492,0.0,0.0,0.0,3.9956,4.1266,4.2791,4.3669,4.4268,4.4708,4.472,4.4737,4.4776,4.472,4.4776,4.4951,4.5248,4.5403,4.5269,4.5903,4.6484,4.6786,4.7141,4.7665,4.8409,4.8798,4.9001,4.9001,4.9001,4.9001,4.9001,4.9001,4.9001,4.9001,4.9001,4.9001,4.9001,4.9001,4.9001,4.9001,4.9001,4.9001,4.9001,4.9001,4.9001,4.9001,4.9001,4.9001,4.9001,4.9001,4.9001,4.9001,4.9001,4.9001,4.9001,4.9001,4.9001,4.9001,4.9001,4.9001,4.9001,4.9001,4.9001,4.9001,4.9001,4.9185,4.9381,4.9471,5.0272,5.1148,5.15,5.2203,5.2868,5.3143,5.3185,5.3185,5.3185,5.3185,5.3185,5.3185,5.3185,5.3185,5.3185,5.3185,5.3185,5.3185,5.3185,5.3185,5.3185,5.3185,5.3185,5.3185,5.3185,5.3185,5.3185,5.3185,5.3185,5.3185,5.3185,5.3185,5.3185,5.3185,5.3185,5.3185,5.3185,5.3185,5.3185,5.3185,5.3314,0.0,0.0,0.0,0.0,0.0,3.7589,0.0,0.0,0.0,4.2172,0.0,0.0,0.0,0.0,0.0,4.4709,0.0,0.0,0.0,4.4691,0.0,4.4615,4.5139,4.5563,4.5703,4.6363,4.7107,4.7821,4.846,4.8849,4.9001,4.9001,4.9001,4.9001,4.9001,4.9001,4.9001,4.9001,4.9001,4.9001,4.9001,4.9001,4.9001,4.9001,4.9001,4.9001,4.9001,4.9001,4.9001,4.9001,4.9001,4.9001,4.9001,4.9001,4.9001,4.9001,4.9001,4.9001,4.9001,4.9001,4.9001,4.9001,4.9001,4.9001,4.9001,4.9001,4.9001,4.9001,4.932,4.9661,4.9661,5.0696,5.175,5.175,5.2477,5.3185,5.3185,5.3185,5.3185,5.3185,5.3185,5.3185,5.3185,5.3185,5.3185,5.3185,5.3185,5.3185,5.3185,5.3185,5.3185,5.3185,5.3185,5.3185,5.3185,5.3185,5.3185,5.3185,5.3185,5.3185,5.3185,5.3185,5.3185,5.3185,5.3185,5.3185,5.3185,5.3185,5.3185,5.3185,5.3185,5.3293,0.0,0.0,0.0,0.0,3.6952,0.0,0.0,0.0,4.0523,4.1223,0.0,0.0,0.0,0.0,0.0,0.0,0.0,0.0,4.3667,4.4268,4.4765,4.4615,4.4777,4.5128,4.5635,4.6363,4.7107,4.7821,4.7973,4.8325,4.8968,4.9001,4.9001,4.9001,4.9001,4.9001,4.9001,4.9001,4.9001,4.9001,4.9001,4.9001,4.9001,4.9001,4.9001,4.9001,4.9001,4.9001,4.9001,4.9001,4.9001,4.9001,4.9001,4.9001,4.9001,4.9001,4.9001,4.9001,4.9001,4.9001,4.9001,4.9001,4.9001,4.9001,4.9001,4.9001,4.9001,4.9001,4.9598,5.0209,5.0209,5.1243,5.2315,5.2315,5.2761,5.3185,5.3185,5.3185,5.3185,5.3185,5.3185,5.3185,5.3185,5.3185,5.3185,5.3185,5.3185,5.3185,5.3185,5.3185,5.3185,5.3185,5.3185,5.3185,5.3185,5.3185,5.3185,5.3185,5.3185,5.3185,5.3185,5.3185,5.3185,5.3185,5.3185,5.3185,5.3185,5.3185,5.3185,5.3185,5.3185,5.3251,0.0,0.0,0.0,0.0,0.0,0.0,3.8222,0.0,3.985,0.0,0.0,0.0,0.0,0.0,0.0,0.0,4.4423,0.0,0.0,0.0,4.4765,0.0,0.0,0.0,4.5055,4.572,4.6295,4.6616,4.7022,4.7581,4.8342,4.8376,4.8578,4.8984,4.9001,4.9001,4.9001,4.9001,4.9001,4.9001,4.9001,4.9001,4.9001,4.9001,4.9001,4.9001,4.9001,4.9001,4.9001,4.9001,4.9001,4.9001,4.9001,4.9001,4.9001,4.9001,4.9001,4.9001,4.9001,4.9001,4.9001,4.9001,4.9001,4.9001,4.9001,4.9243,4.9526,4.9526,5.0102,5.0723,5.0804,5.1558,5.2297,5.2384,5.2806,5.3185,5.3185,5.3185,5.3185,5.3185,5.3185,5.3185,5.3185,5.3185,5.3185,5.3185,5.3185,5.3185,5.3185,5.3185,5.3185,5.3185,5.3185,5.3185,5.3185,5.3185,5.3185,5.3185,5.3185,5.3185,5.3185,5.3185,5.3185,5.3185,5.3185,5.3185,5.3185,5.3185,5.3185,5.3185,5.3185,5.323,3.7666,0.0,0.0,0.0,0.0,0.0,0.0,0.0,0.0,0.0,0.0,0.0,0.0,0.0,0.0,0.0,0.0,4.453,0.0,4.4546,0.0,0.0,0.0,0.0,0.0,4.5077,4.5483,4.5686,4.6194,4.6921,4.7838,4.7889,4.8257,4.8984,4.9001,4.9001,4.9001,4.9001,4.9001,4.9001,4.9001,4.9001,4.9001,4.9001,4.9001,4.9001,4.9001,4.9001,4.9001,4.9001,4.9001,4.9001,4.9001,4.9001,4.9001,4.9001,4.9001,4.9001,4.9001,4.9001,4.9001,4.9001,4.9001,4.9032,4.9199,4.9555,4.993,5.0085,5.0669,5.1244,5.1373,5.1922,5.2435,5.2586,5.2912,5.3185,5.3185,5.3185,5.3185,5.3185,5.3185,5.3185,5.3185,5.3185,5.3185,5.3185,5.3185,5.3185,5.3185,5.3185,5.3185,5.3185,5.3185,5.3185,5.3185,5.3185,5.3185,5.3185,5.3185,5.3185,5.3185,5.3185,5.3185,5.3185,5.3185,5.3185,5.3185,5.3185,5.3185,5.3185,5.3185,5.323,0.0,0.0,0.0,3.8306,0.0,0.0,0.0,0.0,4.0087,0.0,0.0,0.0,0.0,0.0,0.0,0.0,0.0,0.0,0.0,0.0,0.0,0.0,0.0,0.0,0.0,4.4632,4.4925,4.5652,4.572,4.638,4.7804,4.7889,4.8257,4.8984,4.9001,4.9001,4.9001,4.9001,4.9001,4.9001,4.9001,4.9001,4.9001,4.9001,4.9001,4.9001,4.9001,4.9001,4.9001,4.9001,4.9001,4.9001,4.9001,4.9001,4.9001,4.9001,4.9001,4.9001,4.9001,4.9001,4.9001,4.9001,4.9001,4.9107,4.9686,4.989,5.0017,5.0552,5.1217,5.1799,5.1939,5.2477,5.2999,5.3143,5.3185,5.3185,5.3185,5.3185,5.3185,5.3185,5.3185,5.3185,5.3185,5.3185,5.3185,5.3185,5.3185,5.3185,5.3185,5.3185,5.3185,5.3185,5.3185,5.3185,5.3185,5.3185,5.3185,5.3185,5.3185,5.3185,5.3185,5.3185,5.3185,5.3185,5.3185,5.3185,5.3185,5.3185,5.3185,5.3185,5.3185,5.3206,0.0,0.0,3.948,3.948,0.0,0.0,0.0,0.0,0.0,0.0,0.0,0.0,0.0,0.0,0.0,0.0,0.0,0.0,0.0,0.0,0.0,0.0,0.0,0.0,0.0,0.0,4.4716,4.4942,4.4959,4.5399,4.6397,4.6921,4.7513,4.8257,4.8748,4.9001,4.9001,4.9001,4.9001,4.9001,4.9001,4.9001,4.9001,4.9001,4.9001,4.9001,4.9001,4.9001,4.9001,4.9001,4.9001,4.9001,4.9001,4.9001,4.9001,4.9001,4.9001,4.9001,4.9001,4.9001,4.9001,4.9001,4.9273,4.9627,4.9832,5.0422,5.107,5.1235,5.1768,5.2304,5.2472,5.2717,5.2934,5.3143,5.3185,5.3185,5.3185,5.3185,5.3185,5.3185,5.3185,5.3185,5.3185,5.3185,5.3185,5.3185,5.3185,5.3185,5.3185,5.3185,5.3185,5.3185,5.3185,5.3185,5.3185,5.3185,5.3185,5.3185,5.3185,5.3185,5.3185,5.3185,5.3185,5.3185,5.3185,5.3185,5.3185,5.3185,5.3185,5.3185,5.3185,5.3209,3.9523,3.9799,0.0,4.0096,4.0096,0.0,4.0096,0.0,4.0096,0.0,0.0,0.0,0.0,0.0,0.0,0.0,0.0,0.0,0.0,4.4615,0.0,0.0,0.0,0.0,0.0,4.4615,4.4615,4.4615,4.4615,4.4936,4.5669,4.616,4.687,4.7855,4.8376,4.8748,4.9001,4.9001,4.9001,4.9001,4.9001,4.9001,4.9001,4.9001,4.9001,4.9001,4.9001,4.9001,4.9001,4.9001,4.9001,4.9001,4.9001,4.9001,4.9001,4.9001,4.9001,4.9032,4.926,4.9303,4.9364,4.9538,4.9855,5.0209,5.0449,5.1017,5.159,5.1519,5.1969,5.2495,5.2393,5.2605,5.2868,5.3143,5.3185,5.3185,5.3185,5.3185,5.3185,5.3185,5.3185,5.3185,5.3185,5.3185,5.3185,5.3185,5.3185,5.3185,5.3185,5.3185,5.3185,5.3185,5.3185,5.3185,5.3185,5.3185,5.3185,5.3185,5.3185,5.3185,5.3185,5.3185,5.3185,5.3185,5.3185,5.3185,5.3185,5.3185,5.3185,5.3185,5.3185,5.3251]}]]